[[{"header":{"parameterUnit":"m.s-1","parameterCategory":1,"la1":31.0,"la2":29.5877,"lo1":-88.7671,"lo2":-86.6584,"dy":0.0162,"dx":0.0185,"nx":115,"ny":88,"refTime":"2024-08-01T00:00:00:Z","depth":0,"parameterNumber":2,"parameterNumberName":"U-component_of_WINDS"},"data":[0.0,0.0,0.0,0.0,0.0,0.0,0.0,0.0,0.0,0.0,0.0,0.0,0.0,0.0,0.0,0.0,0.0,0.0,0.0,0.0,0.0,0.0,0.0,0.0,0.0,0.0,0.0,0.0,0.0,0.0,0.0,0.0,0.0,0.0,0.0,0.0,0.0,0.0,0.0,0.0,0.0,0.0,0.0,0.0,0.0,0.0,0.0,0.0,0.0,0.0,0.0,0.0,0.0,0.0,0.0,0.0,0.0,0.0,0.0,0.0,0.0,0.0,0.0,0.0,0.0,0.0,0.0,0.0,0.0,0.0,0.0,0.0,0.0,0.0,0.0,0.0,0.0,0.0,0.0,0.0,0.0,0.0,0.0,0.0,0.0,0.0,0.0,0.0,0.0,0.0,0.0,0.0,0.0,0.0,0.0,0.0,0.0,0.0,0.0,0.0,0.0,0.0,0.0,0.0,0.0,0.0,0.0,0.0,0.0,0.0,0.0,0.0,0.0,0.0,0.0,0.0,0.0,0.0,0.0,0.0,0.0,0.0,0.0,0.0,0.0,0.0,0.0,0.0,0.0,0.0,0.0,0.0,0.0,0.0,0.0,0.0,0.0,0.0,0.0,0.0,0.0,0.0,0.0,0.0,0.0,0.0,0.0,0.0,0.0,0.0,0.0,0.0,0.0,0.0,0.0,0.0,0.0,0.0,0.0,0.0,0.0,0.0,0.0,0.0,0.0,0.0,0.0,0.0,0.0,0.0,0.0,0.0,0.0,0.0,0.0,0.0,0.0,0.0,0.0,0.0,0.0,0.0,0.0,0.0,0.0,0.0,0.0,0.0,0.0,0.0,0.0,0.0,0.0,0.0,0.0,0.0,0.0,0.0,0.0,0.0,0.0,0.0,0.0,0.0,0.0,0.0,0.0,0.0,0.0,0.0,0.0,0.0,0.0,0.0,0.0,0.0,0.0,0.0,0.0,0.0,0.0,0.0,0.0,0.0,0.0,0.0,0.0,0.0,0.0,0.0,0.0,0.0,0.0,0.0,0.0,0.0,0.0,0.0,0.0,0.0,0.0,0.0,0.0,0.0,0.0,0.0,0.0,0.0,0.0,0.0,0.0,0.0,0.0,0.0,0.0,0.0,0.0,0.0,0.0,0.0,0.0,0.0,0.0,0.0,0.0,0.0,0.0,0.0,0.0,0.0,0.0,0.0,0.0,0.0,0.0,0.0,0.0,0.0,0.0,0.0,0.0,0.0,0.0,0.0,0.0,0.0,0.0,0.0,0.0,0.0,0.0,0.0,0.0,0.0,0.0,0.0,0.0,0.0,0.0,0.0,0.0,0.0,0.0,0.0,0.0,0.0,0.0,0.0,0.0,0.0,0.0,0.0,0.0,0.0,0.0,0.0,0.0,0.0,0.0,0.0,0.0,0.0,0.0,0.0,0.0,0.0,0.0,0.0,0.0,0.0,0.0,0.0,0.0,0.0,0.0,0.0,0.0,0.0,0.0,0.0,0.0,0.0,0.0,0.0,0.0,0.0,0.0,0.0,0.0,0.0,0.0,0.0,0.0,0.0,0.0,0.0,0.0,0.0,0.0,0.0,0.0,0.0,0.0,0.0,0.0,0.0,0.0,0.0,0.0,0.0,0.0,0.0,0.0,0.0,0.0,0.0,0.0,0.0,0.0,0.0,0.0,0.0,0.0,0.0,0.0,0.0,0.0,0.0,0.0,0.0,0.0,0.0,0.0,0.0,0.0,0.0,0.0,0.0,0.0,0.0,0.0,0.0,0.0,0.0,0.0,0.0,0.0,0.0,0.0,0.0,0.0,0.0,0.0,0.0,0.0,0.0,0.0,0.0,0.0,0.0,0.0,0.0,0.0,0.0,0.0,0.0,0.0,0.0,0.0,0.0,0.0,0.0,0.0,0.0,0.0,0.0,0.0,0.0,0.0,0.0,0.0,0.0,0.0,0.0,0.0,0.0,0.0,0.0,0.0,0.0,0.0,0.0,0.0,0.0,0.0,0.0,0.0,0.0,0.0,0.0,0.0,0.0,0.0,0.0,0.0,0.0,0.0,0.0,0.0,0.0,0.0,0.0,0.0,0.0,0.0,0.0,0.0,0.0,0.0,0.0,0.0,0.0,0.0,0.0,0.0,0.0,0.0,0.0,0.0,0.0,0.0,0.0,0.0,0.0,0.0,0.0,0.0,0.0,0.0,0.0,0.0,0.0,0.0,0.0,0.0,0.0,0.0,0.0,0.0,0.0,0.0,0.0,0.0,0.0,0.0,0.0,0.0,0.0,0.0,0.0,0.0,0.0,0.0,0.0,0.0,0.0,0.0,0.0,0.0,0.0,0.0,0.0,0.0,0.0,0.0,0.0,0.0,0.0,0.0,0.0,0.0,0.0,0.0,0.0,0.0,0.0,0.0,0.0,0.0,0.0,0.0,0.0,0.0,0.0,0.0,0.0,0.0,0.0,0.0,0.0,0.0,0.0,0.0,0.0,0.0,0.0,0.0,0.0,0.0,0.0,0.0,0.0,0.0,0.0,0.0,0.0,0.0,0.0,0.0,0.0,0.0,0.0,0.0,0.0,0.0,0.0,0.0,0.0,0.0,0.0,0.0,0.0,0.0,0.0,0.0,0.0,0.0,0.0,0.0,0.0,0.0,0.0,0.0,0.0,0.0,0.0,0.0,0.0,0.0,0.0,0.0,0.0,0.0,0.0,0.0,0.0,0.0,0.0,0.0,0.0,0.0,0.0,0.0,0.0,0.0,0.0,0.0,0.0,0.0,0.0,0.0,0.0,0.0,0.0,0.0,0.0,0.0,0.0,0.0,0.0,0.0,0.0,0.0,0.0,0.0,0.0,0.0,0.0,0.0,0.0,0.0,0.0,0.0,0.0,0.0,0.0,0.0,0.0,0.0,0.0,0.0,0.0,0.0,0.0,0.0,0.0,0.0,0.0,0.0,0.0,0.0,0.0,0.0,0.0,0.0,0.0,0.0,0.0,0.0,0.0,0.0,0.0,0.0,0.0,0.0,0.0,0.0,0.0,0.0,0.0,0.0,0.0,0.0,0.0,0.0,0.0,0.0,0.0,0.0,0.0,0.0,0.0,0.0,0.0,0.0,0.0,0.0,0.0,0.0,0.0,0.0,0.0,0.0,0.0,0.0,0.0,0.0,0.0,0.0,0.0,0.0,0.0,0.0,0.0,0.0,0.0,0.0,0.0,0.0,0.0,0.0,0.0,0.0,0.0,0.0,0.0,0.0,0.0,0.0,0.0,0.0,0.0,0.0,0.0,0.0,0.0,0.0,0.0,0.0,0.0,0.0,0.0,0.0,0.0,0.0,0.0,0.0,0.0,0.0,0.0,0.0,0.0,0.0,0.0,0.0,0.0,0.0,0.0,0.0,0.0,0.0,0.0,0.0,0.0,0.0,0.0,0.0,0.0,0.0,0.0,0.0,0.0,0.0,0.0,0.0,0.0,0.0,0.0,0.0,0.0,0.0,0.0,0.0,0.0,0.0,0.0,0.0,0.0,0.0,0.0,0.0,0.0,0.0,0.0,0.0,0.0,0.0,0.0,0.0,0.0,0.0,0.0,0.0,0.0,0.0,0.0,0.0,0.0,0.0,0.0,0.0,0.0,0.0,0.0,0.0,0.0,0.0,0.0,0.0,0.0,0.0,0.0,0.0,0.0,0.0,0.0,0.0,0.0,0.0,0.0,0.0,0.0,0.0,0.0,0.0,0.0,0.0,0.0,0.0,0.0,0.0,0.0,0.0,0.0,0.0,0.0,0.0,0.0,0.0,0.0,0.0,0.0,0.0,0.0,0.0,0.0,0.0,0.0,0.0,0.0,0.0,0.0,0.0,0.0,0.0,0.0,0.0,0.0,0.0,0.0,0.0,0.0,0.0,0.0,0.0,0.0,0.0,0.0,0.0,0.0,0.0,0.0,0.0,0.0,0.0,0.0,0.0,0.0,0.0,0.0,0.0,0.0,0.0,0.0,0.0,0.0,0.0,0.0,0.0,0.0,0.0,0.0,0.0,0.0,0.0,0.0,0.0,0.0,0.0,0.0,0.0,0.0,0.0,0.0,0.0,0.0,0.0,0.0,0.0,0.0,0.0,0.0,0.0,0.0,0.0,0.0,0.0,0.0,0.0,0.0,0.0,0.0,0.0,0.0,0.0,0.0,0.0,0.0,0.0,0.0,0.0,0.0,0.0,0.0,0.0,0.0,0.0,0.0,0.0,0.0,0.0,0.0,0.0,0.0,0.0,0.0,-0.9985,0.0,0.0,0.0,0.0,0.0,0.0,0.0,0.0,0.0,0.0,0.0,0.0,0.0,0.0,0.0,0.0,0.0,0.0,0.0,0.0,0.0,0.0,0.0,0.0,0.0,0.0,0.0,0.0,0.0,0.0,0.0,0.0,0.0,0.0,0.0,0.0,0.0,0.0,0.0,0.0,0.0,0.0,0.0,0.0,0.0,0.0,0.0,0.0,0.0,0.0,0.0,0.0,0.0,0.0,0.0,0.0,0.0,0.0,0.0,0.0,0.0,0.0,0.0,0.0,0.0,0.0,0.0,0.0,0.0,0.0,0.0,0.0,0.0,0.0,0.0,0.0,0.0,0.0,0.0,0.0,0.0,0.0,0.0,0.0,0.0,0.0,0.0,0.0,0.0,0.0,0.0,0.0,0.0,0.0,0.0,0.0,0.0,0.0,0.0,0.0,0.0,0.0,0.0,0.0,0.0,0.0,0.0,0.0,0.0,0.0,-0.4237,-0.4737,-0.6226,-0.7366,-0.8049,0.0,0.0,0.0,0.0,0.0,0.0,0.0,0.0,0.0,0.0,0.0,0.0,0.0,0.0,0.0,0.0,0.0,0.0,0.0,0.0,0.0,0.0,0.0,0.0,0.0,0.0,0.0,0.0,0.0,0.0,0.0,0.0,0.0,0.0,0.0,0.0,0.0,0.0,0.0,0.0,0.0,0.0,0.0,0.0,0.0,0.0,0.0,0.0,0.0,0.0,0.0,0.0,0.0,0.0,0.0,0.0,0.0,0.0,0.0,0.0,0.0,0.0,0.0,0.0,0.0,0.0,0.0,0.0,0.0,0.0,0.0,0.0,0.0,0.0,0.0,0.0,0.0,0.0,0.0,0.0,0.0,0.0,0.0,0.0,0.0,0.0,0.0,0.0,0.0,0.0,0.0,0.0,0.0,0.0,0.0,0.0,0.0,0.0,0.0,0.0,0.0,0.0,0.0,0.0,0.0,0.0,0.0,0.0,0.0,0.0,0.0,0.0,-0.7104,-0.7812,-0.7574,0.0,0.0,0.0,0.0,0.0,0.0,0.0,0.0,0.0,0.0,0.0,0.0,0.0,0.0,0.0,0.0,0.0,0.0,0.0,0.0,0.0,0.0,0.0,0.0,0.0,0.0,0.0,0.0,0.0,0.0,0.0,0.0,0.0,0.0,0.0,0.0,0.0,0.0,0.0,0.0,0.0,0.0,0.0,0.0,0.0,0.0,0.0,0.0,0.0,0.0,0.0,0.0,0.0,0.0,0.0,0.0,0.0,0.0,0.0,0.0,0.0,0.0,0.0,0.0,0.0,0.0,0.0,0.0,0.0,0.0,0.0,0.0,0.0,0.0,0.0,0.0,0.0,0.0,0.0,0.0,0.0,0.0,0.0,0.0,0.0,0.0,0.0,0.0,0.0,0.0,0.0,0.0,0.0,0.0,0.0,0.0,0.0,0.0,0.0,0.0,0.0,0.0,0.0,0.0,0.0,0.0,0.0,0.0,0.0,0.0,-0.5277,-0.9822,-0.9819,0.0,-1.0919,0.0,0.0,0.0,0.0,0.0,0.0,0.0,0.0,0.0,0.0,0.0,0.0,0.0,0.0,0.0,0.0,0.0,0.0,0.0,0.0,0.0,0.0,0.0,0.0,0.0,0.0,0.0,0.0,0.0,0.0,0.0,0.0,0.0,0.0,0.0,0.0,0.0,0.0,0.0,0.0,0.0,0.0,0.0,0.0,0.0,0.0,0.0,0.0,0.0,0.0,0.0,0.0,0.0,0.0,0.0,0.0,0.0,0.0,0.0,0.0,0.0,0.0,0.0,0.0,0.0,0.0,0.0,0.0,0.0,0.0,0.0,0.0,0.0,0.0,0.0,0.0,0.0,0.0,0.0,0.0,0.0,0.0,0.0,0.0,0.0,0.0,0.0,0.0,0.0,0.0,0.0,0.0,0.0,0.0,0.0,0.0,0.0,0.0,0.0,0.0,0.0,0.0,0.0,0.0,0.0,0.0,0.0,0.0,0.0,0.0,0.0,-1.074,-1.0296,-1.0475,0.0,0.0,0.0,0.0,0.0,0.0,0.0,0.0,0.0,0.0,0.0,0.0,0.0,0.0,0.0,0.0,0.0,0.0,0.0,0.0,0.0,0.0,0.0,0.0,0.0,0.0,0.0,0.0,0.0,0.0,0.0,0.0,0.0,0.0,0.0,0.0,0.0,0.0,0.0,0.0,0.0,0.0,0.0,0.0,0.0,0.0,0.0,0.0,0.0,0.0,0.0,0.0,0.0,0.0,0.0,0.0,0.0,0.0,0.0,0.0,0.0,0.0,0.0,0.0,0.0,0.0,0.0,0.0,0.0,0.0,0.0,0.0,0.0,0.0,0.0,0.0,0.0,0.0,0.0,0.0,0.0,0.0,0.0,0.0,0.0,0.0,0.0,0.0,0.0,0.0,0.0,0.0,0.0,0.0,0.0,0.0,0.0,0.0,0.0,0.0,0.0,0.0,0.0,0.0,0.0,0.0,0.0,0.0,0.0,0.0,-1.1613,0.0,-1.2148,-1.1659,-1.1498,-1.1498,0.0,0.0,0.0,0.0,0.0,0.0,0.0,0.0,0.0,0.0,0.0,0.0,0.0,0.0,0.0,0.0,0.0,0.0,0.0,0.0,0.0,0.0,0.0,0.0,0.0,0.0,0.0,0.0,0.0,0.0,0.0,0.0,0.0,0.0,0.0,0.0,0.0,0.0,0.0,0.0,0.0,0.0,0.0,0.0,0.0,0.0,0.0,0.0,0.0,0.0,0.0,0.0,0.0,0.0,0.0,0.0,0.0,0.0,0.0,0.0,0.0,0.0,0.0,0.0,0.0,0.0,0.0,0.0,0.0,0.0,0.0,0.0,0.0,0.0,0.0,0.0,0.0,0.0,0.0,0.0,0.0,0.0,0.0,0.0,0.0,0.0,0.0,0.0,0.0,0.0,0.0,0.0,0.0,0.0,0.0,0.0,0.0,0.0,0.0,0.0,0.0,0.0,0.0,0.0,0.0,0.0,0.0,0.0,0.0,-1.2459,-1.3483,-1.4871,-1.4886,-1.3896,0.0,0.0,0.0,0.0,0.0,0.0,0.0,0.0,0.0,0.0,0.0,0.0,0.0,0.0,0.0,0.0,0.0,0.0,0.0,0.0,0.0,0.0,0.0,0.0,0.0,0.0,0.0,0.0,0.0,0.0,0.0,0.0,0.0,0.0,0.0,0.0,0.0,0.0,0.0,0.0,0.0,0.0,0.0,0.0,0.0,0.0,0.0,0.0,0.0,0.0,0.0,0.0,0.0,0.0,0.0,0.0,0.0,0.0,0.0,0.0,0.0,0.0,0.0,0.0,0.0,0.0,0.0,0.0,0.0,0.0,0.0,0.0,0.0,0.0,0.0,0.0,0.0,0.0,0.0,0.0,0.0,0.0,0.0,0.0,0.0,0.0,0.0,0.0,0.0,0.0,0.0,0.0,0.0,0.0,0.0,0.0,0.0,0.0,0.0,0.0,0.0,0.0,0.0,0.0,0.0,0.0,0.0,0.0,0.0,-0.7392,-1.0272,-1.3949,0.0,-1.4878,-1.3607,0.0,0.0,0.0,0.0,0.0,0.0,0.0,0.0,0.0,0.0,0.0,0.0,0.0,0.0,0.0,0.0,0.0,0.0,0.0,0.0,0.0,0.0,0.0,0.0,0.0,0.0,0.0,0.0,0.0,0.0,0.0,0.0,0.0,0.0,0.0,0.0,0.0,0.0,0.0,0.0,0.0,0.0,0.0,0.0,0.0,0.0,0.0,0.0,0.0,0.0,0.0,0.0,0.0,0.0,0.0,0.0,0.0,0.0,0.0,0.0,0.0,0.0,0.0,0.0,0.0,0.0,0.0,0.0,0.0,0.0,0.0,0.0,0.0,0.0,0.0,0.0,0.0,0.0,0.0,0.0,0.0,0.0,0.0,0.0,0.0,0.0,0.0,0.0,0.0,0.0,0.0,0.0,0.0,0.0,0.0,0.0,0.0,0.0,0.0,0.0,0.0,0.0,0.0,0.0,0.0,0.0,0.0,0.0,0.0,-0.7064,0.0,-1.511,0.0,-1.4326,-1.2119,0.0,0.0,0.0,0.0,0.0,0.0,0.0,0.0,0.0,0.0,0.0,0.0,0.0,0.0,0.0,0.0,0.0,0.0,0.0,0.0,0.0,0.0,0.0,0.0,0.0,0.0,0.0,0.0,0.0,0.0,0.0,0.0,0.0,0.0,0.0,0.0,0.0,0.0,0.0,0.0,0.0,0.0,0.0,0.0,0.0,0.0,0.0,0.0,0.0,0.0,0.0,0.0,0.0,0.0,0.0,0.0,0.0,0.0,0.0,0.0,0.0,0.0,0.0,0.0,0.0,0.0,0.0,0.0,0.0,0.0,0.0,0.0,0.0,0.0,0.0,0.0,0.0,0.0,0.0,0.0,0.0,0.0,0.0,0.0,0.0,0.0,0.0,0.0,0.0,0.0,0.0,0.0,0.0,0.0,0.0,0.0,0.0,0.0,0.0,0.0,0.0,0.0,0.0,0.0,0.0,0.0,0.0,0.0,0.0,-1.2338,-1.5407,-1.6557,-1.5327,-1.3506,-0.9479,0.0,0.0,0.0,0.0,0.0,0.0,0.0,0.0,0.0,0.0,0.0,0.0,0.0,0.0,0.0,0.0,0.0,0.0,0.0,0.0,0.0,0.0,0.0,0.0,0.0,0.0,0.0,0.0,0.0,0.0,0.0,0.0,0.0,0.0,0.0,0.0,0.0,0.0,0.0,0.0,0.0,0.0,0.0,0.0,0.0,0.0,0.0,0.0,0.0,0.0,0.0,0.0,0.0,0.0,0.0,0.0,0.0,0.0,0.0,0.0,0.0,0.0,0.0,0.0,0.0,0.0,0.0,0.0,0.0,0.0,0.0,0.0,0.0,0.0,0.0,0.0,0.0,0.0,0.0,0.0,0.0,0.0,0.0,0.0,0.0,0.0,0.0,0.0,0.0,0.0,0.0,0.0,0.0,0.0,0.0,0.0,0.0,0.0,0.0,0.0,0.0,0.0,0.0,0.0,0.0,0.0,0.0,0.0,0.0,-1.0741,-1.2835,-1.5411,-1.808,-1.2745,-0.9104,0.0,0.0,0.0,0.0,0.0,0.0,0.0,0.0,0.0,0.0,0.0,0.0,0.0,0.0,0.0,0.0,0.0,0.0,0.0,0.0,0.0,0.0,0.0,0.0,0.0,0.0,0.0,0.0,0.0,0.0,0.0,0.0,0.0,0.0,0.0,0.0,0.0,0.0,0.0,0.0,0.0,0.0,0.0,0.0,0.0,0.0,0.0,0.0,0.0,0.0,0.0,0.0,0.0,0.0,0.0,0.0,0.0,0.0,0.0,0.0,0.0,0.0,0.0,0.0,0.0,0.0,0.0,0.0,0.0,0.0,0.0,0.0,0.0,0.0,0.0,0.0,0.0,0.0,0.0,0.0,0.0,0.0,0.0,0.0,0.0,0.0,0.0,0.0,0.0,0.0,0.0,0.0,0.0,0.0,0.0,0.0,0.0,0.0,0.0,0.0,0.0,0.0,0.0,0.0,0.0,0.0,0.0,0.0,0.0,-1.193,-1.4372,-1.7002,-1.9812,-1.425,-1.0641,-0.9332,0.0,0.0,0.0,0.0,0.0,0.0,0.0,0.0,0.0,0.0,0.0,0.0,0.0,0.0,0.0,0.0,0.0,0.0,0.0,0.0,0.0,0.0,0.0,0.0,0.0,0.0,0.0,0.0,0.0,0.0,0.0,0.0,0.0,0.0,0.0,0.0,0.0,0.0,0.0,0.0,0.0,0.0,0.0,0.0,0.0,0.0,0.0,0.0,0.0,0.0,0.0,0.0,0.0,0.0,0.0,0.0,0.0,0.0,0.0,0.0,0.0,0.0,0.0,0.0,0.0,0.0,0.0,0.0,0.0,0.0,0.0,0.0,0.0,0.0,0.0,0.0,0.0,0.0,0.0,0.0,0.0,0.0,0.0,0.0,0.0,0.0,0.0,0.0,0.0,0.0,0.0,0.0,0.0,0.0,0.0,0.0,0.0,0.0,0.0,0.0,0.0,0.0,0.0,0.0,0.0,0.0,0.0,0.0,-1.5117,-1.9126,-2.0827,-2.0094,-1.7532,-1.3807,0.0,0.0,0.0,0.0,0.0,0.0,0.0,0.0,0.0,0.0,0.0,0.0,0.0,0.0,0.0,0.0,0.0,0.0,0.0,0.0,0.0,0.0,0.0,0.0,0.0,0.0,0.0,0.0,0.0,0.0,0.0,0.0,0.0,0.0,0.0,0.0,0.0,0.0,0.0,0.0,0.0,0.0,0.0,0.0,0.0,0.0,0.0,0.0,0.0,0.0,0.0,0.0,0.0,0.0,0.0,0.0,0.0,0.0,0.0,0.0,0.0,0.0,0.0,0.0,0.0,0.0,0.0,0.0,0.0,0.0,0.0,0.0,0.0,0.0,0.0,0.0,0.0,0.0,0.0,0.0,0.0,0.0,0.0,0.0,0.0,0.0,0.0,0.0,0.0,0.0,0.0,0.0,0.0,0.0,0.0,0.0,0.0,0.0,0.0,0.0,0.0,0.0,0.0,0.0,0.0,0.0,0.0,0.0,0.0,-1.5753,-1.9638,-2.2214,-2.3146,-2.014,-1.6909,0.0,0.0,0.0,0.0,0.0,0.0,0.0,0.0,0.0,0.0,0.0,0.0,0.0,0.0,0.0,0.0,0.0,0.0,0.0,0.0,0.0,0.0,0.0,0.0,0.0,0.0,0.0,0.0,0.0,0.0,0.0,0.0,0.0,0.0,0.0,0.0,0.0,0.0,0.0,0.0,0.0,0.0,0.0,0.0,0.0,0.0,0.0,0.0,0.0,0.0,0.0,0.0,0.0,0.0,0.0,0.0,0.0,0.0,0.0,0.0,0.0,0.0,0.0,0.0,0.0,0.0,0.0,0.0,0.0,0.0,0.0,0.0,0.0,0.0,0.0,0.0,0.0,0.0,0.0,0.0,0.0,0.0,0.0,0.0,0.0,0.0,0.0,0.0,0.0,0.0,0.0,0.0,0.0,0.0,0.0,0.0,0.0,0.0,0.0,0.0,0.0,0.0,0.0,0.0,0.0,0.0,0.0,0.0,-1.4571,-1.6664,-2.0272,-2.2958,-2.4634,-2.2072,-1.898,0.0,0.0,0.0,0.0,0.0,0.0,0.0,0.0,0.0,0.0,0.0,0.0,0.0,0.0,0.0,0.0,0.0,0.0,0.0,0.0,0.0,0.0,0.0,0.0,0.0,0.0,0.0,0.0,0.0,0.0,0.0,0.0,0.0,0.0,0.0,0.0,0.0,0.0,0.0,0.0,0.0,0.0,0.0,0.0,0.0,0.0,0.0,0.0,0.0,0.0,0.0,0.0,0.0,0.0,0.0,0.0,0.0,0.0,0.0,0.0,0.0,0.0,0.0,0.0,0.0,0.0,0.0,0.0,0.0,0.0,0.0,0.0,0.0,0.0,0.0,0.0,0.0,0.0,0.0,0.0,0.0,0.0,0.0,0.0,0.0,0.0,0.0,0.0,0.0,0.0,0.0,0.0,0.0,0.0,0.0,0.0,0.0,0.0,0.0,0.0,0.0,0.0,0.0,0.0,0.0,0.0,0.0,0.0,-1.5114,-1.7822,-2.0906,-2.3285,-2.4791,-2.3289,-2.0212,0.0,0.0,0.0,0.0,0.0,0.0,0.0,0.0,0.0,0.0,0.0,0.0,0.0,0.0,0.0,0.0,0.0,0.0,0.0,0.0,0.0,0.0,0.0,0.0,0.0,0.0,0.0,0.0,0.0,0.0,0.0,0.0,0.0,0.0,0.0,0.0,0.0,0.0,0.0,0.0,0.0,0.0,0.0,0.0,0.0,0.0,0.0,0.0,0.0,0.0,0.0,0.0,0.0,0.0,0.0,0.0,0.0,0.0,0.0,0.0,0.0,0.0,0.0,0.0,0.0,0.0,0.0,0.0,0.0,0.0,0.0,0.0,0.0,0.0,0.0,0.0,0.0,0.0,0.0,0.0,0.0,0.0,0.0,0.0,0.0,0.0,0.0,0.0,0.0,0.0,0.0,0.0,0.0,0.0,0.0,0.0,0.0,0.0,0.0,0.0,0.0,0.0,0.0,0.0,0.0,0.0,0.0,0.0,-1.479,-1.8216,-2.1143,-2.3395,-2.4935,-2.3015,-2.0247,0.0,0.0,0.0,0.0,0.0,0.0,0.0,0.0,0.0,0.0,0.0,0.0,0.0,0.0,0.0,0.0,0.0,0.0,0.0,0.0,0.0,0.0,0.0,0.0,0.0,0.0,0.0,0.0,0.0,0.0,0.0,0.0,0.0,0.0,0.0,0.0,0.0,0.0,0.0,0.0,0.0,0.0,0.0,0.0,0.0,0.0,0.0,0.0,-1.9863,0.0,0.0,0.0,0.0,0.0,0.0,0.0,0.0,0.0,0.0,0.0,0.0,0.0,0.0,0.0,0.0,0.0,0.0,0.0,0.0,0.0,0.0,0.0,0.0,0.0,0.0,0.0,0.0,0.0,0.0,0.0,0.0,0.0,0.0,0.0,0.0,0.0,0.0,0.0,0.0,0.0,0.0,0.0,0.0,0.0,0.0,0.0,0.0,0.0,0.0,0.0,0.0,0.0,0.0,0.0,0.0,0.0,0.0,0.0,-1.4978,-1.8808,-2.1211,-2.327,-2.4885,-2.357,-2.105,0.0,0.0,0.0,0.0,0.0,0.0,0.0,0.0,0.0,0.0,0.0,0.0,0.0,0.0,0.0,0.0,0.0,0.0,0.0,0.0,0.0,0.0,0.0,0.0,0.0,0.0,0.0,0.0,0.0,0.0,0.0,0.0,0.0,0.0,0.0,0.0,0.0,0.0,0.0,0.0,0.0,0.0,0.0,0.0,0.0,0.0,0.0,0.0,0.0,0.0,0.0,0.0,0.0,0.0,0.0,0.0,0.0,0.0,0.0,0.0,0.0,0.0,0.0,0.0,0.0,0.0,0.0,0.0,0.0,0.0,0.0,0.0,0.0,0.0,0.0,0.0,0.0,0.0,0.0,0.0,0.0,0.0,0.0,0.0,0.0,0.0,0.0,0.0,0.0,0.0,0.0,0.0,0.0,0.0,0.0,0.0,0.0,0.0,0.0,0.0,0.0,0.0,0.0,0.0,0.0,0.0,0.0,-1.2078,-1.5046,-1.9197,-2.1125,-2.3005,-2.4925,-2.4412,-2.2121,-1.7982,0.0,0.0,0.0,0.0,0.0,0.0,0.0,0.0,0.0,0.0,0.0,0.0,0.0,0.0,0.0,0.0,0.0,0.0,0.0,0.0,0.0,0.0,0.0,0.0,0.0,0.0,0.0,0.0,0.0,0.0,0.0,0.0,0.0,0.0,0.0,0.0,0.0,0.0,-1.0385,-1.2882,0.0,0.0,0.0,0.0,0.0,0.0,0.0,0.0,-2.2008,0.0,0.0,0.0,0.0,0.0,0.0,0.0,0.0,0.0,0.0,0.0,0.0,0.0,0.0,0.0,0.0,0.0,0.0,0.0,0.0,0.0,0.0,0.0,0.0,0.0,0.0,0.0,0.0,0.0,0.0,0.0,0.0,0.0,0.0,0.0,0.0,0.0,0.0,0.0,0.0,0.0,0.0,0.0,0.0,0.0,0.0,0.0,0.0,0.0,0.0,0.0,0.0,0.0,0.0,0.0,0.0,-0.9383,-1.0782,-1.3818,-1.8545,-2.082,-2.2785,-2.4512,-2.4856,-2.2847,-1.8491,0.0,0.0,0.0,0.0,0.0,0.0,0.0,0.0,0.0,0.0,0.0,0.0,0.0,0.0,0.0,0.0,0.0,0.0,0.0,0.0,0.0,0.0,0.0,0.0,0.0,0.0,0.0,0.0,0.0,0.0,0.0,0.0,0.0,0.0,0.0,0.0,0.0,0.0,0.0,-1.556,-1.7656,0.0,0.0,0.0,0.0,0.0,0.0,0.0,0.0,-2.1761,0.0,0.0,0.0,0.0,0.0,0.0,0.0,0.0,0.0,0.0,0.0,0.0,0.0,0.0,0.0,0.0,0.0,0.0,0.0,0.0,0.0,0.0,0.0,0.0,0.0,0.0,0.0,0.0,0.0,0.0,0.0,0.0,0.0,0.0,0.0,0.0,0.0,0.0,0.0,0.0,0.0,0.0,0.0,0.0,0.0,0.0,0.0,0.0,0.0,0.0,0.0,0.0,0.0,0.0,0.0,-0.8687,-1.1109,-1.4403,-1.8623,-2.0733,-2.2405,-2.3743,-2.2941,-2.0893,0.0,0.0,0.0,0.0,0.0,0.0,0.0,0.0,0.0,0.0,0.0,0.0,0.0,0.0,0.0,0.0,0.0,0.0,0.0,0.0,0.0,0.0,0.0,0.0,0.0,0.0,0.0,0.0,0.0,0.0,0.0,0.0,0.0,0.0,0.0,0.0,0.0,0.0,0.0,0.0,-1.621,-1.8504,-2.0247,0.0,0.0,0.0,0.0,0.0,0.0,-2.3826,-2.3744,0.0,0.0,0.0,0.0,0.0,0.0,0.0,0.0,0.0,0.0,0.0,0.0,0.0,0.0,0.0,0.0,0.0,0.0,0.0,0.0,0.0,0.0,0.0,0.0,0.0,0.0,0.0,0.0,0.0,0.0,0.0,0.0,0.0,0.0,0.0,0.0,0.0,0.0,0.0,0.0,0.0,0.0,0.0,0.0,0.0,0.0,0.0,0.0,0.0,0.0,0.0,0.0,0.0,0.0,0.0,-0.8085,-1.127,-1.4758,-1.8481,-2.035,-2.1814,-2.2936,-2.1233,-1.9076,0.0,0.0,0.0,0.0,0.0,0.0,0.0,0.0,0.0,0.0,0.0,0.0,0.0,0.0,0.0,0.0,0.0,0.0,0.0,0.0,0.0,0.0,0.0,0.0,0.0,0.0,0.0,0.0,0.0,0.0,0.0,0.0,0.0,0.0,0.0,0.0,0.0,0.0,0.0,0.0,0.0,-1.9595,-2.1801,-2.2144,0.0,0.0,0.0,0.0,-2.5407,-2.7118,0.0,0.0,0.0,0.0,0.0,0.0,0.0,0.0,0.0,0.0,0.0,0.0,0.0,0.0,0.0,0.0,0.0,0.0,0.0,0.0,0.0,0.0,0.0,0.0,0.0,0.0,0.0,0.0,0.0,0.0,0.0,0.0,0.0,0.0,0.0,0.0,0.0,0.0,0.0,0.0,0.0,0.0,0.0,0.0,0.0,0.0,0.0,0.0,0.0,0.0,0.0,0.0,0.0,0.0,0.0,0.0,-0.696,-0.9749,-1.321,-1.7239,-1.9168,-2.0812,-2.2267,-2.1852,-1.9708,0.0,0.0,0.0,0.0,0.0,0.0,0.0,0.0,0.0,0.0,0.0,0.0,0.0,0.0,0.0,0.0,0.0,0.0,0.0,0.0,0.0,0.0,0.0,0.0,0.0,0.0,0.0,0.0,0.0,0.0,0.0,0.0,0.0,0.0,0.0,0.0,0.0,0.0,0.0,0.0,0.0,-2.2477,-2.3426,-2.3993,-2.4676,0.0,0.0,0.0,-2.5337,-2.7986,0.0,0.0,0.0,0.0,0.0,0.0,0.0,0.0,0.0,0.0,0.0,0.0,0.0,0.0,0.0,0.0,0.0,0.0,0.0,0.0,0.0,0.0,0.0,0.0,0.0,0.0,0.0,0.0,0.0,0.0,0.0,0.0,0.0,0.0,0.0,0.0,0.0,0.0,0.0,0.0,0.0,0.0,0.0,0.0,0.0,0.0,0.0,0.0,0.0,0.0,0.0,0.0,0.0,0.0,0.0,-0.4427,-0.6859,-0.9724,-1.2875,-1.6294,-1.8424,-2.0044,-2.1152,-1.9915,-1.7885,0.0,0.0,0.0,0.0,0.0,0.0,0.0,0.0,0.0,0.0,0.0,0.0,0.0,0.0,0.0,0.0,0.0,0.0,0.0,0.0,0.0,0.0,0.0,0.0,0.0,0.0,0.0,0.0,0.0,0.0,0.0,0.0,0.0,0.0,0.0,0.0,0.0,0.0,0.0,0.0,0.0,0.0,-2.4597,-2.4584,0.0,0.0,0.0,-2.6792,-2.753,0.0,0.0,0.0,0.0,0.0,0.0,0.0,0.0,0.0,0.0,0.0,0.0,0.0,0.0,0.0,0.0,0.0,0.0,0.0,0.0,0.0,0.0,0.0,0.0,0.0,0.0,0.0,0.0,0.0,0.0,0.0,0.0,0.0,0.0,0.0,0.0,0.0,0.0,0.0,0.0,0.0,0.0,0.0,0.0,0.0,0.0,0.0,0.0,0.0,0.0,0.0,0.0,0.0,0.0,0.0,0.0,0.0,-0.7122,-1.0103,-1.3071,-1.5987,-1.7904,-1.9254,-1.998,-1.8536,0.0,0.0,0.0,0.0,0.0,0.0,0.0,0.0,0.0,0.0,0.0,0.0,0.0,0.0,0.0,0.0,0.0,0.0,0.0,0.0,0.0,0.0,0.0,0.0,0.0,0.0,0.0,-0.5553,0.0,0.0,0.0,0.0,0.0,0.0,0.0,0.0,0.0,0.0,0.0,0.0,0.0,0.0,-2.3079,-2.5458,-2.5241,-2.5641,0.0,0.0,-2.7655,-2.9584,-3.0049,-2.8809,0.0,0.0,0.0,0.0,0.0,0.0,0.0,0.0,0.0,0.0,0.0,0.0,0.0,0.0,0.0,0.0,0.0,0.0,0.0,0.0,0.0,0.0,0.0,0.0,0.0,0.0,0.0,0.0,0.0,0.0,0.0,0.0,0.0,0.0,0.0,0.0,0.0,0.0,0.0,0.0,0.0,0.0,0.0,0.0,0.0,0.0,0.0,0.0,0.0,0.0,0.0,0.0,0.0,0.0,0.0,-0.7743,-1.0761,-1.3751,-1.6608,-1.7548,-1.8334,-1.9055,-1.8895,-1.6987,0.0,0.0,0.0,0.0,0.0,0.0,0.0,0.0,0.0,0.0,0.0,0.0,0.0,0.0,0.0,0.0,0.0,0.0,0.0,0.0,0.0,0.0,0.0,0.0,0.0,0.0,0.0,0.0,0.0,0.0,0.0,0.0,0.0,0.0,0.0,0.0,0.0,0.0,0.0,0.0,0.0,-2.3384,-2.5889,-2.6471,-2.7307,0.0,0.0,-2.8667,-3.0586,-3.11,-2.923,-2.3198,0.0,0.0,0.0,0.0,0.0,0.0,0.0,0.0,0.0,0.0,0.0,0.0,0.0,0.0,0.0,0.0,0.0,0.0,0.0,0.0,0.0,0.0,0.0,0.0,0.0,0.0,0.0,0.0,0.0,0.0,0.0,0.0,0.0,0.0,0.0,0.0,0.0,0.0,0.0,0.0,0.0,0.0,0.0,0.0,0.0,0.0,0.0,0.0,0.0,0.0,0.0,0.0,0.0,-0.5577,-0.7756,-1.0979,-1.3593,-1.5469,-1.7065,-1.7961,-1.8145,-1.8532,-1.7315,0.0,0.0,0.0,0.0,0.0,0.0,0.0,0.0,0.0,0.0,0.0,0.0,0.0,0.0,0.0,0.0,0.0,0.0,0.0,0.0,0.0,0.0,0.0,0.0,0.0,0.0,0.0,0.0,-1.13,-1.2707,-1.2077,0.0,0.0,0.0,0.0,0.0,0.0,0.0,0.0,0.0,0.0,-2.4121,-2.6021,-2.6466,0.0,0.0,-2.8529,-2.8241,-2.8859,-3.0848,-3.0728,-2.6129,-2.3562,0.0,0.0,0.0,0.0,0.0,0.0,0.0,0.0,0.0,0.0,0.0,0.0,0.0,0.0,0.0,0.0,0.0,0.0,0.0,0.0,0.0,0.0,0.0,0.0,0.0,0.0,0.0,0.0,0.0,0.0,0.0,0.0,0.0,0.0,0.0,0.0,0.0,0.0,0.0,0.0,0.0,0.0,0.0,0.0,0.0,0.0,0.0,0.0,0.0,0.0,0.0,0.0,-0.5581,-0.7776,-1.0797,-1.3181,-1.4952,-1.6414,-1.723,-1.7375,-1.7887,-1.7043,0.0,0.0,0.0,0.0,0.0,0.0,0.0,0.0,0.0,0.0,0.0,0.0,0.0,0.0,0.0,0.0,0.0,0.0,0.0,0.0,0.0,0.0,0.0,0.0,0.0,0.0,0.0,0.0,-1.0986,-1.2052,-1.264,0.0,0.0,0.0,0.0,0.0,0.0,0.0,0.0,0.0,0.0,-2.478,-2.636,-2.6661,-2.726,-2.886,-2.8338,-2.8035,-2.8886,-3.027,-3.0291,-2.7607,0.0,0.0,0.0,0.0,0.0,0.0,0.0,0.0,0.0,0.0,0.0,0.0,0.0,0.0,0.0,0.0,0.0,0.0,0.0,0.0,0.0,0.0,0.0,0.0,0.0,0.0,0.0,0.0,0.0,0.0,0.0,0.0,0.0,0.0,0.0,0.0,0.0,0.0,0.0,0.0,0.0,0.0,0.0,0.0,0.0,0.0,0.0,0.0,0.0,0.0,0.0,0.0,0.0,0.0,-0.7964,-1.0176,-1.2668,-1.5423,-1.5567,-1.5979,-1.6779,-1.6963,-1.5938,-1.3621,0.0,0.0,0.0,0.0,0.0,0.0,0.0,0.0,0.0,0.0,0.0,0.0,0.0,0.0,0.0,0.0,0.0,0.0,0.0,0.0,0.0,0.0,0.0,0.0,0.0,0.0,-1.0135,-1.0468,-1.1011,0.0,0.0,0.0,0.0,0.0,0.0,0.0,0.0,0.0,0.0,-2.4224,-2.5232,-2.6999,-2.7145,-2.7699,-2.9349,-2.8215,-2.8249,-3.1377,-2.9416,-2.719,0.0,0.0,0.0,0.0,0.0,0.0,0.0,0.0,0.0,0.0,0.0,0.0,0.0,0.0,0.0,0.0,0.0,0.0,0.0,0.0,0.0,0.0,0.0,0.0,0.0,0.0,0.0,-1.1869,-1.1169,0.0,0.0,0.0,0.0,0.0,0.0,0.0,0.0,0.0,0.0,0.0,-1.0167,-1.034,0.0,0.0,0.0,0.0,0.0,0.0,0.0,0.0,0.0,0.0,0.0,0.0,-0.6031,-0.8139,-1.0551,-1.2596,-1.423,-1.4818,-1.5358,-1.5921,-1.6414,-1.5806,-1.4023,0.0,0.0,0.0,0.0,0.0,0.0,0.0,0.0,0.0,0.0,0.0,0.0,0.0,0.0,0.0,0.0,0.0,0.0,0.0,0.0,0.0,0.0,0.0,0.0,0.0,-1.1153,0.0,0.0,0.0,0.0,0.0,0.0,0.0,0.0,0.0,0.0,0.0,-2.2421,-2.4689,-2.4874,-2.5414,-2.7129,-2.7555,-2.8254,0.0,0.0,0.0,0.0,0.0,0.0,0.0,0.0,0.0,0.0,0.0,0.0,0.0,0.0,-3.111,-2.5983,-2.0969,-1.786,-1.8914,0.0,0.0,0.0,0.0,0.0,0.0,0.0,0.0,0.0,0.0,0.0,0.0,0.0,0.0,0.0,0.0,-1.1723,0.0,0.0,0.0,0.0,0.0,0.0,0.0,0.0,-1.1322,-1.1859,-1.1891,-1.2266,-1.1975,0.0,-1.0463,-0.9201,0.0,0.0,0.0,0.0,0.0,0.0,0.0,0.0,-0.646,-0.8166,-1.0403,-1.2216,-1.3492,-1.4181,-1.4863,-1.5544,-1.6086,-1.5743,-1.4419,-1.3699,-1.2704,0.0,0.0,0.0,0.0,0.0,0.0,0.0,0.0,0.0,0.0,0.0,0.0,0.0,0.0,0.0,0.0,0.0,0.0,0.0,0.0,0.0,0.0,0.0,-1.0706,0.0,0.0,0.0,0.0,0.0,0.0,0.0,0.0,0.0,-1.9361,-2.2367,-2.494,-2.6281,-2.6105,-2.636,-2.7739,0.0,0.0,0.0,0.0,0.0,0.0,0.0,-2.9648,-3.2886,-3.4225,-3.4695,-3.4143,-3.5572,-3.6422,-3.5352,0.0,0.0,-2.8652,-2.5782,-2.3995,-2.3223,-2.2219,-2.2237,-2.4813,-2.5972,-2.609,0.0,0.0,0.0,0.0,0.0,0.0,0.0,0.0,-1.5858,-1.5683,0.0,-1.3993,0.0,0.0,0.0,0.0,0.0,0.0,0.0,0.0,-1.3636,-1.4058,-1.4254,-1.3751,-1.324,-1.2772,-1.3,-1.2116,-1.0146,-0.7647,0.0,0.0,0.0,0.0,0.0,0.0,-0.6728,-0.8114,-0.9775,-1.1487,-1.3246,-1.3606,-1.4391,-1.5656,-1.5945,-1.5672,-1.4836,-1.5284,-1.4096,-1.0937,-1.1384,0.0,0.0,0.0,0.0,0.0,0.0,0.0,0.0,0.0,0.0,0.0,0.0,0.0,0.0,0.0,0.0,0.0,0.0,0.0,0.0,-1.0627,0.0,0.0,0.0,0.0,0.0,0.0,0.0,0.0,0.0,0.0,-2.1464,-2.5255,-2.8106,-2.8191,0.0,0.0,0.0,0.0,-2.8446,-3.069,-3.0986,-3.082,-3.0382,-3.2371,-3.3632,-3.2518,0.0,0.0,-3.4837,-3.6059,-3.6219,-3.3582,-3.4448,-3.4779,-3.2318,-3.279,-3.2298,-2.7668,-2.4931,-2.4542,-2.6483,-2.6338,-2.5786,-1.8748,0.0,0.0,0.0,0.0,-1.6269,-1.6669,-1.6897,-1.719,-1.6613,-1.5429,-1.5317,0.0,0.0,0.0,0.0,0.0,0.0,-1.4223,-1.4589,-1.4514,-1.4611,-1.4845,-1.4371,-1.3948,-1.3634,-1.3423,-1.3062,-1.2493,-1.1442,-0.94,-0.65,0.0,0.0,0.0,0.0,-0.7432,-0.8462,-0.9734,-1.0923,-1.2029,-1.2637,-1.3868,-1.5713,-1.5882,-1.5899,-1.5694,-1.5816,-1.5242,-1.3861,-1.2754,0.0,0.0,0.0,0.0,0.0,0.0,0.0,0.0,0.0,0.0,0.0,0.0,0.0,0.0,0.0,0.0,0.0,0.0,0.0,-0.9778,-1.0822,-1.1887,0.0,0.0,0.0,0.0,0.0,0.0,0.0,0.0,0.0,-2.4845,-2.6602,-2.8337,0.0,0.0,-2.8538,-2.9331,-2.9758,-3.0378,-3.1412,0.0,0.0,0.0,-3.3268,-3.4387,-3.5241,-3.615,-3.6805,-3.6958,-3.6898,-3.627,-3.4532,-3.4024,-3.2901,-3.0109,-2.951,-2.8947,-2.6908,-2.5702,-2.5132,-2.556,-2.6231,-2.6683,-2.269,-2.0452,-1.9003,-1.8511,-1.8692,-1.891,-1.8894,-1.878,-1.9041,-1.8485,-1.736,-1.7335,-1.6726,-1.5621,-1.5061,0.0,0.0,0.0,-1.5603,-1.5852,-1.5545,-1.5456,-1.5501,-1.5198,-1.4823,-1.4432,-1.4314,-1.4202,-1.4113,-1.3851,-1.2351,-0.9667,0.0,0.0,-0.7558,-0.7873,-0.8367,-0.9002,-1.0009,-1.0786,-1.1292,-1.2545,-1.3946,-1.5454,-1.5828,-1.6023,-1.6096,-1.591,-1.5463,-1.4715,-1.3336,-1.2162,0.0,0.0,0.0,0.0,0.0,0.0,0.0,0.0,0.0,0.0,0.0,-1.4485,0.0,0.0,0.0,0.0,-0.7818,-1.0172,-1.1699,-1.2899,0.0,0.0,0.0,0.0,0.0,0.0,0.0,-2.0602,-2.2895,-2.4942,-2.6522,-2.8012,-2.9529,-3.0999,-2.9953,-2.9331,-3.0124,0.0,-3.1223,-3.2202,-3.309,-3.3626,-3.3603,-3.3979,-3.4718,-3.596,-3.7018,-3.7403,-3.6989,-3.6453,-3.5485,-3.394,-3.2672,-3.1013,-2.8292,-2.6717,-2.5884,-2.6024,-2.5702,-2.5362,-2.5336,-2.613,-2.6662,-2.613,-2.5811,-2.3186,-2.2111,-2.2168,-2.2167,-2.176,-2.1145,-2.1185,-2.0875,-2.0309,-1.9773,-1.932,-1.8875,-1.7904,0.0,0.0,-1.6927,-1.7016,-1.7183,-1.6914,-1.6606,-1.6337,-1.6181,-1.5782,-1.5187,-1.5484,-1.5471,-1.5246,-1.5307,-1.4909,-1.4038,-1.2079,-1.0788,-1.01,-0.9579,-0.9454,-0.9667,-1.0472,-1.0998,-1.1175,-1.3112,-1.4456,-1.5072,-1.5695,-1.5989,-1.5883,-1.5517,-1.4904,-1.4012,-1.3285,-1.2607,-1.1914,0.0,0.0,0.0,0.0,0.0,0.0,0.0,0.0,0.0,0.0,0.0,0.0,0.0,0.0,0.0,-1.0706,0.0,-1.3962,-1.5889,0.0,0.0,0.0,-1.7891,-1.9634,-2.0936,-2.1761,-2.1963,0.0,0.0,0.0,0.0,-3.1164,-3.1232,-3.0543,-3.0319,-3.1108,-3.1026,-3.142,-3.2963,-3.3667,-3.4147,-3.4387,-3.4569,-3.4828,-3.5425,-3.6757,-3.7168,-3.5879,-3.5207,-3.4164,-3.2215,-3.0798,-2.9357,-2.7305,-2.4885,-2.3478,-2.5173,-2.525,-2.522,-2.5752,-2.593,-2.611,-2.8828,-2.9022,-2.6973,-2.5142,-2.3603,-2.3481,-2.3352,-2.3121,-2.239,-2.1932,-2.1617,-2.1153,-2.0601,-2.0078,-1.984,-1.9786,-1.9871,-1.9443,-1.9462,-1.9746,-1.9312,-1.8598,-1.764,-1.7242,-1.6678,-1.5995,-1.6365,-1.6515,-1.6428,-1.7023,-1.7002,-1.6369,-1.5272,-1.3433,-1.0931,-1.0639,-1.048,-1.03,-1.0703,-1.1385,-1.2374,-1.3815,-1.4643,-1.4857,-1.5229,-1.5013,-1.4165,-1.397,-1.3563,-1.2832,-1.2396,-1.1921,-1.1411,-0.9895,0.0,0.0,0.0,0.0,0.0,0.0,0.0,0.0,0.0,-1.7258,-1.8699,0.0,-1.1138,0.0,-1.2828,-1.5616,-1.3403,-1.4967,0.0,0.0,-1.7901,-1.8831,-2.1511,-2.2195,-2.2717,-2.3421,-2.543,-2.7627,-2.9852,-3.0262,-3.0684,-3.1512,-3.1329,-3.1219,-3.1502,-3.1881,-3.2422,-3.3195,-3.3826,-3.4353,-3.47,-3.4828,-3.5001,-3.5487,-3.639,-3.6656,-3.5545,-3.4565,-3.3348,-3.1557,-3.0559,-2.9027,-2.6585,-2.4627,-2.3775,-2.429,-2.4828,-2.5413,-2.5923,-2.6103,-2.6296,-2.9999,-3.0137,-2.8424,-2.699,-2.5862,-2.5256,-2.4636,-2.4036,-2.3523,-2.2862,-2.2183,-2.2151,-2.1949,-2.1724,-2.1829,-2.1791,-2.1621,-2.1248,-2.1048,-2.0983,-2.05,-1.964,-1.8534,-1.8126,-1.7525,-1.6813,-1.736,-1.7614,-1.7636,-1.8291,-1.836,-1.7804,-1.7024,-1.5379,-1.295,-1.2226,-1.1591,-1.0947,-1.0922,-1.1626,-1.3136,-1.448,-1.5076,-1.4862,-1.5141,-1.4989,-1.4365,-1.4056,-1.3543,-1.2864,-1.2566,-1.21,-1.1347,-1.0442,-0.9654,0.0,0.0,0.0,0.0,0.0,0.0,0.0,0.0,0.0,0.0,0.0,-1.4752,0.0,-1.5598,0.0,-1.561,-1.7071,-1.8438,-1.9242,-1.9591,-2.0575,-2.2586,-2.3207,-2.3865,-2.4861,-2.6413,-2.8365,-3.0833,-3.0855,-3.1001,-3.1986,-3.1893,-3.1654,-3.1685,-3.2231,-3.2843,-3.3134,-3.3758,-3.4385,-3.4913,-3.5296,-3.5583,-3.5694,-3.5667,-3.5418,-3.4816,-3.3531,-3.2131,-3.0903,-3.0026,-2.8784,-2.6512,-2.5409,-2.4696,-2.4357,-2.5068,-2.558,-2.524,-2.5511,-2.5932,-3.0622,-3.0474,-2.8893,-2.8292,-2.824,-2.713,-2.5914,-2.4708,-2.4547,-2.3755,-2.2612,-2.3032,-2.3325,-2.349,-2.3631,-2.344,-2.294,-2.2686,-2.2298,-2.1809,-2.1377,-2.061,-1.9564,-1.9147,-1.8537,-1.774,-1.8392,-1.8659,-1.8586,-1.9191,-1.92,-1.8643,-1.7929,-1.6811,-1.5273,-1.3999,-1.283,-1.1703,-1.136,-1.2039,-1.3681,-1.5152,-1.5577,-1.4935,-1.5215,-1.53,-1.5095,-1.4616,-1.4003,-1.3287,-1.3188,-1.2675,-1.1673,-1.1157,-1.0998,0.0,-1.049,0.0,0.0,0.0,0.0,0.0,0.0,0.0,0.0,-1.8518,-1.735,-1.6825,-1.8389,-1.9151,-1.8463,-1.9947,-2.0842,-2.0625,-2.1405,-2.227,-2.3104,-2.3974,-2.4953,-2.6067,-2.7496,-2.9036,-3.09,-3.1087,-3.128,-3.1915,-3.19,-3.1686,-3.1645,-3.2232,-3.2805,-3.2926,-3.3638,-3.4409,-3.5175,-3.5925,-3.6333,-3.5874,-3.4882,-3.4059,-3.3913,-3.2519,-3.1114,-3.0353,-2.9501,-2.8348,-2.6736,-2.6452,-2.5957,-2.4792,-2.5572,-2.5931,-2.4647,-2.4946,-2.558,-3.2315,-3.2194,-3.0703,-2.9699,-2.9082,-2.8663,-2.7919,-2.6876,-2.5614,-2.4647,-2.4038,-2.4271,-2.4621,-2.492,-2.4527,-2.4489,-2.4777,-2.4251,-2.4043,-2.4149,-2.383,-2.3111,-2.2002,-2.1262,-2.0201,-1.8904,-1.9516,-1.935,-1.8377,-1.9409,-1.9566,-1.8934,-1.8652,-1.7726,0.0,0.0,0.0,0.0,-1.2764,-1.3321,-1.4318,-1.5764,-1.5957,-1.4812,-1.5178,0.0,-1.3601,-1.3478,-1.3248,-1.286,-1.3206,0.0,0.0,0.0,0.0,0.0,0.0,0.0,0.0,0.0,0.0,0.0,-2.0953,-1.9551,-1.9127,-1.9698,-1.972,-1.8894,-1.9923,-1.9751,-1.763,-1.9384,-2.0594,-2.0436,-2.1142,-2.209,-2.3155,-2.4008,-2.4937,-2.6067,-2.6504,-2.7833,-3.0473,-3.0099,-2.9592,-3.0347,-3.0869,-3.1235,-3.1389,-3.1969,-3.2597,-3.3263,-3.3905,-3.4708,-3.5745,-3.6674,-3.6917,-3.5896,-3.4366,-3.3362,-3.311,-3.2183,-3.1132,-3.0523,-2.9387,-2.8311,-2.7429,-2.7243,-2.6777,-2.5577,-2.6066,-2.6202,-2.4752,-2.5589,-2.67,-3.3231,0.0,-3.2146,-3.1429,0.0,-3.0685,-3.0283,-2.9616,-2.7456,-2.6436,-2.6305,-2.6197,-2.6354,-2.67,-2.593,-2.5761,-2.6058,-2.5551,-2.5366,-2.5368,-2.5024,-2.4193,-2.298,-2.2396,-2.1476,-2.0274,-2.0631,-2.0398,-1.9616,-2.0174,-2.008,-1.9291,-1.9146,-1.8329,-1.6874,-1.5961,-1.4827,-1.3494,-1.3792,-1.4318,-1.5163,-1.6386,-1.6653,-1.584,0.0,0.0,0.0,0.0,0.0,0.0,0.0,0.0,0.0,0.0,0.0,-1.5314,-1.5788,-1.5845,-1.5571,-1.8187,-2.1081,-2.3823,-2.3174,-2.1984,-2.0514,-2.1219,-2.149,-2.0909,-2.0965,-2.057,-1.9596,-2.0207,-2.0859,-2.1265,-2.1686,-2.2353,-2.3322,-2.4287,-2.5165,-2.5974,-2.6501,-2.7394,-2.8544,-2.9035,-2.9247,-2.9841,-3.0322,-3.0963,-3.1764,-3.2175,-3.2597,-3.3189,-3.4038,-3.4836,-3.5669,-3.6969,-3.7363,-3.5881,-3.3901,-3.2662,-3.2538,-3.1707,-3.0886,-3.05,-2.9843,-2.91,-2.8236,-2.785,-2.7311,-2.6371,-2.664,-2.7097,-2.6545,-2.6533,-2.6606,-3.4045,-3.4136,-3.3466,-3.3088,-3.2934,-3.2714,-3.2523,-3.2169,0.0,0.0,0.0,-2.8201,-2.8253,-2.8464,-2.7714,-2.7356,-2.7255,-2.6927,-2.6555,-2.6175,-2.5748,-2.4906,-2.3787,-2.3343,-2.2616,-2.1715,-2.1812,-2.15,-2.0846,-2.1097,-2.0727,-1.9837,-1.9668,-1.8908,-1.7466,-1.5854,-1.4885,-1.4593,-1.4651,-1.5119,-1.6008,-1.6964,-1.731,-1.7071,-1.7579,-1.7602,-1.7061,-1.7447,-1.7143,-1.6033,-1.6363,-1.641,-1.6013,-1.5568,-1.6476,-1.9,-1.9469,-1.9497,-1.9407,-2.1598,-2.3372,-2.4326,-2.4651,-2.4089,-2.2397,-2.28,-2.2948,-2.2501,-2.1628,-2.1276,-2.1661,-2.1103,-2.1066,-2.1954,-2.2461,-2.3002,-2.3452,-2.4557,-2.5424,-2.5944,-2.6667,-2.6993,-2.6471,-2.7756,-2.9075,-2.9637,-2.9971,-3.0755,-3.223,-3.2638,-3.2756,-3.3136,-3.3874,-3.4639,-3.5329,-3.6801,-3.7254,-3.5537,-3.3378,-3.1981,-3.1862,-3.1342,-3.0807,-3.0663,-3.0415,-2.9869,-2.9082,-2.8201,-2.7472,-2.6705,-2.7303,-2.8162,-2.8737,-2.7927,-2.7148,-3.5445,-3.5003,-3.4742,-3.4176,-3.3534,-3.4056,-3.4057,-3.3551,-3.1591,-3.0246,-2.9435,-2.9781,-3.0024,-3.0169,-3.0071,-2.9562,-2.8712,-2.859,-2.7925,0.0,-2.6556,-2.6128,-2.5597,-2.4826,-2.3864,-2.2853,-2.3133,-2.2475,-2.112,-2.1705,-2.1576,-2.06,-2.0434,-1.9546,-1.7848,-1.6288,-1.5639,-1.5903,-1.5334,-1.5623,-1.679,-1.7312,-1.7634,-1.7713,-1.8256,-1.8511,-1.8357,-1.8833,-1.9141,-1.9228,-1.9774,-1.9763,-1.9123,-1.9343,-1.983,-2.0308,-2.1421,-2.1817,-2.1206,-2.2409,-2.3488,-2.421,-2.4196,-2.391,-2.3465,-2.4277,-2.423,-2.2831,-2.1928,-2.1464,-2.1356,-2.0794,-2.0603,-2.1165,-2.3169,-2.4178,-2.3111,-2.446,-2.5567,-2.5677,-2.6166,-2.6515,-2.6376,-2.7013,-2.7853,-2.8502,-2.9674,-3.0945,-3.2386,-3.3024,-3.3101,-3.3271,-3.3457,-3.3924,-3.4785,-3.6356,-3.6506,-3.4446,-3.3037,-3.2018,-3.1804,-3.1509,-3.1181,-3.1044,-3.0588,-3.0178,-3.0026,-2.83,-2.7419,-2.7207,-2.8003,-2.9259,-3.0435,-3.0289,-2.9743,-3.7059,-3.6846,-3.7072,-3.6851,-3.6323,-3.6463,-3.6312,-3.5912,-3.4764,-3.3405,-3.2104,-3.2077,-3.1926,-3.161,-3.121,-3.0708,-3.0136,-3.0041,-2.929,-2.8115,-2.7813,-2.7181,-2.6263,-2.567,-2.4923,-2.4022,-2.3887,-2.3252,-2.2175,-2.2136,-2.1789,-2.1115,-2.0481,-1.9612,-1.8605,-1.7593,-1.7092,-1.7168,-1.6308,-1.6343,-1.738,-1.7921,-1.8355,-1.8699,-1.9407,-1.9685,-1.9473,-1.9961,-1.9989,-1.9544,-1.9943,-2.0126,-2.0005,-2.0688,-2.1316,-2.1857,-2.3039,-2.3531,-2.3052,-2.3607,-2.4283,-2.5011,-2.4478,-2.3999,-2.3785,-2.4035,-2.3746,-2.2597,-2.1945,-2.1509,-2.1309,-2.086,-2.0848,-2.1503,-2.3065,-2.3795,-2.3569,-2.4625,-2.5586,-2.5642,-2.61,-2.6418,-2.6452,-2.6908,-2.7415,-2.8124,-2.9763,-3.1428,-3.2187,-3.2918,-3.3386,-3.3513,-3.3826,-3.4301,-3.4815,-3.5679,-3.5716,-3.4369,-3.3259,-3.2474,-3.2091,-3.1895,-3.1769,-3.175,-3.1368,-3.1095,-3.1063,-3.0352,-2.9227,-2.7887,-2.9214,-3.0642,-3.142,-3.1632,-3.1358,-3.8635,-3.8664,-3.9133,-3.9182,-3.8904,-3.8657,-3.8423,-3.8205,-3.766,-3.6555,-3.513,-3.4502,-3.3858,-3.3156,-3.2532,-3.1997,-3.1519,-3.1364,-3.0626,-2.9485,-2.8971,-2.8132,-2.6978,-2.6397,-2.5782,-2.5179,-2.4668,-2.4124,-2.3636,-2.2896,-2.2236,-2.1738,-2.061,-1.989,-1.9625,-1.9019,-1.8649,-1.8455,-1.782,-1.7667,-1.8022,-1.8862,-1.9499,-1.98,-2.0571,-2.0895,-2.0649,-2.103,-2.0883,-2.0171,-2.0431,-2.0751,-2.106,-2.1762,-2.2548,-2.3341,-2.4182,-2.4588,-2.4393,-2.4479,-2.4835,-2.5424,-2.469,-2.4087,-2.3865,-2.3576,-2.3175,-2.2592,-2.2041,-2.163,-2.1417,-2.1119,-2.1243,-2.2008,-2.2746,-2.3317,-2.3692,-2.4829,-2.5661,-2.5717,-2.6155,-2.6556,-2.6725,-2.7068,-2.7654,-2.8585,-3.0349,-3.1615,-3.1867,-3.2873,-3.3625,-3.3743,-3.4109,-3.4367,-3.4697,-3.4772,-3.4654,-3.4166,-3.3518,-3.2925,-3.2554,-3.2386,-3.2318,-3.2301,-3.2249,-3.2037,-3.1864,-3.1961,-3.1329,-2.9988,-3.1062,-3.2259,-3.2331,-3.269,-3.2674,-4.0023,-4.0091,-4.0144,-4.0011,-3.9919,-3.9906,-3.9924,-3.9877,-3.9528,-3.8893,-3.7885,-3.6783,-3.5754,-3.5043,-3.4892,-3.4042,-3.2736,-3.2563,-3.1924,-3.0763,-2.9729,-2.8933,-2.8271,-2.7013,-2.6394,-2.6328,-2.5716,-2.5398,-2.528,-2.4412,-2.3418,-2.2429,-2.1456,-2.0981,-2.0853,-2.026,-1.995,-2.0025,-2.0309,-1.9999,-1.9118,-2.045,-2.1069,-2.071,-2.1546,-2.1972,-2.1965,-2.2129,-2.2418,-2.2742,-2.3025,-2.3368,-2.3583,-2.3811,-2.4091,-2.44,-2.4543,-2.4599,-2.4593,-2.4532,-2.4545,-2.4592,-2.4413,-2.4039,-2.3692,-2.3547,-2.3424,-2.3072,-2.2433,-2.1926,-2.1736,-2.1433,-2.1374,-2.1727,-2.2651,-2.3197,-2.3439,-2.4776,-2.5846,-2.5777,-2.6384,-2.6758,-2.6791,-2.7336,-2.8198,-2.9246,-3.0592,-3.1774,-3.237,-3.3237,-3.3868,-3.3762,-3.3743,-3.3659,-3.3661,-3.3314,-3.3387,-3.3214,-3.3276,-3.3135,-3.2898,-3.2771,-3.269,-3.2655,-3.2657,-3.2665,-3.2674,-3.2781,-3.2822,-3.247,-3.3061,-3.4057,-3.3664,-3.3913,-3.4103,-4.1149,-4.1317,-4.1742,-4.1886,-4.1789,-4.144,-4.1214,-4.1034,-4.0311,-3.9673,-3.9079,-3.8578,-3.7536,-3.6094,-3.5626,-3.5027,-3.4377,-3.3802,-3.2917,-3.1824,-3.1092,-3.0098,-2.8862,-2.8339,-2.7747,-2.717,-2.6893,-2.6757,-2.6476,-2.5397,-2.4209,-2.3084,-2.2352,-2.2084,-2.2108,-2.1571,-2.1334,-2.1461,-2.2123,-2.2128,-2.1513,-2.2006,-2.2259,-2.2213,-2.3047,-2.3573,-2.3585,-2.3594,-2.3485,-2.3307,-2.321,-2.3236,-2.3399,-2.3051,-2.3366,-2.4452,-2.4601,-2.4825,-2.5263,-2.4777,-2.466,-2.5169,-2.457,-2.4066,-2.3746,-2.362,-2.3453,-2.3052,-2.2558,-2.2243,-2.2274,-2.1706,-2.1433,-2.1874,-2.3011,-2.3786,-2.3616,-2.5137,-2.6173,-2.6191,-2.6641,-2.6956,-2.7036,-2.7768,-2.8698,-2.9641,-3.0721,-3.1734,-3.2569,-3.3418,-3.3878,-3.3913,-3.3753,-3.3619,-3.3506,-3.3345,-3.3241,-3.3316,-3.3419,-3.3404,-3.3316,-3.3208,-3.3162,-3.307,-3.3135,-3.3196,-3.3243,-3.3294,-3.3401,-3.3716,-3.4171,-3.4659,-3.431,-3.4652,-3.4717,-4.2106,-4.2502,-4.3188,-4.3327,-4.3045,-4.2622,-4.2221,-4.1788,-4.0978,-4.0275,-3.973,-3.9695,-3.868,-3.6988,-3.6135,-3.5727,-3.5454,-3.4575,-3.3671,-3.278,-3.2191,-3.1133,-2.9796,-2.9399,-2.8935,-2.8266,-2.8012,-2.7802,-2.7465,-2.6619,-2.5521,-2.453,-2.3863,-2.3619,-2.3599,-2.3091,-2.2799,-2.2906,-2.3589,-2.3788,-2.3584,-2.3679,-2.3647,-2.3516,-2.4391,-2.4919,-2.4885,-2.4585,-2.4248,-2.3918,-2.3417,-2.3216,-2.3381,-2.2852,-2.338,-2.4993,-2.5022,-2.5266,-2.603,-2.5235,-2.4995,-2.5477,-2.4726,-2.4046,-2.3824,-2.3649,-2.3395,-2.3033,-2.2708,-2.2588,-2.2592,-2.2158,-2.1926,-2.2171,-2.3461,-2.4241,-2.4116,-2.543,-2.6418,-2.6521,-2.6808,-2.7166,-2.7415,-2.8142,-2.8965,-2.9753,-3.0765,-3.1618,-3.2361,-3.3043,-3.3535,-3.3331,-3.3288,-3.346,-3.3504,-3.3452,-3.3466,-3.3563,-3.3619,-3.3633,-3.3605,-3.352,-3.3477,-3.3316,-3.3462,-3.3573,-3.3652,-3.3707,-3.3815,-3.4105,-3.4491,-3.4821,-3.4658,-3.4917,-3.501,-4.2941,-4.3543,-4.4116,-4.3875,-4.312,-4.319,-4.2878,-4.2282,-4.1673,-4.0958,-4.0184,-3.9831,-3.8881,-3.7481,-3.6851,-3.624,-3.5601,-3.4703,-3.4049,-3.356,-3.2693,-3.1949,-3.142,-3.0289,-2.9764,-2.9724,-2.9145,-2.8519,-2.8003,-2.8102,-2.7913,-2.7139,-2.6156,-2.566,-2.5446,-2.4839,-2.44,-2.4333,-2.4737,-2.4965,-2.5163,-2.565,-2.5428,-2.4704,-2.5276,-2.5752,-2.5623,-2.487,-2.4623,-2.5105,-2.4344,-2.4071,-2.4342,-2.4227,-2.493,-2.6468,-2.6121,-2.6012,-2.6526,-2.594,-2.5477,-2.5364,-2.4613,-2.3986,-2.3703,-2.356,-2.336,-2.3119,-2.297,-2.2842,-2.2764,-2.2799,-2.2812,-2.2754,-2.3731,-2.4374,-2.4354,-2.5598,-2.6369,-2.6708,-2.6924,-2.7308,-2.8007,-2.8401,-2.9063,-2.9917,-3.0925,-3.1561,-3.1667,-3.2373,-3.2465,-3.2101,-3.2302,-3.2918,-3.331,-3.3481,-3.3524,-3.3605,-3.3726,-3.3753,-3.3605,-3.3509,-3.3538,-3.3567,-3.3643,-3.3775,-3.3947,-3.4093,-3.422,-3.4383,-3.4498,-3.4678,-3.4759,-3.4771,-3.4889,-4.3426,-4.4451,-4.485,-4.4858,-4.4526,-4.3946,-4.3443,-4.2983,-4.2139,-4.1395,-4.0766,-4.0293,-3.9562,-3.8668,-3.7662,-3.6655,-3.559,-3.4575,-3.4023,-3.3823,-3.3277,-3.2607,-3.1879,-3.1598,-3.1234,-3.0786,-3.0656,-3.0097,-2.9235,-2.905,-2.858,-2.7912,-2.7365,-2.6995,-2.6771,-2.6538,-2.6225,-2.5995,-2.6514,-2.6821,-2.6814,-2.7212,-2.7316,-2.7112,-2.7024,-2.7078,-2.7233,-2.6231,-2.5782,-2.6017,-2.4995,-2.4409,-2.4486,-2.4541,-2.5284,-2.6691,-2.6235,-2.5883,-2.6005,-2.5736,-2.5272,-2.4707,-2.4306,-2.3886,-2.3606,-2.3542,-2.3487,-2.3289,-2.3193,-2.3095,-2.3008,-2.3057,-2.3295,-2.3832,-2.4545,-2.518,-2.5456,-2.6196,-2.6875,-2.6989,-2.712,-2.7465,-2.8119,-2.8612,-2.9132,-2.9843,-3.0448,-3.0882,-3.1268,-3.174,-3.1814,-3.1642,-3.2157,-3.3025,-3.383,-3.3734,-3.3698,-3.378,-3.3873,-3.3939,-3.3873,-3.3868,-3.3895,-3.3881,-3.3934,-3.4049,-3.4233,-3.4351,-3.4502,-3.463,-3.474,-3.4623,-3.4758,-3.48,-3.4917,-4.3972,-4.5008,-4.5345,-4.5434,-4.5281,-4.4378,-4.3779,-4.3348,-4.2399,-4.1618,-4.1056,-4.0522,-3.9824,-3.8928,-3.7952,-3.6943,-3.588,-3.5129,-3.4816,-3.4654,-3.4201,-3.3553,-3.2952,-3.2802,-3.2561,-3.224,-3.2546,-3.2256,-3.1451,-3.1089,-3.0485,-2.9711,-2.9188,-2.8631,-2.8277,-2.7988,-2.7656,-2.7514,-2.7984,-2.8289,-2.8285,-2.8304,-2.8511,-2.8721,-2.8197,-2.7961,-2.8206,-2.7361,-2.6895,-2.6827,-2.5726,-2.486,-2.4626,-2.4639,-2.5117,-2.6002,-2.5947,-2.6005,-2.6227,-2.5818,-2.5344,-2.497,-2.4271,-2.3756,-2.3482,-2.3491,-2.3458,-2.3418,-2.3289,-2.3193,-2.3114,-2.3107,-2.3516,-2.4511,-2.5501,-2.605,-2.6077,-2.6671,-2.7098,-2.7246,-2.7419,-2.7766,-2.8242,-2.8724,-2.9265,-2.9885,-3.0143,-3.043,-3.0702,-3.0943,-3.1072,-3.1078,-3.1813,-3.2501,-3.3191,-3.3413,-3.3836,-3.4023,-3.4023,-3.4099,-3.4142,-3.4173,-3.4221,-3.4221,-3.4281,-3.4374,-3.4495,-3.4594,-3.472,-3.485,-3.466,-3.4484,-3.4636,-3.483,-3.4945,-4.4603,-4.5345,-4.5555,-4.5586,-4.5387,-4.4505,-4.3819,-4.3312,-4.2455,-4.1709,-4.1116,-4.052,-3.9608,-3.8408,-3.7846,-3.7095,-3.663,-3.6555,-3.6399,-3.6104,-3.5288,-3.4772,-3.4474,-3.3774,-3.3658,-3.3898,-3.4603,-3.4694,-3.4173,-3.3933,-3.345,-3.2689,-3.1604,-3.0723,-2.9943,-2.9341,-2.8798,-2.872,-2.9063,-2.935,-2.9402,-2.9096,-2.9092,-2.9369,-2.8667,-2.8331,-2.8587,-2.8075,-2.7846,-2.7823,-2.6609,-2.5492,-2.4837,-2.4805,-2.4767,-2.4983,-2.5456,-2.6516,-2.7505,-2.6418,-2.5877,-2.5803,-2.4725,-2.3671,-2.3484,-2.3301,-2.3277,-2.3389,-2.3295,-2.3102,-2.3137,-2.3478,-2.3935,-2.4712,-2.6332,-2.707,-2.6678,-2.684,-2.726,-2.7481,-2.7739,-2.8095,-2.8388,-2.8761,-2.9233,-2.9722,-2.996,-2.9936,-2.9946,-3.0125,-3.0215,-3.0453,-3.1251,-3.2154,-3.2611,-3.3039,-3.3731,-3.4257,-3.4233,-3.4245,-3.4252,-3.4257,-3.4328,-3.4351,-3.4439,-3.4528,-3.4639,-3.4751,-3.4761,-3.4792,-3.4553,-3.4431,-3.4689,-3.4898,-3.4964,-4.4988,-4.5415,-4.576,-4.6014,-4.6018,-4.4827,-4.4192,-4.397,-4.2658,-4.1913,-4.1555,-4.0542,-3.9875,-3.9463,-3.8561,-3.8,-3.7978,-3.8048,-3.7538,-3.6569,-3.5977,-3.5685,-3.5511,-3.5266,-3.5129,-3.5161,-3.5232,-3.5222,-3.5049,-3.4669,-3.4196,-3.3838,-3.3319,-3.2571,-3.1767,-3.1621,-3.1185,-3.0333,-3.0924,-3.1183,-3.0943,-3.0876,-3.0713,-3.0323,-2.9957,-2.952,-2.8858,-2.8734,-2.8516,-2.82,-2.7278,-2.6166,-2.5148,-2.5531,-2.5956,-2.5978,-2.6688,-2.7327,-2.7659,-2.6888,-2.5976,-2.5444,-2.4375,-2.3578,-2.3188,-2.3151,-2.3052,-2.2985,-2.3065,-2.3217,-2.3455,-2.5353,-2.6047,-2.5797,-2.6894,-2.7554,-2.7205,-2.7365,-2.7502,-2.7569,-2.7824,-2.8122,-2.8432,-2.8792,-2.908,-2.9246,-2.9302,-2.9253,-2.9259,-2.941,-2.9752,-3.0305,-3.1169,-3.2002,-3.2642,-3.334,-3.4061,-3.4461,-3.4461,-3.4427,-3.4393,-3.4404,-3.4473,-3.4528,-3.4612,-3.4668,-3.4772,-3.4831,-3.4831,-3.4691,-3.4454,-3.4553,-3.4831,-3.4945,-3.4982,-4.5345,-4.5735,-4.6013,-4.6326,-4.6448,-4.5227,-4.4736,-4.4564,-4.3443,-4.2695,-4.2175,-4.0956,-4.0335,-4.0058,-3.8897,-3.849,-3.871,-3.9044,-3.8534,-3.7417,-3.6857,-3.663,-3.657,-3.6585,-3.6897,-3.7055,-3.6763,-3.6633,-3.6716,-3.6061,-3.556,-3.5202,-3.4906,-3.4161,-3.32,-3.3153,-3.2633,-3.1809,-3.2238,-3.2471,-3.2217,-3.213,-3.1904,-3.1388,-3.057,-2.9931,-2.9478,-2.9421,-2.9118,-2.857,-2.7904,-2.6641,-2.5054,-2.5876,-2.6806,-2.7225,-2.7277,-2.7416,-2.7636,-2.6951,-2.6231,-2.5378,-2.4505,-2.3673,-2.3128,-2.302,-2.2816,-2.2699,-2.2952,-2.3193,-2.3473,-2.4807,-2.6034,-2.6053,-2.7038,-2.766,-2.7689,-2.7748,-2.7821,-2.7853,-2.794,-2.8164,-2.8502,-2.8792,-2.8982,-2.8929,-2.8893,-2.8858,-2.8929,-2.904,-2.9769,-3.0505,-3.119,-3.1997,-3.2806,-3.3605,-3.443,-3.4634,-3.4695,-3.4634,-3.4561,-3.4623,-3.4695,-3.4708,-3.4759,-3.4771,-3.486,-3.486,-3.4851,-3.4588,-3.4409,-3.4553,-3.4742,-3.4889,-3.4945,-4.5735,-4.6211,-4.6357,-4.6495,-4.6484,-4.5687,-4.5246,-4.5082,-4.4468,-4.3655,-4.2732,-4.1662,-4.0851,-4.011,-3.9045,-3.8605,-3.8847,-3.9475,-3.9433,-3.8758,-3.8262,-3.8007,-3.8,-3.8048,-3.8594,-3.931,-3.8896,-3.8826,-3.8991,-3.8202,-3.759,-3.6772,-3.6452,-3.5614,-3.4337,-3.393,-3.3522,-3.2787,-3.3016,-3.3199,-3.3138,-3.283,-3.2588,-3.2575,-3.0981,-3.022,-3.046,-3.0229,-2.9745,-2.9212,-2.8509,-2.7289,-2.5728,-2.6172,-2.7446,-2.8305,-2.7314,-2.7264,-2.7394,-2.6868,-2.6232,-2.5823,-2.4795,-2.3992,-2.3082,-2.2777,-2.2672,-2.2659,-2.2944,-2.3114,-2.3161,-2.3731,-2.4443,-2.5628,-2.7134,-2.7872,-2.8014,-2.8042,-2.8081,-2.815,-2.8109,-2.8191,-2.8612,-2.8881,-2.8998,-2.9017,-2.9017,-2.9017,-2.9099,-2.9426,-3.0205,-3.0921,-3.1636,-3.2537,-3.3502,-3.3855,-3.4596,-3.4659,-3.4574,-3.4268,-3.4528,-3.4672,-3.4809,-3.4849,-3.4632,-3.4709,-3.4785,-3.4728,-3.4726,-3.4607,-3.4531,-3.4553,-3.4651,-3.4841,-3.4906,-4.6062,-4.6253,-4.6566,-4.6661,-4.6507,-4.574,-4.5329,-4.5129,-4.4592,-4.384,-4.2886,-4.2267,-4.158,-4.0821,-3.9554,-3.9111,-3.94,-3.9761,-3.9843,-3.9743,-4.0182,-4.0339,-4.036,-4.0339,-4.0492,-4.0751,-4.0451,-4.0463,-4.0442,-3.9436,-3.879,-3.8559,-3.7699,-3.666,-3.5383,-3.5229,-3.4566,-3.3538,-3.353,-3.3657,-3.363,-3.3613,-3.3358,-3.2937,-3.2922,-3.244,-3.179,-3.1371,-3.0596,-2.9487,-2.9058,-2.8677,-2.7976,-2.8037,-2.8239,-2.839,-2.8263,-2.8058,-2.8028,-2.7037,-2.6153,-2.5744,-2.4566,-2.3318,-2.2838,-2.2672,-2.2596,-2.2632,-2.2881,-2.3198,-2.3519,-2.4369,-2.5701,-2.721,-2.7869,-2.8112,-2.8178,-2.8322,-2.8401,-2.8255,-2.8414,-2.8619,-2.8846,-2.9048,-2.9163,-2.9115,-2.9189,-2.9259,-2.9454,-3.0023,-3.0839,-3.1669,-3.2455,-3.3368,-3.4091,-3.4368,-3.4614,-3.4643,-3.4292,-3.3525,-3.4015,-3.4561,-3.4725,-3.4879,-3.4112,-3.3951,-3.4226,-3.4358,-3.4421,-3.429,-3.4672,-3.4685,-3.4765,-3.4906,-3.488,-4.6308,-4.6381,-4.6731,-4.6778,-4.6537,-4.6047,-4.5687,-4.5424,-4.5134,-4.4284,-4.3283,-4.2831,-4.2124,-4.1082,-3.9878,-3.9439,-3.966,-4.0187,-4.0212,-4.0134,-4.1193,-4.1785,-4.1835,-4.1669,-4.168,-4.212,-4.1466,-4.1311,-4.1247,-4.022,-3.9622,-3.9382,-3.8665,-3.7598,-3.6505,-3.6419,-3.5728,-3.4503,-3.433,-3.4286,-3.3931,-3.4023,-3.3963,-3.3629,-3.3926,-3.3358,-3.2311,-3.196,-3.1275,-3.027,-2.9743,-2.9469,-2.9167,-2.8922,-2.8749,-2.8749,-2.8675,-2.8607,-2.848,-2.7554,-2.6647,-2.5796,-2.4544,-2.365,-2.2911,-2.2592,-2.2487,-2.246,-2.279,-2.3473,-2.445,-2.5567,-2.6933,-2.8193,-2.8466,-2.8406,-2.8432,-2.85,-2.8594,-2.8594,-2.8682,-2.8846,-2.8994,-2.9192,-2.927,-2.9355,-2.971,-2.9834,-3.0044,-3.0789,-3.1405,-3.2099,-3.2468,-3.3024,-3.38,-3.4215,-3.3818,-3.3881,-3.3616,-3.2901,-3.3119,-3.3837,-3.3904,-3.3809,-3.3402,-3.3221,-3.3411,-3.3543,-3.344,-3.3592,-3.4292,-3.4452,-3.4257,-3.4279,-3.4342,-4.6495,-4.6631,-4.6883,-4.6824,-4.6566,-4.6405,-4.6067,-4.5837,-4.5815,-4.496,-4.3709,-4.3363,-4.2565,-4.1159,-4.0203,-3.967,-3.9774,-4.0612,-4.0818,-4.1101,-4.1949,-4.2728,-4.2749,-4.2289,-4.254,-4.3111,-4.2067,-4.2002,-4.1991,-4.0946,-4.0239,-4.0016,-3.9366,-3.8427,-3.7555,-3.7459,-3.6654,-3.5519,-3.5356,-3.5021,-3.448,-3.4414,-3.4406,-3.424,-3.3934,-3.3397,-3.2712,-3.2302,-3.1838,-3.0961,-3.0482,-2.9793,-2.9145,-2.887,-2.8846,-2.89,-2.8785,-2.8675,-2.8496,-2.8062,-2.7294,-2.5831,-2.5166,-2.4355,-2.3047,-2.2631,-2.2592,-2.238,-2.2668,-2.394,-2.5843,-2.6828,-2.7713,-2.8827,-2.9059,-2.898,-2.901,-2.8894,-2.887,-2.897,-2.89,-2.8917,-2.9058,-2.9373,-2.9732,-3.0479,-3.0685,-3.0833,-3.1144,-3.1757,-3.2032,-3.2175,-3.2364,-3.2336,-3.3174,-3.3983,-3.3291,-3.282,-3.2591,-3.2152,-3.1982,-3.2362,-3.2512,-3.252,-3.2577,-3.2482,-3.233,-3.2379,-3.2294,-3.2346,-3.2674,-3.2814,-3.2875,-3.3073,-3.3178,-4.6566,-4.6613,-4.6772,-4.6702,-4.6423,-4.6186,-4.5912,-4.5667,-4.576,-4.4958,-4.3853,-4.3872,-4.316,-4.1739,-4.0776,-4.0293,-4.0308,-4.0928,-4.1654,-4.3037,-4.3117,-4.3492,-4.3569,-4.3307,-4.3495,-4.3636,-4.3352,-4.3157,-4.2993,-4.2255,-4.1551,-4.0966,-4.0248,-3.9219,-3.8095,-3.7988,-3.7386,-3.6496,-3.6374,-3.5948,-3.5298,-3.5169,-3.5013,-3.4659,-3.4523,-3.4112,-3.3459,-3.3142,-3.2614,-3.1766,-3.0846,-3.0035,-2.9324,-2.8983,-2.8893,-2.887,-2.8822,-2.8712,-2.8332,-2.7351,-2.6269,-2.5601,-2.4648,-2.3664,-2.2842,-2.2979,-2.2909,-2.2658,-2.279,-2.435,-2.7257,-2.7712,-2.8466,-2.9499,-3.0037,-3.0417,-3.0962,-3.0583,-2.9905,-2.9372,-2.9218,-2.9144,-2.9239,-3.0983,-3.145,-3.1703,-3.1826,-3.1959,-3.2298,-3.2704,-3.2609,-3.2495,-3.2551,-3.2484,-3.2158,-3.2792,-3.2428,-3.1833,-3.155,-3.1374,-3.1223,-3.1374,-3.1705,-3.1914,-3.2027,-3.1819,-3.145,-3.0995,-3.0873,-3.0945,-3.1123,-3.136,-3.1647,-3.1853,-3.2115,-4.6613,-4.6613,-4.6684,-4.659,-4.6357,-4.6055,-4.5803,-4.5615,-4.5615,-4.4825,-4.3822,-4.3974,-4.3332,-4.2016,-4.1406,-4.0963,-4.0636,-4.0878,-4.1954,-4.3232,-4.3563,-4.3649,-4.3802,-4.3783,-4.3749,-4.3732,-4.3631,-4.3617,-4.3413,-4.2943,-4.2284,-4.1974,-4.1278,-4.0388,-3.9286,-3.9021,-3.8441,-3.7466,-3.7243,-3.6779,-3.5887,-3.5937,-3.577,-3.5191,-3.5007,-3.4614,-3.4205,-3.406,-3.3486,-3.2569,-3.1582,-3.0743,-2.9996,-2.942,-2.9058,-2.8987,-2.8905,-2.8549,-2.7839,-2.7076,-2.6122,-2.5029,-2.4174,-2.3457,-2.2836,-2.288,-2.2863,-2.2726,-2.3137,-2.4546,-2.8227,-2.9087,-2.9538,-3.0131,-3.0917,-3.1627,-3.2222,-3.1787,-3.1089,-3.0567,-3.0623,-3.1153,-3.185,-3.2732,-3.3239,-3.3491,-3.2853,-3.294,-3.2911,-3.3214,-3.2901,-3.2785,-3.2869,-3.2553,-3.1659,-3.1472,-3.1408,-3.0969,-3.0595,-3.0484,-3.0389,-3.0692,-3.1071,-3.1147,-3.1166,-3.0901,-3.0522,-3.001,-2.9924,-3.0254,-3.0483,-3.0407,-3.0552,-3.1046,-3.1232,-4.6596,-4.6631,-4.659,-4.6477,-4.6308,-4.5963,-4.5701,-4.5537,-4.5364,-4.4618,-4.3687,-4.3758,-4.3076,-4.215,-4.186,-4.1361,-4.1105,-4.1354,-4.2526,-4.3662,-4.3826,-4.3913,-4.3996,-4.3796,-4.3599,-4.3582,-4.3582,-4.3582,-4.345,-4.3137,-4.286,-4.2667,-4.2085,-4.1143,-4.0593,-4.0211,-3.9407,-3.8223,-3.8061,-3.7503,-3.6445,-3.6482,-3.6211,-3.5413,-3.507,-3.4831,-3.462,-3.4437,-3.3989,-3.3093,-3.2198,-3.1522,-3.0807,-2.9998,-2.924,-2.9192,-2.8942,-2.8496,-2.7864,-2.7054,-2.5902,-2.4322,-2.3898,-2.3368,-2.2819,-2.2706,-2.2723,-2.3127,-2.3761,-2.5703,-2.8675,-2.9691,-3.0309,-3.0913,-3.1728,-3.2618,-3.3173,-3.282,-3.2533,-3.2458,-3.249,-3.2895,-3.3597,-3.4358,-3.4838,-3.5047,-3.4334,-3.3883,-3.3836,-3.3561,-3.3197,-3.2978,-3.3031,-3.2915,-3.2102,-3.0853,-3.0704,-3.0533,-3.0051,-2.9997,-2.994,-3.0224,-3.0528,-3.0257,-3.0143,-3.0048,-3.0094,-2.9989,-2.9948,-2.9988,-3.013,-3.0336,-3.0404,-3.0404,-3.0533,-4.6661,-4.6731,-4.6518,-4.6357,-4.6211,-4.593,-4.5615,-4.5381,-4.493,-4.4319,-4.3537,-4.3219,-4.2741,-4.2121,-4.182,-4.176,-4.1975,-4.2478,-4.3389,-4.4287,-4.4434,-4.4542,-4.4502,-4.4063,-4.368,-4.3532,-4.3587,-4.3624,-4.36,-4.3601,-4.3262,-4.2775,-4.2197,-4.1469,-4.0602,-3.9885,-3.9449,-3.8859,-3.8729,-3.8172,-3.7466,-3.6588,-3.6044,-3.5049,-3.4837,-3.4711,-3.4533,-3.404,-3.3283,-3.2328,-3.1453,-3.0679,-3.0079,-2.953,-2.9342,-2.9172,-2.8624,-2.8202,-2.8069,-2.6405,-2.5319,-2.455,-2.3994,-2.3357,-2.2908,-2.2976,-2.2986,-2.3732,-2.5676,-2.8205,-2.9221,-3.0198,-3.1001,-3.1752,-3.2671,-3.3571,-3.4263,-3.4329,-3.4081,-3.3947,-3.4187,-3.4349,-3.4718,-3.4992,-3.5115,-3.5209,-3.4893,-3.4622,-3.4622,-3.405,-3.3342,-3.3209,-3.3144,-3.2977,-3.2611,-3.1168,-3.0336,-3.0345,-3.0095,-3.0057,-3.0003,-2.9988,-2.9972,-2.998,-2.9956,-2.9986,-2.9986,-2.9964,-3.0019,-3.0087,-3.0246,-3.041,-3.0408,-3.0431,-3.0421,-4.6731,-4.6772,-4.659,-4.6193,-4.5732,-4.5446,-4.4978,-4.4445,-4.4163,-4.3718,-4.3214,-4.2936,-4.266,-4.2302,-4.2327,-4.2468,-4.2794,-4.3173,-4.3851,-4.4473,-4.4949,-4.5224,-4.5278,-4.4748,-4.44,-4.418,-4.4069,-4.3793,-4.3569,-4.3798,-4.35,-4.2912,-4.2532,-4.1885,-4.077,-4.0188,-3.9538,-3.9231,-3.9041,-3.8841,-3.8042,-3.663,-3.5187,-3.5168,-3.4752,-3.4499,-3.4018,-3.3794,-3.2831,-3.171,-3.1042,-3.0374,-2.9781,-2.944,-2.9318,-2.9058,-2.8381,-2.7835,-2.7692,-2.5906,-2.4586,-2.3715,-2.336,-2.3004,-2.2699,-2.2774,-2.3278,-2.4544,-2.6536,-2.9014,-2.9326,-3.0559,-3.1636,-3.25,-3.3487,-3.4339,-3.4831,-3.5,-3.4973,-3.4889,-3.4766,-3.4764,-3.4947,-3.5149,-3.5223,-3.5246,-3.525,-3.5211,-3.5192,-3.4255,-3.3234,-3.3135,-3.3032,-3.3058,-3.2649,-3.1357,-3.0297,-3.0187,-3.0173,-3.0138,-3.0101,-3.0094,-3.0106,-3.0098,-3.0068,-3.0011,-3.0057,-3.0101,-3.0164,-3.0219,-3.0334,-3.0455,-3.0455,-3.0444,-3.0442,-4.6445,-4.6552,-4.623,-4.5788,-4.5258,-4.485,-4.4255,-4.3576,-4.3415,-4.3133,-4.274,-4.2692,-4.259,-4.2521,-4.2731,-4.3013,-4.3251,-4.3578,-4.4309,-4.4802,-4.5551,-4.5954,-4.5935,-4.5495,-4.4929,-4.4492,-4.4126,-4.4052,-4.3659,-4.3798,-4.354,-4.316,-4.3148,-4.2529,-4.1311,-4.0546,-3.9925,-3.9423,-3.8983,-3.8943,-3.7895,-3.588,-3.45,-3.5204,-3.4843,-3.4183,-3.3527,-3.3406,-3.2497,-3.1435,-3.0711,-3.0297,-2.9423,-2.9206,-2.9002,-2.8581,-2.8015,-2.7508,-2.6729,-2.5355,-2.3933,-2.3107,-2.2794,-2.2596,-2.2689,-2.3037,-2.3759,-2.5476,-2.7522,-2.9082,-2.9503,-3.0926,-3.21,-3.3003,-3.4037,-3.4973,-3.5072,-3.517,-3.5193,-3.5115,-3.5072,-3.5098,-3.5182,-3.5285,-3.536,-3.535,-3.5361,-3.4955,-3.4783,-3.3736,-3.2962,-3.2876,-3.2869,-3.3049,-3.2529,-3.145,-3.0618,-3.0305,-3.0292,-3.0286,-3.0241,-3.0226,-3.0213,-3.0206,-3.0145,-3.0104,-3.0173,-3.024,-3.0273,-3.0329,-3.0432,-3.0501,-3.0539,-3.0501,-3.0476,-4.5227,-4.5847,-4.485,-4.4724,-4.5047,-4.4237,-4.3731,-4.3391,-4.3005,-4.284,-4.2627,-4.2321,-4.2267,-4.2492,-4.2899,-4.3105,-4.3616,-4.462,-4.5296,-4.5586,-4.6373,-4.6739,-4.652,-4.5109,-4.4837,-4.451,-4.3853,-4.3504,-4.3515,-4.3767,-4.3751,-4.3431,-4.2844,-4.253,-4.1598,-4.0466,-4.0019,-3.9694,-3.9041,-3.8092,-3.6786,-3.5034,-3.4371,-3.4315,-3.427,-3.3853,-3.3209,-3.2996,-3.2257,-3.0924,-3.0667,-2.9868,-2.8602,-2.8188,-2.769,-2.7311,-2.7111,-2.7181,-2.645,-2.4861,-2.3531,-2.2915,-2.2712,-2.2619,-2.2783,-2.3528,-2.4576,-2.6326,-2.811,-2.9115,-2.9653,-3.103,-3.2221,-3.3318,-3.4393,-3.4973,-3.519,-3.5285,-3.5308,-3.5335,-3.5278,-3.5235,-3.5285,-3.5388,-3.5489,-3.5475,-3.5364,-3.4959,-3.4395,-3.346,-3.3102,-3.314,-3.2877,-3.2979,-3.2609,-3.1486,-3.0818,-3.0416,-3.0452,-3.0439,-3.0373,-3.033,-3.0292,-3.0273,-3.0228,-3.0221,-3.0286,-3.0343,-3.0386,-3.0447,-3.0516,-3.0586,-3.0656,-3.0567,-3.0337,-4.3815,-4.4889,-4.4498,-4.419,-4.3966,-4.3481,-4.2963,-4.2473,-4.2294,-4.2264,-4.2278,-4.2147,-4.2267,-4.2631,-4.3086,-4.3506,-4.409,-4.5223,-4.599,-4.6352,-4.6992,-4.7208,-4.6633,-4.5842,-4.5281,-4.4362,-4.4016,-4.3725,-4.3664,-4.354,-4.3469,-4.2426,-4.2044,-4.1209,-4.0994,-3.9752,-3.9258,-3.8944,-3.8535,-3.7683,-3.6343,-3.4958,-3.4067,-3.4136,-3.4111,-3.3479,-3.2743,-3.2423,-3.1654,-3.0407,-3.0032,-2.9411,-2.8186,-2.7345,-2.6505,-2.6019,-2.55,-2.5706,-2.6078,-2.4433,-2.3405,-2.2842,-2.2659,-2.2685,-2.2842,-2.3371,-2.4388,-2.5679,-2.8047,-2.9262,-2.9648,-3.0787,-3.256,-3.3891,-3.4811,-3.504,-3.5326,-3.5383,-3.5431,-3.5457,-3.5463,-3.5437,-3.5423,-3.5477,-3.5559,-3.5572,-3.5412,-3.5046,-3.4385,-3.3519,-3.3449,-3.3705,-3.3314,-3.2942,-3.2426,-3.1656,-3.0914,-3.0537,-3.063,-3.0611,-3.0472,-3.0425,-3.0491,-3.0458,-3.0394,-3.0394,-3.0419,-3.0408,-3.0414,-3.0491,-3.057,-3.0455,-3.0303,-2.9954,-2.964,-4.2617,-4.3602,-4.3771,-4.3492,-4.2978,-4.2762,-4.2313,-4.1767,-4.1793,-4.1923,-4.2072,-4.2184,-4.2452,-4.2783,-4.3159,-4.3597,-4.4436,-4.5313,-4.5933,-4.6605,-4.7074,-4.6939,-4.6198,-4.5676,-4.4991,-4.4248,-4.3811,-4.3596,-4.3432,-4.3204,-4.2592,-4.1423,-4.1496,-4.0743,-3.9675,-3.9177,-3.8969,-3.8443,-3.7932,-3.7171,-3.6146,-3.4669,-3.4073,-3.3886,-3.3697,-3.3111,-3.2061,-3.1548,-3.0737,-2.9527,-2.9133,-2.8532,-2.733,-2.6398,-2.5645,-2.5075,-2.4473,-2.4487,-2.4831,-2.4128,-2.317,-2.2738,-2.2596,-2.2672,-2.2868,-2.3063,-2.3756,-2.5326,-2.7891,-2.914,-2.9704,-3.059,-3.2565,-3.4128,-3.5261,-3.5391,-3.5477,-3.5502,-3.552,-3.5526,-3.5552,-3.5601,-3.5595,-3.5606,-3.5643,-3.5668,-3.544,-3.5071,-3.4468,-3.3716,-3.3753,-3.4035,-3.3797,-3.3199,-3.2392,-3.1767,-3.1062,-3.0888,-3.0999,-3.0979,-3.0994,-3.0912,-3.0902,-3.081,-3.0569,-3.055,-3.0535,-3.0481,-3.0439,-3.0516,-3.0498,-3.0082,-2.9796,-2.9438,-2.9015,-4.1807,-4.1789,-4.1991,-4.2419,-4.2886,-4.2035,-4.1807,-4.1849,-4.1823,-4.1995,-4.2246,-4.2452,-4.2629,-4.2803,-4.301,-4.3523,-4.4418,-4.518,-4.5506,-4.5812,-4.6152,-4.6033,-4.533,-4.4559,-4.4036,-4.3876,-4.3352,-4.3067,-4.2905,-4.2209,-4.2166,-4.2104,-4.1113,-4.0999,-4.0315,-3.9345,-3.8685,-3.8062,-3.7403,-3.6602,-3.5612,-3.4375,-3.3478,-3.3433,-3.2978,-3.2316,-3.1712,-3.09,-2.9898,-2.8497,-2.8262,-2.7522,-2.6324,-2.5832,-2.5237,-2.4207,-2.3911,-2.3905,-2.3903,-2.3667,-2.3057,-2.2646,-2.2552,-2.2668,-2.2911,-2.382,-2.4658,-2.5584,-2.8019,-2.9257,-2.9839,-3.0725,-3.2382,-3.416,-3.5194,-3.5483,-3.555,-3.5587,-3.5604,-3.5596,-3.5612,-3.5672,-3.5672,-3.5692,-3.5665,-3.569,-3.532,-3.4953,-3.4817,-3.4262,-3.4174,-3.4243,-3.4179,-3.358,-3.2517,-3.1797,-3.1125,-3.1577,-3.2096,-3.1926,-3.1766,-3.1614,-3.1041,-3.0871,-3.0589,-3.0618,-3.0634,-3.0574,-3.0548,-3.0565,-3.0412,-3.0097,-2.953,-2.904,-2.854,-4.1648,-4.1604,-4.1736,-4.193,-4.2132,-4.1881,-4.1809,-4.1934,-4.204,-4.2163,-4.2328,-4.2588,-4.2706,-4.2746,-4.2973,-4.3448,-4.4157,-4.4446,-4.4879,-4.5254,-4.5484,-4.5093,-4.4358,-4.3886,-4.3622,-4.3219,-4.2535,-4.2194,-4.225,-4.1267,-4.0647,-4.0405,-4.0311,-3.975,-3.9266,-3.8876,-3.8126,-3.7588,-3.7208,-3.6817,-3.4806,-3.3129,-3.2251,-3.2807,-3.2167,-3.1507,-3.0872,-3.0026,-2.9081,-2.8211,-2.7581,-2.6566,-2.5665,-2.5535,-2.4766,-2.3571,-2.3411,-2.3475,-2.3435,-2.3187,-2.2906,-2.2685,-2.2646,-2.2795,-2.3042,-2.3478,-2.4586,-2.607,-2.8128,-2.9533,-3.0171,-3.0513,-3.1523,-3.3731,-3.5035,-3.5461,-3.5618,-3.5653,-3.5703,-3.5699,-3.5699,-3.5747,-3.5742,-3.5737,-3.5707,-3.5662,-3.5253,-3.4908,-3.4867,-3.4825,-3.4729,-3.4662,-3.4613,-3.4249,-3.3243,-3.2242,-3.1283,-3.2119,-3.3064,-3.2683,-3.2255,-3.1301,-3.0816,-3.0684,-3.0649,-3.0664,-3.0671,-3.0651,-3.0641,-3.063,-3.0472,-3.0217,-2.9551,-2.871,-2.7958,-4.1147,-4.1362,-4.1466,-4.1586,-4.1675,-4.187,-4.1998,-4.2082,-4.2225,-4.2328,-4.2387,-4.2625,-4.2706,-4.2707,-4.284,-4.339,-4.3895,-4.4145,-4.4357,-4.457,-4.4599,-4.4099,-4.3568,-4.3192,-4.2931,-4.242,-4.201,-4.1723,-4.1361,-4.009,-3.9727,-3.9546,-3.9183,-3.8731,-3.8304,-3.7611,-3.7112,-3.6861,-3.6409,-3.631,-3.4153,-3.2538,-3.1613,-3.2096,-3.1401,-3.0552,-2.9915,-2.9111,-2.8172,-2.7352,-2.6632,-2.5962,-2.5443,-2.4961,-2.4323,-2.3466,-2.2876,-2.3066,-2.3195,-2.3045,-2.2829,-2.2632,-2.2712,-2.3041,-2.3335,-2.3369,-2.4189,-2.6054,-2.8259,-3.0075,-3.065,-3.088,-3.1886,-3.4121,-3.5168,-3.5659,-3.5674,-3.5708,-3.5769,-3.5795,-3.581,-3.5786,-3.5807,-3.5779,-3.5654,-3.5665,-3.5568,-3.534,-3.5359,-3.5296,-3.5238,-3.518,-3.5156,-3.4672,-3.4057,-3.3064,-3.228,-3.2765,-3.3407,-3.3077,-3.249,-3.1518,-3.0805,-3.0685,-3.0691,-3.0704,-3.071,-3.0694,-3.0704,-3.0691,-3.0564,-3.0421,-2.9195,-2.8298,-2.7266,-4.0126,-4.0784,-4.0837,-4.1216,-4.1717,-4.1998,-4.2207,-4.2351,-4.2351,-4.2351,-4.2358,-4.2472,-4.2645,-4.2725,-4.2745,-4.3162,-4.3653,-4.3752,-4.378,-4.376,-4.3737,-4.3128,-4.2749,-4.2486,-4.232,-4.1676,-4.123,-4.0872,-4.0438,-3.9587,-3.9226,-3.8758,-3.8216,-3.791,-3.7841,-3.6862,-3.6346,-3.6061,-3.478,-3.4139,-3.3405,-3.2015,-3.1423,-3.1329,-3.0473,-2.9542,-2.8953,-2.8189,-2.7218,-2.619,-2.576,-2.5129,-2.4479,-2.435,-2.3787,-2.2874,-2.2056,-2.2229,-2.3012,-2.2827,-2.2734,-2.2685,-2.2808,-2.325,-2.3931,-2.4046,-2.4309,-2.6448,-2.8435,-3.056,-3.1192,-3.1422,-3.2589,-3.4023,-3.5087,-3.5708,-3.5722,-3.5782,-3.5834,-3.583,-3.5838,-3.5829,-3.5853,-3.5814,-3.5624,-3.5612,-3.5726,-3.5727,-3.5679,-3.5645,-3.5542,-3.5503,-3.546,-3.5073,-3.4492,-3.38,-3.3364,-3.3755,-3.367,-3.3215,-3.2689,-3.1873,-3.1284,-3.0856,-3.0722,-3.0728,-3.0742,-3.0752,-3.0504,-3.0267,-3.0742,-3.0447,-2.9149,-2.8002,-2.7149,-3.9775,-4.0058,-4.0671,-4.1044,-4.1363,-4.2032,-4.2391,-4.255,-4.2571,-4.23,-4.1936,-4.2338,-4.2665,-4.2686,-4.2706,-4.2886,-4.2985,-4.3001,-4.292,-4.2841,-4.2915,-4.2754,-4.2414,-4.2083,-4.1786,-4.1302,-4.0744,-4.0095,-3.975,-3.8901,-3.8125,-3.7569,-3.6823,-3.6434,-3.6435,-3.5811,-3.501,-3.4214,-3.3284,-3.2545,-3.1993,-3.0584,-2.9833,-3.0374,-2.9399,-2.8647,-2.8085,-2.7301,-2.6406,-2.5411,-2.5055,-2.4491,-2.4062,-2.4004,-2.3581,-2.2381,-2.1294,-2.0367,-2.1508,-2.2115,-2.2841,-2.2833,-2.3025,-2.3383,-2.3743,-2.4819,-2.575,-2.6893,-2.8551,-3.0472,-3.1548,-3.0754,-3.1628,-3.3869,-3.5053,-3.5539,-3.5727,-3.5811,-3.5868,-3.5849,-3.5836,-3.5798,-3.578,-3.5101,-3.4831,-3.5053,-3.515,-3.5519,-3.5588,-3.57,-3.5704,-3.5704,-3.5622,-3.5338,-3.4917,-3.4505,-3.3878,-3.3773,-3.3546,-3.3095,-3.2547,-3.193,-3.1385,-3.0781,-3.0767,-3.075,-3.0559,-3.0306,-2.9896,-2.9814,-2.9901,-2.9785,-2.8664,-2.7914,-2.7478,-3.9098,-3.9378,-3.9991,-4.0404,-4.0858,-4.1982,-4.255,-4.2668,-4.2746,-4.2401,-4.2071,-4.2546,-4.2764,-4.2706,-4.2706,-4.2665,-4.2503,-4.2463,-4.2501,-4.2366,-4.2463,-4.2503,-4.2334,-4.1876,-4.1447,-4.0943,-4.0041,-3.9262,-3.8865,-3.8,-3.7191,-3.6283,-3.5171,-3.4995,-3.496,-3.4444,-3.3926,-3.3276,-3.2667,-3.2004,-3.114,-3.0066,-2.9215,-2.923,-2.872,-2.7957,-2.7247,-2.6581,-2.5903,-2.5102,-2.4481,-2.4066,-2.3939,-2.3836,-2.3497,-2.2225,-2.0877,-2.0182,-2.1217,-2.2544,-2.3029,-2.2609,-2.3135,-2.3622,-2.3916,-2.4737,-2.6072,-2.7335,-2.8667,-2.992,-3.0918,-3.0079,-3.1391,-3.3661,-3.5015,-3.5519,-3.5693,-3.5794,-3.5895,-3.5856,-3.5843,-3.5786,-3.5365,-3.4525,-3.3832,-3.4182,-3.4529,-3.4927,-3.5321,-3.5473,-3.5609,-3.5671,-3.571,-3.5531,-3.5496,-3.5523,-3.4814,-3.3975,-3.324,-3.2479,-3.2284,-3.1651,-3.1169,-3.0801,-3.0779,-3.0635,-3.0182,-2.9805,-2.9297,-2.8769,-2.8418,-2.8222,-2.7885,-2.7647,-2.7372,-3.815,-3.8737,-3.8827,-3.9348,-4.0285,-4.1709,-4.249,-4.2694,-4.2767,-4.2749,-4.2693,-4.2657,-4.2803,-4.2764,-4.2686,-4.2568,-4.2503,-4.2387,-4.2425,-4.2483,-4.2544,-4.2512,-4.2251,-4.1753,-4.1034,-4.033,-3.9535,-3.8595,-3.7965,-3.6886,-3.6044,-3.527,-3.4198,-3.3829,-3.3511,-3.3312,-3.3006,-3.264,-3.2003,-3.1359,-3.057,-2.9983,-2.9298,-2.8937,-2.8293,-2.7412,-2.6724,-2.6168,-2.5306,-2.4576,-2.3994,-2.387,-2.3848,-2.3929,-2.3375,-2.2462,-2.1069,-2.1237,-2.132,-2.2488,-2.2933,-2.2496,-2.321,-2.3992,-2.4486,-2.4692,-2.5652,-2.7053,-2.8335,-2.9214,-2.9928,-3.0655,-3.1419,-3.3291,-3.5044,-3.5484,-3.5612,-3.5743,-3.588,-3.5906,-3.5892,-3.5588,-3.4611,-3.3751,-3.2866,-3.3227,-3.3546,-3.3724,-3.4177,-3.4938,-3.5133,-3.5467,-3.5525,-3.5661,-3.5743,-3.5778,-3.5006,-3.3902,-3.2249,-3.1427,-3.133,-3.1408,-3.1055,-3.0801,-3.0786,-3.0611,-3.031,-2.9531,-2.8574,-2.8066,-2.7656,-2.7441,-2.7363,-2.7303,-2.7009,-3.8041,-3.8294,-3.8905,-3.9301,-3.9679,-4.0709,-4.118,-4.1288,-4.2283,-4.259,-4.199,-4.2626,-4.2806,-4.2802,-4.2649,-4.255,-4.2488,-4.2483,-4.2483,-4.2544,-4.2625,-4.2308,-4.1826,-4.1215,-4.0384,-3.9571,-3.8777,-3.7983,-3.6961,-3.5848,-3.4877,-3.4109,-3.3317,-3.2757,-3.2455,-3.2237,-3.2163,-3.1871,-3.122,-3.0664,-2.9983,-2.9206,-2.875,-2.8276,-2.7762,-2.691,-2.6326,-2.564,-2.4691,-2.36,-2.3299,-2.3032,-2.2234,-2.3105,-2.3373,-2.2164,-2.1607,-2.1505,-2.0644,-2.1844,-2.2675,-2.2454,-2.3271,-2.4044,-2.4414,-2.4671,-2.5191,-2.6435,-2.8163,-2.9309,-3.0023,-3.0721,-3.1429,-3.2696,-3.4198,-3.4776,-3.4945,-3.5249,-3.54,-3.5446,-3.5451,-3.4854,-3.3894,-3.2584,-3.1872,-3.2241,-3.2514,-3.267,-3.3132,-3.3914,-3.4511,-3.4845,-3.4856,-3.4854,-3.5491,-3.5683,-3.4753,-3.3707,-3.2031,-3.0843,-3.0962,-3.102,-3.0862,-3.0793,-3.0788,-3.0731,-3.0574,-2.9726,-2.8828,-2.7773,-2.7265,-2.7049,-2.6853,-2.6797,-2.666,-3.8035,-3.809,-3.8592,-3.886,-3.9091,-3.9817,-4.018,-4.0452,-4.1869,-4.2195,-4.1868,-4.2612,-4.2737,-4.2315,-4.2203,-4.2124,-4.2026,-4.2008,-4.2171,-4.2665,-4.2689,-4.2278,-4.1631,-4.0818,-4.0077,-3.912,-3.8128,-3.7282,-3.6299,-3.5068,-3.4009,-3.3246,-3.2493,-3.2196,-3.1963,-3.1853,-3.1591,-3.1232,-3.0681,-3.004,-2.9325,-2.8567,-2.8179,-2.7575,-2.7108,-2.6675,-2.5794,-2.4994,-2.4014,-2.2997,-2.2786,-2.2272,-2.1716,-2.2509,-2.2327,-2.1324,-2.1618,-2.1161,-2.0703,-2.1877,-2.2181,-2.2446,-2.3405,-2.4275,-2.4583,-2.4759,-2.5102,-2.585,-2.7846,-2.9483,-3.0065,-3.0655,-3.131,-3.2042,-3.2934,-3.3821,-3.4222,-3.4599,-3.4741,-3.4804,-3.4505,-3.3986,-3.2976,-3.1607,-3.0933,-3.1361,-3.1578,-3.1622,-3.2202,-3.3066,-3.3667,-3.4076,-3.3949,-3.3862,-3.4579,-3.4947,-3.3836,-3.2783,-3.1741,-3.0845,-3.081,-3.08,-3.0784,-3.0799,-3.0795,-3.0651,-3.0463,-3.0096,-2.9316,-2.8105,-2.6873,-2.6479,-2.6302,-2.6286,-2.6112,-3.7955,-3.7977,-3.8082,-3.8372,-3.8542,-3.9207,-3.9531,-3.9792,-4.1169,-4.183,-4.1868,-4.2523,-4.2286,-4.1668,-4.1522,-4.1428,-4.1352,-4.1351,-4.1803,-4.2639,-4.2532,-4.21,-4.1415,-4.08,-3.9878,-3.8831,-3.775,-3.6673,-3.5996,-3.4766,-3.3388,-3.2524,-3.2422,-3.2214,-3.2002,-3.1631,-3.1337,-3.0958,-3.0491,-2.9968,-2.9395,-2.8811,-2.8102,-2.7183,-2.6861,-2.6606,-2.5197,-2.4239,-2.3556,-2.2821,-2.2229,-2.1721,-2.1487,-2.1415,-2.0745,-2.0637,-2.1012,-2.0886,-2.0923,-2.1972,-2.2267,-2.272,-2.3596,-2.4322,-2.4589,-2.4771,-2.5078,-2.5513,-2.7293,-2.9186,-3.0079,-3.0488,-3.1032,-3.1319,-3.1824,-3.2664,-3.3282,-3.3622,-3.3865,-3.3926,-3.3867,-3.3293,-3.2277,-3.1021,-3.0872,-3.0947,-3.0947,-3.0952,-3.1321,-3.221,-3.2755,-3.3202,-3.2864,-3.2798,-3.3452,-3.3548,-3.253,-3.159,-3.1018,-3.0843,-3.0796,-3.0801,-3.0786,-3.0795,-3.0766,-3.0461,-3.0193,-3.0078,-2.9433,-2.7635,-2.6557,-2.5945,-2.5769,-2.587,-2.5852,-3.7103,-3.7763,-3.8426,-3.8725,-3.8792,-3.8961,-3.9041,-3.9099,-4.0042,-4.0701,-4.1046,-4.123,-4.1232,-4.0944,-4.0818,-4.0727,-4.0672,-4.0689,-4.1177,-4.1684,-4.1938,-4.1542,-4.0908,-4.0438,-3.9553,-3.8363,-3.7176,-3.5889,-3.4855,-3.3789,-3.3053,-3.2558,-3.2472,-3.2369,-3.2004,-3.1568,-3.1063,-3.0577,-2.9897,-2.9388,-2.8846,-2.787,-2.6954,-2.6534,-2.6344,-2.5433,-2.4204,-2.3289,-2.2359,-2.1448,-2.1216,-2.0726,-2.017,-2.0115,-2.0014,-1.9919,-2.0251,-2.032,-2.0797,-2.1676,-2.2174,-2.2552,-2.324,-2.3953,-2.4478,-2.4778,-2.5146,-2.5627,-2.6694,-2.8613,-3.0052,-3.0405,-3.0665,-3.0709,-3.0786,-3.1585,-3.2359,-3.2641,-3.2941,-3.3002,-3.3061,-3.2416,-3.1458,-3.107,-3.0937,-3.0879,-3.0839,-3.0839,-3.0859,-3.1405,-3.1833,-3.2126,-3.1634,-3.1688,-3.2364,-3.2517,-3.1697,-3.1326,-3.0936,-3.0837,-3.0757,-3.0625,-3.0512,-3.0727,-3.0713,-3.0447,-3.0391,-3.0624,-2.9627,-2.773,-2.6378,-2.5805,-2.5699,-2.578,-2.5742,-3.6611,-3.7197,-3.8132,-3.8512,-3.853,-3.8826,-3.875,-3.8516,-3.915,-3.943,-3.9603,-4.0289,-4.0624,-4.0284,-4.0142,-4.0055,-4.0003,-4.0004,-4.0474,-4.0944,-4.1089,-4.0709,-4.0311,-3.9914,-3.8741,-3.7572,-3.6036,-3.4684,-3.3685,-3.3226,-3.2774,-3.2573,-3.2571,-3.2328,-3.1845,-3.1235,-3.0608,-2.993,-2.912,-2.8537,-2.8092,-2.7176,-2.6565,-2.6245,-2.5651,-2.4637,-2.3269,-2.2327,-2.141,-2.0804,-2.0656,-2.0238,-1.9865,-1.9812,-1.9877,-1.9976,-2.0083,-1.9993,-2.0527,-2.1335,-2.2138,-2.2464,-2.368,-2.4727,-2.4365,-2.4663,-2.5163,-2.5726,-2.6906,-2.8698,-3.0032,-3.0671,-3.0731,-3.0767,-3.0819,-3.1242,-3.1558,-3.1697,-3.1816,-3.1777,-3.1816,-3.1699,-3.1015,-3.0996,-3.0878,-3.0877,-3.0838,-3.0682,-3.0702,-3.0467,-3.0917,-3.1171,-3.0781,-3.0859,-3.152,-3.1597,-3.1187,-3.0914,-3.066,-3.0482,-3.0266,-3.0229,-3.025,-3.033,-3.0429,-3.0508,-3.0545,-3.0563,-2.9936,-2.8291,-2.6881,-2.5705,-2.5696,-2.5705,-2.5705,-3.6181,-3.6554,-3.7535,-3.7983,-3.8027,-3.8534,-3.8396,-3.7933,-3.8334,-3.8272,-3.8055,-3.9646,-3.9918,-3.969,-3.9475,-3.9408,-3.9358,-3.9326,-3.9782,-4.0273,-4.0488,-3.9998,-3.9529,-3.9062,-3.7787,-3.641,-3.4916,-3.3904,-3.2996,-3.2805,-3.2755,-3.2621,-3.2359,-3.2046,-3.1352,-3.0693,-3.0149,-2.9351,-2.8584,-2.7874,-2.725,-2.659,-2.6169,-2.5818,-2.5355,-2.4404,-2.2656,-2.134,-2.0531,-2.0409,-2.0329,-2.0031,-1.9862,-1.9855,-2.0068,-2.0192,-2.0189,-2.0285,-2.0747,-2.1856,-2.2072,-2.2553,-2.4301,-2.4934,-2.4536,-2.4745,-2.5263,-2.5929,-2.7125,-2.8373,-2.9726,-3.0752,-3.0798,-3.0816,-3.0873,-3.0918,-3.0976,-3.1015,-3.0954,-3.087,-3.0892,-3.0915,-3.0915,-3.0874,-3.0772,-3.079,-3.0693,-3.0597,-3.0383,-2.9934,-2.9895,-3.0226,-3.0228,-3.0447,-3.0937,-3.0996,-3.0859,-3.0039,-2.9765,-2.9765,-2.9726,-2.9531,-2.9531,-2.9783,-2.9898,-2.9956,-2.9974,-2.9933,-2.9187,-2.8404,-2.7035,-2.5722,-2.5705,-2.5694,-2.5689,-3.5287,-3.6,-3.686,-3.7572,-3.8053,-3.7617,-3.7547,-3.779,-3.7261,-3.7216,-3.764,-3.7973,-3.8405,-3.8713,-3.8716,-3.8668,-3.8622,-3.8624,-3.9097,-3.9698,-3.9644,-3.919,-3.856,-3.7812,-3.6533,-3.5217,-3.4082,-3.355,-3.2805,-3.2736,-3.2771,-3.2666,-3.1957,-3.1653,-3.1464,-3.0645,-2.9576,-2.8887,-2.8067,-2.7272,-2.7131,-2.6361,-2.5255,-2.4709,-2.4093,-2.2867,-2.1525,-2.0493,-2.0218,-2.0154,-2.0131,-1.9962,-2.0,-2.0074,-2.0355,-2.0751,-2.0701,-2.0909,-2.1561,-2.2475,-2.2688,-2.2778,-2.4245,-2.5069,-2.4907,-2.5042,-2.5411,-2.5537,-2.6666,-2.7919,-2.9221,-3.0476,-3.0853,-3.085,-3.0876,-3.0898,-3.0937,-3.0935,-3.0893,-3.0848,-3.0823,-3.0847,-3.0829,-3.0646,-3.0282,-3.0204,-2.9921,-2.9767,-2.928,-2.9064,-2.8946,-2.9335,-2.9665,-3.0202,-3.0756,-3.0892,-3.0659,-2.9664,-2.9021,-2.9254,-2.9177,-2.867,-2.8746,-2.9399,-2.9321,-2.9205,-2.9224,-2.9301,-2.8657,-2.7855,-2.6702,-2.576,-2.572,-2.5679,-2.5669]},{"header":{"parameterUnit":"m.s-1","parameterCategory":1,"la1":31.0,"la2":29.5877,"lo1":-88.7671,"lo2":-86.6584,"dy":0.0162,"dx":0.0185,"nx":115,"ny":88,"refTime":"2024-08-01T00:00:00:Z","depth":0,"parameterNumber":3,"parameterNumberName":"V-component_of_WINDS"},"data":[0.0,0.0,0.0,0.0,0.0,0.0,0.0,0.0,0.0,0.0,0.0,0.0,0.0,0.0,0.0,0.0,0.0,0.0,0.0,0.0,0.0,0.0,0.0,0.0,0.0,0.0,0.0,0.0,0.0,0.0,0.0,0.0,0.0,0.0,0.0,0.0,0.0,0.0,0.0,0.0,0.0,0.0,0.0,0.0,0.0,0.0,0.0,0.0,0.0,0.0,0.0,0.0,0.0,0.0,0.0,0.0,0.0,0.0,0.0,0.0,0.0,0.0,0.0,0.0,0.0,0.0,0.0,0.0,0.0,0.0,0.0,0.0,0.0,0.0,0.0,0.0,0.0,0.0,0.0,0.0,0.0,0.0,0.0,0.0,0.0,0.0,0.0,0.0,0.0,0.0,0.0,0.0,0.0,0.0,0.0,0.0,0.0,0.0,0.0,0.0,0.0,0.0,0.0,0.0,0.0,0.0,0.0,0.0,0.0,0.0,0.0,0.0,0.0,0.0,0.0,0.0,0.0,0.0,0.0,0.0,0.0,0.0,0.0,0.0,0.0,0.0,0.0,0.0,0.0,0.0,0.0,0.0,0.0,0.0,0.0,0.0,0.0,0.0,0.0,0.0,0.0,0.0,0.0,0.0,0.0,0.0,0.0,0.0,0.0,0.0,0.0,0.0,0.0,0.0,0.0,0.0,0.0,0.0,0.0,0.0,0.0,0.0,0.0,0.0,0.0,0.0,0.0,0.0,0.0,0.0,0.0,0.0,0.0,0.0,0.0,0.0,0.0,0.0,0.0,0.0,0.0,0.0,0.0,0.0,0.0,0.0,0.0,0.0,0.0,0.0,0.0,0.0,0.0,0.0,0.0,0.0,0.0,0.0,0.0,0.0,0.0,0.0,0.0,0.0,0.0,0.0,0.0,0.0,0.0,0.0,0.0,0.0,0.0,0.0,0.0,0.0,0.0,0.0,0.0,0.0,0.0,0.0,0.0,0.0,0.0,0.0,0.0,0.0,0.0,0.0,0.0,0.0,0.0,0.0,0.0,0.0,0.0,0.0,0.0,0.0,0.0,0.0,0.0,0.0,0.0,0.0,0.0,0.0,0.0,0.0,0.0,0.0,0.0,0.0,0.0,0.0,0.0,0.0,0.0,0.0,0.0,0.0,0.0,0.0,0.0,0.0,0.0,0.0,0.0,0.0,0.0,0.0,0.0,0.0,0.0,0.0,0.0,0.0,0.0,0.0,0.0,0.0,0.0,0.0,0.0,0.0,0.0,0.0,0.0,0.0,0.0,0.0,0.0,0.0,0.0,0.0,0.0,0.0,0.0,0.0,0.0,0.0,0.0,0.0,0.0,0.0,0.0,0.0,0.0,0.0,0.0,0.0,0.0,0.0,0.0,0.0,0.0,0.0,0.0,0.0,0.0,0.0,0.0,0.0,0.0,0.0,0.0,0.0,0.0,0.0,0.0,0.0,0.0,0.0,0.0,0.0,0.0,0.0,0.0,0.0,0.0,0.0,0.0,0.0,0.0,0.0,0.0,0.0,0.0,0.0,0.0,0.0,0.0,0.0,0.0,0.0,0.0,0.0,0.0,0.0,0.0,0.0,0.0,0.0,0.0,0.0,0.0,0.0,0.0,0.0,0.0,0.0,0.0,0.0,0.0,0.0,0.0,0.0,0.0,0.0,0.0,0.0,0.0,0.0,0.0,0.0,0.0,0.0,0.0,0.0,0.0,0.0,0.0,0.0,0.0,0.0,0.0,0.0,0.0,0.0,0.0,0.0,0.0,0.0,0.0,0.0,0.0,0.0,0.0,0.0,0.0,0.0,0.0,0.0,0.0,0.0,0.0,0.0,0.0,0.0,0.0,0.0,0.0,0.0,0.0,0.0,0.0,0.0,0.0,0.0,0.0,0.0,0.0,0.0,0.0,0.0,0.0,0.0,0.0,0.0,0.0,0.0,0.0,0.0,0.0,0.0,0.0,0.0,0.0,0.0,0.0,0.0,0.0,0.0,0.0,0.0,0.0,0.0,0.0,0.0,0.0,0.0,0.0,0.0,0.0,0.0,0.0,0.0,0.0,0.0,0.0,0.0,0.0,0.0,0.0,0.0,0.0,0.0,0.0,0.0,0.0,0.0,0.0,0.0,0.0,0.0,0.0,0.0,0.0,0.0,0.0,0.0,0.0,0.0,0.0,0.0,0.0,0.0,0.0,0.0,0.0,0.0,0.0,0.0,0.0,0.0,0.0,0.0,0.0,0.0,0.0,0.0,0.0,0.0,0.0,0.0,0.0,0.0,0.0,0.0,0.0,0.0,0.0,0.0,0.0,0.0,0.0,0.0,0.0,0.0,0.0,0.0,0.0,0.0,0.0,0.0,0.0,0.0,0.0,0.0,0.0,0.0,0.0,0.0,0.0,0.0,0.0,0.0,0.0,0.0,0.0,0.0,0.0,0.0,0.0,0.0,0.0,0.0,0.0,0.0,0.0,0.0,0.0,0.0,0.0,0.0,0.0,0.0,0.0,0.0,0.0,0.0,0.0,0.0,0.0,0.0,0.0,0.0,0.0,0.0,0.0,0.0,0.0,0.0,0.0,0.0,0.0,0.0,0.0,0.0,0.0,0.0,0.0,0.0,0.0,0.0,0.0,0.0,0.0,0.0,0.0,0.0,0.0,0.0,0.0,0.0,0.0,0.0,0.0,0.0,0.0,0.0,0.0,0.0,0.0,0.0,0.0,0.0,0.0,0.0,0.0,0.0,0.0,0.0,0.0,0.0,0.0,0.0,0.0,0.0,0.0,0.0,0.0,0.0,0.0,0.0,0.0,0.0,0.0,0.0,0.0,0.0,0.0,0.0,0.0,0.0,0.0,0.0,0.0,0.0,0.0,0.0,0.0,0.0,0.0,0.0,0.0,0.0,0.0,0.0,0.0,0.0,0.0,0.0,0.0,0.0,0.0,0.0,0.0,0.0,0.0,0.0,0.0,0.0,0.0,0.0,0.0,0.0,0.0,0.0,0.0,0.0,0.0,0.0,0.0,0.0,0.0,0.0,0.0,0.0,0.0,0.0,0.0,0.0,0.0,0.0,0.0,0.0,0.0,0.0,0.0,0.0,0.0,0.0,0.0,0.0,0.0,0.0,0.0,0.0,0.0,0.0,0.0,0.0,0.0,0.0,0.0,0.0,0.0,0.0,0.0,0.0,0.0,0.0,0.0,0.0,0.0,0.0,0.0,0.0,0.0,0.0,0.0,0.0,0.0,0.0,0.0,0.0,0.0,0.0,0.0,0.0,0.0,0.0,0.0,0.0,0.0,0.0,0.0,0.0,0.0,0.0,0.0,0.0,0.0,0.0,0.0,0.0,0.0,0.0,0.0,0.0,0.0,0.0,0.0,0.0,0.0,0.0,0.0,0.0,0.0,0.0,0.0,0.0,0.0,0.0,0.0,0.0,0.0,0.0,0.0,0.0,0.0,0.0,0.0,0.0,0.0,0.0,0.0,0.0,0.0,0.0,0.0,0.0,0.0,0.0,0.0,0.0,0.0,0.0,0.0,0.0,0.0,0.0,0.0,0.0,0.0,0.0,0.0,0.0,0.0,0.0,0.0,0.0,0.0,0.0,0.0,0.0,0.0,0.0,0.0,0.0,0.0,0.0,0.0,0.0,0.0,0.0,0.0,0.0,0.0,0.0,0.0,0.0,0.0,0.0,0.0,0.0,0.0,0.0,0.0,0.0,0.0,0.0,0.0,0.0,0.0,0.0,0.0,0.0,0.0,0.0,0.0,0.0,0.0,0.0,0.0,0.0,0.0,0.0,0.0,0.0,0.0,0.0,0.0,0.0,0.0,0.0,0.0,0.0,0.0,0.0,0.0,0.0,0.0,0.0,0.0,0.0,0.0,0.0,0.0,0.0,0.0,0.0,0.0,0.0,0.0,0.0,0.0,0.0,0.0,0.0,0.0,0.0,0.0,0.0,0.0,0.0,0.0,0.0,0.0,0.0,0.0,0.0,0.0,0.0,0.0,0.0,0.0,0.0,0.0,0.0,0.0,0.0,0.0,0.0,0.0,0.0,0.0,0.0,0.0,0.0,0.0,0.0,0.0,0.0,0.0,0.0,0.0,0.0,0.0,0.0,0.0,0.0,0.0,0.0,0.0,0.0,0.0,0.0,0.0,0.0,0.0,0.0,0.0,0.0,0.0,0.0,0.0,0.0,0.0,0.0,0.0,0.0,0.0,0.0,0.0,0.0,0.0,0.0,0.0,0.0,0.0,0.0,0.0,0.0,-0.137,0.0,0.0,0.0,0.0,0.0,0.0,0.0,0.0,0.0,0.0,0.0,0.0,0.0,0.0,0.0,0.0,0.0,0.0,0.0,0.0,0.0,0.0,0.0,0.0,0.0,0.0,0.0,0.0,0.0,0.0,0.0,0.0,0.0,0.0,0.0,0.0,0.0,0.0,0.0,0.0,0.0,0.0,0.0,0.0,0.0,0.0,0.0,0.0,0.0,0.0,0.0,0.0,0.0,0.0,0.0,0.0,0.0,0.0,0.0,0.0,0.0,0.0,0.0,0.0,0.0,0.0,0.0,0.0,0.0,0.0,0.0,0.0,0.0,0.0,0.0,0.0,0.0,0.0,0.0,0.0,0.0,0.0,0.0,0.0,0.0,0.0,0.0,0.0,0.0,0.0,0.0,0.0,0.0,0.0,0.0,0.0,0.0,0.0,0.0,0.0,0.0,0.0,0.0,0.0,0.0,0.0,0.0,0.0,0.0,0.0,-0.4779,-0.3957,-0.2366,-0.1183,-0.0528,0.0,0.0,0.0,0.0,0.0,0.0,0.0,0.0,0.0,0.0,0.0,0.0,0.0,0.0,0.0,0.0,0.0,0.0,0.0,0.0,0.0,0.0,0.0,0.0,0.0,0.0,0.0,0.0,0.0,0.0,0.0,0.0,0.0,0.0,0.0,0.0,0.0,0.0,0.0,0.0,0.0,0.0,0.0,0.0,0.0,0.0,0.0,0.0,0.0,0.0,0.0,0.0,0.0,0.0,0.0,0.0,0.0,0.0,0.0,0.0,0.0,0.0,0.0,0.0,0.0,0.0,0.0,0.0,0.0,0.0,0.0,0.0,0.0,0.0,0.0,0.0,0.0,0.0,0.0,0.0,0.0,0.0,0.0,0.0,0.0,0.0,0.0,0.0,0.0,0.0,0.0,0.0,0.0,0.0,0.0,0.0,0.0,0.0,0.0,0.0,0.0,0.0,0.0,0.0,0.0,0.0,0.0,0.0,0.0,0.0,0.0,0.0,-0.1616,-0.0563,-0.024,0.0,0.0,0.0,0.0,0.0,0.0,0.0,0.0,0.0,0.0,0.0,0.0,0.0,0.0,0.0,0.0,0.0,0.0,0.0,0.0,0.0,0.0,0.0,0.0,0.0,0.0,0.0,0.0,0.0,0.0,0.0,0.0,0.0,0.0,0.0,0.0,0.0,0.0,0.0,0.0,0.0,0.0,0.0,0.0,0.0,0.0,0.0,0.0,0.0,0.0,0.0,0.0,0.0,0.0,0.0,0.0,0.0,0.0,0.0,0.0,0.0,0.0,0.0,0.0,0.0,0.0,0.0,0.0,0.0,0.0,0.0,0.0,0.0,0.0,0.0,0.0,0.0,0.0,0.0,0.0,0.0,0.0,0.0,0.0,0.0,0.0,0.0,0.0,0.0,0.0,0.0,0.0,0.0,0.0,0.0,0.0,0.0,0.0,0.0,0.0,0.0,0.0,0.0,0.0,0.0,0.0,0.0,0.0,0.0,0.0,-0.2806,-0.2506,-0.1787,0.0,-0.1124,0.0,0.0,0.0,0.0,0.0,0.0,0.0,0.0,0.0,0.0,0.0,0.0,0.0,0.0,0.0,0.0,0.0,0.0,0.0,0.0,0.0,0.0,0.0,0.0,0.0,0.0,0.0,0.0,0.0,0.0,0.0,0.0,0.0,0.0,0.0,0.0,0.0,0.0,0.0,0.0,0.0,0.0,0.0,0.0,0.0,0.0,0.0,0.0,0.0,0.0,0.0,0.0,0.0,0.0,0.0,0.0,0.0,0.0,0.0,0.0,0.0,0.0,0.0,0.0,0.0,0.0,0.0,0.0,0.0,0.0,0.0,0.0,0.0,0.0,0.0,0.0,0.0,0.0,0.0,0.0,0.0,0.0,0.0,0.0,0.0,0.0,0.0,0.0,0.0,0.0,0.0,0.0,0.0,0.0,0.0,0.0,0.0,0.0,0.0,0.0,0.0,0.0,0.0,0.0,0.0,0.0,0.0,0.0,0.0,0.0,0.0,-0.2778,-0.1665,-0.1043,0.0,0.0,0.0,0.0,0.0,0.0,0.0,0.0,0.0,0.0,0.0,0.0,0.0,0.0,0.0,0.0,0.0,0.0,0.0,0.0,0.0,0.0,0.0,0.0,0.0,0.0,0.0,0.0,0.0,0.0,0.0,0.0,0.0,0.0,0.0,0.0,0.0,0.0,0.0,0.0,0.0,0.0,0.0,0.0,0.0,0.0,0.0,0.0,0.0,0.0,0.0,0.0,0.0,0.0,0.0,0.0,0.0,0.0,0.0,0.0,0.0,0.0,0.0,0.0,0.0,0.0,0.0,0.0,0.0,0.0,0.0,0.0,0.0,0.0,0.0,0.0,0.0,0.0,0.0,0.0,0.0,0.0,0.0,0.0,0.0,0.0,0.0,0.0,0.0,0.0,0.0,0.0,0.0,0.0,0.0,0.0,0.0,0.0,0.0,0.0,0.0,0.0,0.0,0.0,0.0,0.0,0.0,0.0,0.0,0.0,-0.4184,0.0,-0.2861,-0.1665,-0.1019,-0.1019,0.0,0.0,0.0,0.0,0.0,0.0,0.0,0.0,0.0,0.0,0.0,0.0,0.0,0.0,0.0,0.0,0.0,0.0,0.0,0.0,0.0,0.0,0.0,0.0,0.0,0.0,0.0,0.0,0.0,0.0,0.0,0.0,0.0,0.0,0.0,0.0,0.0,0.0,0.0,0.0,0.0,0.0,0.0,0.0,0.0,0.0,0.0,0.0,0.0,0.0,0.0,0.0,0.0,0.0,0.0,0.0,0.0,0.0,0.0,0.0,0.0,0.0,0.0,0.0,0.0,0.0,0.0,0.0,0.0,0.0,0.0,0.0,0.0,0.0,0.0,0.0,0.0,0.0,0.0,0.0,0.0,0.0,0.0,0.0,0.0,0.0,0.0,0.0,0.0,0.0,0.0,0.0,0.0,0.0,0.0,0.0,0.0,0.0,0.0,0.0,0.0,0.0,0.0,0.0,0.0,0.0,0.0,0.0,0.0,-0.2905,-0.2697,-0.2372,-0.1844,-0.1568,0.0,0.0,0.0,0.0,0.0,0.0,0.0,0.0,0.0,0.0,0.0,0.0,0.0,0.0,0.0,0.0,0.0,0.0,0.0,0.0,0.0,0.0,0.0,0.0,0.0,0.0,0.0,0.0,0.0,0.0,0.0,0.0,0.0,0.0,0.0,0.0,0.0,0.0,0.0,0.0,0.0,0.0,0.0,0.0,0.0,0.0,0.0,0.0,0.0,0.0,0.0,0.0,0.0,0.0,0.0,0.0,0.0,0.0,0.0,0.0,0.0,0.0,0.0,0.0,0.0,0.0,0.0,0.0,0.0,0.0,0.0,0.0,0.0,0.0,0.0,0.0,0.0,0.0,0.0,0.0,0.0,0.0,0.0,0.0,0.0,0.0,0.0,0.0,0.0,0.0,0.0,0.0,0.0,0.0,0.0,0.0,0.0,0.0,0.0,0.0,0.0,0.0,0.0,0.0,0.0,0.0,0.0,0.0,0.0,0.0663,-0.0651,-0.1929,0.0,-0.2058,-0.1837,0.0,0.0,0.0,0.0,0.0,0.0,0.0,0.0,0.0,0.0,0.0,0.0,0.0,0.0,0.0,0.0,0.0,0.0,0.0,0.0,0.0,0.0,0.0,0.0,0.0,0.0,0.0,0.0,0.0,0.0,0.0,0.0,0.0,0.0,0.0,0.0,0.0,0.0,0.0,0.0,0.0,0.0,0.0,0.0,0.0,0.0,0.0,0.0,0.0,0.0,0.0,0.0,0.0,0.0,0.0,0.0,0.0,0.0,0.0,0.0,0.0,0.0,0.0,0.0,0.0,0.0,0.0,0.0,0.0,0.0,0.0,0.0,0.0,0.0,0.0,0.0,0.0,0.0,0.0,0.0,0.0,0.0,0.0,0.0,0.0,0.0,0.0,0.0,0.0,0.0,0.0,0.0,0.0,0.0,0.0,0.0,0.0,0.0,0.0,0.0,0.0,0.0,0.0,0.0,0.0,0.0,0.0,0.0,0.0,0.1615,0.0,-0.209,0.0,-0.2189,-0.1757,0.0,0.0,0.0,0.0,0.0,0.0,0.0,0.0,0.0,0.0,0.0,0.0,0.0,0.0,0.0,0.0,0.0,0.0,0.0,0.0,0.0,0.0,0.0,0.0,0.0,0.0,0.0,0.0,0.0,0.0,0.0,0.0,0.0,0.0,0.0,0.0,0.0,0.0,0.0,0.0,0.0,0.0,0.0,0.0,0.0,0.0,0.0,0.0,0.0,0.0,0.0,0.0,0.0,0.0,0.0,0.0,0.0,0.0,0.0,0.0,0.0,0.0,0.0,0.0,0.0,0.0,0.0,0.0,0.0,0.0,0.0,0.0,0.0,0.0,0.0,0.0,0.0,0.0,0.0,0.0,0.0,0.0,0.0,0.0,0.0,0.0,0.0,0.0,0.0,0.0,0.0,0.0,0.0,0.0,0.0,0.0,0.0,0.0,0.0,0.0,0.0,0.0,0.0,0.0,0.0,0.0,0.0,0.0,0.0,-0.0795,-0.2354,-0.305,-0.272,-0.2245,-0.1322,0.0,0.0,0.0,0.0,0.0,0.0,0.0,0.0,0.0,0.0,0.0,0.0,0.0,0.0,0.0,0.0,0.0,0.0,0.0,0.0,0.0,0.0,0.0,0.0,0.0,0.0,0.0,0.0,0.0,0.0,0.0,0.0,0.0,0.0,0.0,0.0,0.0,0.0,0.0,0.0,0.0,0.0,0.0,0.0,0.0,0.0,0.0,0.0,0.0,0.0,0.0,0.0,0.0,0.0,0.0,0.0,0.0,0.0,0.0,0.0,0.0,0.0,0.0,0.0,0.0,0.0,0.0,0.0,0.0,0.0,0.0,0.0,0.0,0.0,0.0,0.0,0.0,0.0,0.0,0.0,0.0,0.0,0.0,0.0,0.0,0.0,0.0,0.0,0.0,0.0,0.0,0.0,0.0,0.0,0.0,0.0,0.0,0.0,0.0,0.0,0.0,0.0,0.0,0.0,0.0,0.0,0.0,0.0,0.0,-0.0141,-0.1391,-0.2579,-0.3514,-0.229,-0.1452,0.0,0.0,0.0,0.0,0.0,0.0,0.0,0.0,0.0,0.0,0.0,0.0,0.0,0.0,0.0,0.0,0.0,0.0,0.0,0.0,0.0,0.0,0.0,0.0,0.0,0.0,0.0,0.0,0.0,0.0,0.0,0.0,0.0,0.0,0.0,0.0,0.0,0.0,0.0,0.0,0.0,0.0,0.0,0.0,0.0,0.0,0.0,0.0,0.0,0.0,0.0,0.0,0.0,0.0,0.0,0.0,0.0,0.0,0.0,0.0,0.0,0.0,0.0,0.0,0.0,0.0,0.0,0.0,0.0,0.0,0.0,0.0,0.0,0.0,0.0,0.0,0.0,0.0,0.0,0.0,0.0,0.0,0.0,0.0,0.0,0.0,0.0,0.0,0.0,0.0,0.0,0.0,0.0,0.0,0.0,0.0,0.0,0.0,0.0,0.0,0.0,0.0,0.0,0.0,0.0,0.0,0.0,0.0,0.0,-0.1004,-0.2148,-0.3324,-0.4483,-0.3306,-0.2444,-0.1941,0.0,0.0,0.0,0.0,0.0,0.0,0.0,0.0,0.0,0.0,0.0,0.0,0.0,0.0,0.0,0.0,0.0,0.0,0.0,0.0,0.0,0.0,0.0,0.0,0.0,0.0,0.0,0.0,0.0,0.0,0.0,0.0,0.0,0.0,0.0,0.0,0.0,0.0,0.0,0.0,0.0,0.0,0.0,0.0,0.0,0.0,0.0,0.0,0.0,0.0,0.0,0.0,0.0,0.0,0.0,0.0,0.0,0.0,0.0,0.0,0.0,0.0,0.0,0.0,0.0,0.0,0.0,0.0,0.0,0.0,0.0,0.0,0.0,0.0,0.0,0.0,0.0,0.0,0.0,0.0,0.0,0.0,0.0,0.0,0.0,0.0,0.0,0.0,0.0,0.0,0.0,0.0,0.0,0.0,0.0,0.0,0.0,0.0,0.0,0.0,0.0,0.0,0.0,0.0,0.0,0.0,0.0,0.0,-0.299,-0.4328,-0.5193,-0.5525,-0.511,-0.4139,0.0,0.0,0.0,0.0,0.0,0.0,0.0,0.0,0.0,0.0,0.0,0.0,0.0,0.0,0.0,0.0,0.0,0.0,0.0,0.0,0.0,0.0,0.0,0.0,0.0,0.0,0.0,0.0,0.0,0.0,0.0,0.0,0.0,0.0,0.0,0.0,0.0,0.0,0.0,0.0,0.0,0.0,0.0,0.0,0.0,0.0,0.0,0.0,0.0,0.0,0.0,0.0,0.0,0.0,0.0,0.0,0.0,0.0,0.0,0.0,0.0,0.0,0.0,0.0,0.0,0.0,0.0,0.0,0.0,0.0,0.0,0.0,0.0,0.0,0.0,0.0,0.0,0.0,0.0,0.0,0.0,0.0,0.0,0.0,0.0,0.0,0.0,0.0,0.0,0.0,0.0,0.0,0.0,0.0,0.0,0.0,0.0,0.0,0.0,0.0,0.0,0.0,0.0,0.0,0.0,0.0,0.0,0.0,0.0,-0.4221,-0.5701,-0.6633,-0.6994,-0.6592,-0.5905,0.0,0.0,0.0,0.0,0.0,0.0,0.0,0.0,0.0,0.0,0.0,0.0,0.0,0.0,0.0,0.0,0.0,0.0,0.0,0.0,0.0,0.0,0.0,0.0,0.0,0.0,0.0,0.0,0.0,0.0,0.0,0.0,0.0,0.0,0.0,0.0,0.0,0.0,0.0,0.0,0.0,0.0,0.0,0.0,0.0,0.0,0.0,0.0,0.0,0.0,0.0,0.0,0.0,0.0,0.0,0.0,0.0,0.0,0.0,0.0,0.0,0.0,0.0,0.0,0.0,0.0,0.0,0.0,0.0,0.0,0.0,0.0,0.0,0.0,0.0,0.0,0.0,0.0,0.0,0.0,0.0,0.0,0.0,0.0,0.0,0.0,0.0,0.0,0.0,0.0,0.0,0.0,0.0,0.0,0.0,0.0,0.0,0.0,0.0,0.0,0.0,0.0,0.0,0.0,0.0,0.0,0.0,0.0,-0.477,-0.5596,-0.7055,-0.813,-0.8663,-0.8225,-0.7452,0.0,0.0,0.0,0.0,0.0,0.0,0.0,0.0,0.0,0.0,0.0,0.0,0.0,0.0,0.0,0.0,0.0,0.0,0.0,0.0,0.0,0.0,0.0,0.0,0.0,0.0,0.0,0.0,0.0,0.0,0.0,0.0,0.0,0.0,0.0,0.0,0.0,0.0,0.0,0.0,0.0,0.0,0.0,0.0,0.0,0.0,0.0,0.0,0.0,0.0,0.0,0.0,0.0,0.0,0.0,0.0,0.0,0.0,0.0,0.0,0.0,0.0,0.0,0.0,0.0,0.0,0.0,0.0,0.0,0.0,0.0,0.0,0.0,0.0,0.0,0.0,0.0,0.0,0.0,0.0,0.0,0.0,0.0,0.0,0.0,0.0,0.0,0.0,0.0,0.0,0.0,0.0,0.0,0.0,0.0,0.0,0.0,0.0,0.0,0.0,0.0,0.0,0.0,0.0,0.0,0.0,0.0,0.0,-0.6532,-0.7246,-0.8579,-0.9675,-1.0427,-0.9916,-0.8815,0.0,0.0,0.0,0.0,0.0,0.0,0.0,0.0,0.0,0.0,0.0,0.0,0.0,0.0,0.0,0.0,0.0,0.0,0.0,0.0,0.0,0.0,0.0,0.0,0.0,0.0,0.0,0.0,0.0,0.0,0.0,0.0,0.0,0.0,0.0,0.0,0.0,0.0,0.0,0.0,0.0,0.0,0.0,0.0,0.0,0.0,0.0,0.0,0.0,0.0,0.0,0.0,0.0,0.0,0.0,0.0,0.0,0.0,0.0,0.0,0.0,0.0,0.0,0.0,0.0,0.0,0.0,0.0,0.0,0.0,0.0,0.0,0.0,0.0,0.0,0.0,0.0,0.0,0.0,0.0,0.0,0.0,0.0,0.0,0.0,0.0,0.0,0.0,0.0,0.0,0.0,0.0,0.0,0.0,0.0,0.0,0.0,0.0,0.0,0.0,0.0,0.0,0.0,0.0,0.0,0.0,0.0,0.0,-0.8325,-1.0123,-1.086,-1.1601,-1.2364,-1.1132,-0.9903,0.0,0.0,0.0,0.0,0.0,0.0,0.0,0.0,0.0,0.0,0.0,0.0,0.0,0.0,0.0,0.0,0.0,0.0,0.0,0.0,0.0,0.0,0.0,0.0,0.0,0.0,0.0,0.0,0.0,0.0,0.0,0.0,0.0,0.0,0.0,0.0,0.0,0.0,0.0,0.0,0.0,0.0,0.0,0.0,0.0,0.0,0.0,0.0,0.0022,0.0,0.0,0.0,0.0,0.0,0.0,0.0,0.0,0.0,0.0,0.0,0.0,0.0,0.0,0.0,0.0,0.0,0.0,0.0,0.0,0.0,0.0,0.0,0.0,0.0,0.0,0.0,0.0,0.0,0.0,0.0,0.0,0.0,0.0,0.0,0.0,0.0,0.0,0.0,0.0,0.0,0.0,0.0,0.0,0.0,0.0,0.0,0.0,0.0,0.0,0.0,0.0,0.0,0.0,0.0,0.0,0.0,0.0,0.0,-1.0684,-1.2597,-1.3158,-1.3639,-1.4043,-1.3234,-1.1819,0.0,0.0,0.0,0.0,0.0,0.0,0.0,0.0,0.0,0.0,0.0,0.0,0.0,0.0,0.0,0.0,0.0,0.0,0.0,0.0,0.0,0.0,0.0,0.0,0.0,0.0,0.0,0.0,0.0,0.0,0.0,0.0,0.0,0.0,0.0,0.0,0.0,0.0,0.0,0.0,0.0,0.0,0.0,0.0,0.0,0.0,0.0,0.0,0.0,0.0,0.0,0.0,0.0,0.0,0.0,0.0,0.0,0.0,0.0,0.0,0.0,0.0,0.0,0.0,0.0,0.0,0.0,0.0,0.0,0.0,0.0,0.0,0.0,0.0,0.0,0.0,0.0,0.0,0.0,0.0,0.0,0.0,0.0,0.0,0.0,0.0,0.0,0.0,0.0,0.0,0.0,0.0,0.0,0.0,0.0,0.0,0.0,0.0,0.0,0.0,0.0,0.0,0.0,0.0,0.0,0.0,0.0,-1.1588,-1.2879,-1.4797,-1.5383,-1.57,-1.5765,-1.5589,-1.4059,-1.1101,0.0,0.0,0.0,0.0,0.0,0.0,0.0,0.0,0.0,0.0,0.0,0.0,0.0,0.0,0.0,0.0,0.0,0.0,0.0,0.0,0.0,0.0,0.0,0.0,0.0,0.0,0.0,0.0,0.0,0.0,0.0,0.0,0.0,0.0,0.0,0.0,0.0,0.0,0.2746,0.1113,0.0,0.0,0.0,0.0,0.0,0.0,0.0,0.0,0.0384,0.0,0.0,0.0,0.0,0.0,0.0,0.0,0.0,0.0,0.0,0.0,0.0,0.0,0.0,0.0,0.0,0.0,0.0,0.0,0.0,0.0,0.0,0.0,0.0,0.0,0.0,0.0,0.0,0.0,0.0,0.0,0.0,0.0,0.0,0.0,0.0,0.0,0.0,0.0,0.0,0.0,0.0,0.0,0.0,0.0,0.0,0.0,0.0,0.0,0.0,0.0,0.0,0.0,0.0,0.0,0.0,-1.1902,-1.1974,-1.3609,-1.6882,-1.7086,-1.7405,-1.7932,-1.7486,-1.5997,-1.3559,0.0,0.0,0.0,0.0,0.0,0.0,0.0,0.0,0.0,0.0,0.0,0.0,0.0,0.0,0.0,0.0,0.0,0.0,0.0,0.0,0.0,0.0,0.0,0.0,0.0,0.0,0.0,0.0,0.0,0.0,0.0,0.0,0.0,0.0,0.0,0.0,0.0,0.0,0.0,0.0901,0.0116,0.0,0.0,0.0,0.0,0.0,0.0,0.0,0.0,0.0855,0.0,0.0,0.0,0.0,0.0,0.0,0.0,0.0,0.0,0.0,0.0,0.0,0.0,0.0,0.0,0.0,0.0,0.0,0.0,0.0,0.0,0.0,0.0,0.0,0.0,0.0,0.0,0.0,0.0,0.0,0.0,0.0,0.0,0.0,0.0,0.0,0.0,0.0,0.0,0.0,0.0,0.0,0.0,0.0,0.0,0.0,0.0,0.0,0.0,0.0,0.0,0.0,0.0,0.0,0.0,-1.1502,-1.3064,-1.5277,-1.8221,-1.8627,-1.8967,-1.9312,-1.7683,-1.5924,0.0,0.0,0.0,0.0,0.0,0.0,0.0,0.0,0.0,0.0,0.0,0.0,0.0,0.0,0.0,0.0,0.0,0.0,0.0,0.0,0.0,0.0,0.0,0.0,0.0,0.0,0.0,0.0,0.0,0.0,0.0,0.0,0.0,0.0,0.0,0.0,0.0,0.0,0.0,0.0,0.0124,-0.0666,-0.1039,0.0,0.0,0.0,0.0,0.0,0.0,-0.0338,-0.0518,0.0,0.0,0.0,0.0,0.0,0.0,0.0,0.0,0.0,0.0,0.0,0.0,0.0,0.0,0.0,0.0,0.0,0.0,0.0,0.0,0.0,0.0,0.0,0.0,0.0,0.0,0.0,0.0,0.0,0.0,0.0,0.0,0.0,0.0,0.0,0.0,0.0,0.0,0.0,0.0,0.0,0.0,0.0,0.0,0.0,0.0,0.0,0.0,0.0,0.0,0.0,0.0,0.0,0.0,0.0,-1.1001,-1.3794,-1.6463,-1.8971,-1.9695,-2.0165,-2.0382,-1.8055,-1.6007,0.0,0.0,0.0,0.0,0.0,0.0,0.0,0.0,0.0,0.0,0.0,0.0,0.0,0.0,0.0,0.0,0.0,0.0,0.0,0.0,0.0,0.0,0.0,0.0,0.0,0.0,0.0,0.0,0.0,0.0,0.0,0.0,0.0,0.0,0.0,0.0,0.0,0.0,0.0,0.0,0.0,-0.1908,-0.2412,-0.326,0.0,0.0,0.0,0.0,-0.2027,-0.2641,0.0,0.0,0.0,0.0,0.0,0.0,0.0,0.0,0.0,0.0,0.0,0.0,0.0,0.0,0.0,0.0,0.0,0.0,0.0,0.0,0.0,0.0,0.0,0.0,0.0,0.0,0.0,0.0,0.0,0.0,0.0,0.0,0.0,0.0,0.0,0.0,0.0,0.0,0.0,0.0,0.0,0.0,0.0,0.0,0.0,0.0,0.0,0.0,0.0,0.0,0.0,0.0,0.0,0.0,0.0,0.0,-1.0641,-1.3025,-1.5814,-1.8854,-1.9719,-2.0452,-2.1224,-2.0067,-1.8099,0.0,0.0,0.0,0.0,0.0,0.0,0.0,0.0,0.0,0.0,0.0,0.0,0.0,0.0,0.0,0.0,0.0,0.0,0.0,0.0,0.0,0.0,0.0,0.0,0.0,0.0,0.0,0.0,0.0,0.0,0.0,0.0,0.0,0.0,0.0,0.0,0.0,0.0,0.0,0.0,0.0,-0.3409,-0.4025,-0.5018,-0.5725,0.0,0.0,0.0,-0.4868,-0.4935,0.0,0.0,0.0,0.0,0.0,0.0,0.0,0.0,0.0,0.0,0.0,0.0,0.0,0.0,0.0,0.0,0.0,0.0,0.0,0.0,0.0,0.0,0.0,0.0,0.0,0.0,0.0,0.0,0.0,0.0,0.0,0.0,0.0,0.0,0.0,0.0,0.0,0.0,0.0,0.0,0.0,0.0,0.0,0.0,0.0,0.0,0.0,0.0,0.0,0.0,0.0,0.0,0.0,0.0,0.0,-0.8595,-1.0613,-1.3384,-1.6113,-1.8703,-1.9887,-2.0801,-2.1384,-1.9443,-1.7271,0.0,0.0,0.0,0.0,0.0,0.0,0.0,0.0,0.0,0.0,0.0,0.0,0.0,0.0,0.0,0.0,0.0,0.0,0.0,0.0,0.0,0.0,0.0,0.0,0.0,0.0,0.0,0.0,0.0,0.0,0.0,0.0,0.0,0.0,0.0,0.0,0.0,0.0,0.0,0.0,0.0,0.0,-0.6218,-0.6876,0.0,0.0,0.0,-0.8095,-0.7506,0.0,0.0,0.0,0.0,0.0,0.0,0.0,0.0,0.0,0.0,0.0,0.0,0.0,0.0,0.0,0.0,0.0,0.0,0.0,0.0,0.0,0.0,0.0,0.0,0.0,0.0,0.0,0.0,0.0,0.0,0.0,0.0,0.0,0.0,0.0,0.0,0.0,0.0,0.0,0.0,0.0,0.0,0.0,0.0,0.0,0.0,0.0,0.0,0.0,0.0,0.0,0.0,0.0,0.0,0.0,0.0,0.0,-1.0838,-1.4001,-1.6655,-1.876,-2.0016,-2.0875,-2.1239,-1.8944,0.0,0.0,0.0,0.0,0.0,0.0,0.0,0.0,0.0,0.0,0.0,0.0,0.0,0.0,0.0,0.0,0.0,0.0,0.0,0.0,0.0,0.0,0.0,0.0,0.0,0.0,0.0,0.0382,0.0,0.0,0.0,0.0,0.0,0.0,0.0,0.0,0.0,0.0,0.0,0.0,0.0,0.0,-0.7277,-0.8302,-0.8938,-0.9555,0.0,0.0,-1.0134,-1.0006,-0.9331,-0.8227,0.0,0.0,0.0,0.0,0.0,0.0,0.0,0.0,0.0,0.0,0.0,0.0,0.0,0.0,0.0,0.0,0.0,0.0,0.0,0.0,0.0,0.0,0.0,0.0,0.0,0.0,0.0,0.0,0.0,0.0,0.0,0.0,0.0,0.0,0.0,0.0,0.0,0.0,0.0,0.0,0.0,0.0,0.0,0.0,0.0,0.0,0.0,0.0,0.0,0.0,0.0,0.0,0.0,0.0,0.0,-1.148,-1.4609,-1.7288,-1.936,-1.9966,-2.0497,-2.0978,-1.9738,-1.759,0.0,0.0,0.0,0.0,0.0,0.0,0.0,0.0,0.0,0.0,0.0,0.0,0.0,0.0,0.0,0.0,0.0,0.0,0.0,0.0,0.0,0.0,0.0,0.0,0.0,0.0,0.0,0.0,0.0,0.0,0.0,0.0,0.0,0.0,0.0,0.0,0.0,0.0,0.0,0.0,0.0,-0.9006,-1.0003,-1.1168,-1.1944,0.0,0.0,-1.2391,-1.2358,-1.1628,-1.0136,-0.7482,0.0,0.0,0.0,0.0,0.0,0.0,0.0,0.0,0.0,0.0,0.0,0.0,0.0,0.0,0.0,0.0,0.0,0.0,0.0,0.0,0.0,0.0,0.0,0.0,0.0,0.0,0.0,0.0,0.0,0.0,0.0,0.0,0.0,0.0,0.0,0.0,0.0,0.0,0.0,0.0,0.0,0.0,0.0,0.0,0.0,0.0,0.0,0.0,0.0,0.0,0.0,0.0,0.0,-1.0771,-1.2564,-1.6201,-1.8539,-1.949,-2.061,-2.103,-2.069,-1.9786,-1.8087,0.0,0.0,0.0,0.0,0.0,0.0,0.0,0.0,0.0,0.0,0.0,0.0,0.0,0.0,0.0,0.0,0.0,0.0,0.0,0.0,0.0,0.0,0.0,0.0,0.0,0.0,0.0,0.0,-0.3836,-0.4547,-0.3851,0.0,0.0,0.0,0.0,0.0,0.0,0.0,0.0,0.0,0.0,-1.1216,-1.2134,-1.2518,0.0,0.0,-1.3039,-1.287,-1.3114,-1.3253,-1.2885,-1.1565,-0.946,0.0,0.0,0.0,0.0,0.0,0.0,0.0,0.0,0.0,0.0,0.0,0.0,0.0,0.0,0.0,0.0,0.0,0.0,0.0,0.0,0.0,0.0,0.0,0.0,0.0,0.0,0.0,0.0,0.0,0.0,0.0,0.0,0.0,0.0,0.0,0.0,0.0,0.0,0.0,0.0,0.0,0.0,0.0,0.0,0.0,0.0,0.0,0.0,0.0,0.0,0.0,0.0,-1.1901,-1.3956,-1.7321,-1.9404,-2.0206,-2.1008,-2.1182,-2.0707,-1.9822,-1.8237,0.0,0.0,0.0,0.0,0.0,0.0,0.0,0.0,0.0,0.0,0.0,0.0,0.0,0.0,0.0,0.0,0.0,0.0,0.0,0.0,0.0,0.0,0.0,0.0,0.0,0.0,0.0,0.0,-0.3729,-0.3989,-0.4077,0.0,0.0,0.0,0.0,0.0,0.0,0.0,0.0,0.0,0.0,-1.2969,-1.3613,-1.3584,-1.374,-1.4428,-1.3898,-1.3673,-1.4245,-1.4479,-1.457,-1.4602,0.0,0.0,0.0,0.0,0.0,0.0,0.0,0.0,0.0,0.0,0.0,0.0,0.0,0.0,0.0,0.0,0.0,0.0,0.0,0.0,0.0,0.0,0.0,0.0,0.0,0.0,0.0,0.0,0.0,0.0,0.0,0.0,0.0,0.0,0.0,0.0,0.0,0.0,0.0,0.0,0.0,0.0,0.0,0.0,0.0,0.0,0.0,0.0,0.0,0.0,0.0,0.0,0.0,0.0,-1.5714,-1.7715,-1.9695,-2.1722,-2.099,-2.0777,-2.1094,-1.9905,-1.8054,-1.5566,0.0,0.0,0.0,0.0,0.0,0.0,0.0,0.0,0.0,0.0,0.0,0.0,0.0,0.0,0.0,0.0,0.0,0.0,0.0,0.0,0.0,0.0,0.0,0.0,0.0,0.0,-0.3379,-0.3553,-0.3591,0.0,0.0,0.0,0.0,0.0,0.0,0.0,0.0,0.0,0.0,-1.4519,-1.4023,-1.4205,-1.4471,-1.4844,-1.5401,-1.5081,-1.5099,-1.603,-1.5272,-1.484,0.0,0.0,0.0,0.0,0.0,0.0,0.0,0.0,0.0,0.0,0.0,0.0,0.0,0.0,0.0,0.0,0.0,0.0,0.0,0.0,0.0,0.0,0.0,0.0,0.0,0.0,0.0,-1.2105,-1.0786,0.0,0.0,0.0,0.0,0.0,0.0,0.0,0.0,0.0,0.0,0.0,-1.4792,-1.5734,0.0,0.0,0.0,0.0,0.0,0.0,0.0,0.0,0.0,0.0,0.0,0.0,-1.4605,-1.6826,-1.974,-2.1437,-2.1756,-2.1763,-2.1432,-2.0748,-1.9957,-1.8143,-1.5204,0.0,0.0,0.0,0.0,0.0,0.0,0.0,0.0,0.0,0.0,0.0,0.0,0.0,0.0,0.0,0.0,0.0,0.0,0.0,0.0,0.0,0.0,0.0,0.0,0.0,-0.3963,0.0,0.0,0.0,0.0,0.0,0.0,0.0,0.0,0.0,0.0,0.0,-1.4352,-1.638,-1.5808,-1.5383,-1.5861,-1.563,-1.5662,0.0,0.0,0.0,0.0,0.0,0.0,0.0,0.0,0.0,0.0,0.0,0.0,0.0,0.0,-1.7156,-1.5191,-1.1683,-0.9798,-1.2401,0.0,0.0,0.0,0.0,0.0,0.0,0.0,0.0,0.0,0.0,0.0,0.0,0.0,0.0,0.0,0.0,-1.3515,0.0,0.0,0.0,0.0,0.0,0.0,0.0,0.0,-1.5336,-1.6779,-1.7423,-1.8488,-1.8979,0.0,-1.8876,-1.7582,0.0,0.0,0.0,0.0,0.0,0.0,0.0,0.0,-1.6558,-1.8342,-2.098,-2.2325,-2.2289,-2.2206,-2.1779,-2.1007,-1.9821,-1.7991,-1.5396,-1.32,-1.1314,0.0,0.0,0.0,0.0,0.0,0.0,0.0,0.0,0.0,0.0,0.0,0.0,0.0,0.0,0.0,0.0,0.0,0.0,0.0,0.0,0.0,0.0,0.0,-0.4366,0.0,0.0,0.0,0.0,0.0,0.0,0.0,0.0,0.0,-1.0677,-1.4146,-1.6743,-1.7478,-1.6711,-1.6233,-1.6709,0.0,0.0,0.0,0.0,0.0,0.0,0.0,-1.9998,-2.2078,-2.2067,-2.1209,-1.9416,-1.9214,-1.9366,-1.9495,0.0,0.0,-1.7687,-1.5263,-1.4064,-1.6073,-1.6858,-1.7569,-1.8868,-1.8913,-1.8311,0.0,0.0,0.0,0.0,0.0,0.0,0.0,0.0,-1.8202,-1.8121,0.0,-1.7319,0.0,0.0,0.0,0.0,0.0,0.0,0.0,0.0,-1.8725,-1.9984,-1.9845,-2.0149,-2.0535,-2.0944,-2.1582,-2.1038,-1.9336,-1.6927,0.0,0.0,0.0,0.0,0.0,0.0,-1.9,-2.0209,-2.1388,-2.2424,-2.3294,-2.2312,-2.1743,-2.1748,-1.9559,-1.7636,-1.6155,-1.4253,-1.2066,-0.9508,-0.7953,0.0,0.0,0.0,0.0,0.0,0.0,0.0,0.0,0.0,0.0,0.0,0.0,0.0,0.0,0.0,0.0,0.0,0.0,0.0,0.0,-0.5212,0.0,0.0,0.0,0.0,0.0,0.0,0.0,0.0,0.0,0.0,-1.414,-1.6479,-1.8078,-1.809,0.0,0.0,0.0,0.0,-1.705,-1.8168,-1.8434,-1.8748,-1.9449,-2.1477,-2.2578,-2.1574,0.0,0.0,-2.0012,-2.0194,-2.0387,-2.0029,-2.0292,-2.0691,-2.0988,-2.1193,-2.1125,-2.0102,-1.961,-1.9565,-1.9241,-1.8229,-1.727,-2.1615,0.0,0.0,0.0,0.0,-1.8308,-1.9049,-1.9653,-2.0531,-2.0425,-1.9572,-1.9386,0.0,0.0,0.0,0.0,0.0,0.0,-1.7761,-1.8218,-1.9217,-1.9972,-2.0526,-2.0861,-2.1123,-2.135,-2.1691,-2.1955,-2.2082,-2.0856,-1.8905,-1.6395,0.0,0.0,0.0,0.0,-2.0283,-2.1143,-2.2453,-2.3094,-2.3046,-2.2449,-2.1664,-2.071,-1.9181,-1.7774,-1.6502,-1.514,-1.3397,-1.1249,-0.9459,0.0,0.0,0.0,0.0,0.0,0.0,0.0,0.0,0.0,0.0,0.0,0.0,0.0,0.0,0.0,0.0,0.0,0.0,0.0,-0.5603,-0.5815,-0.6139,0.0,0.0,0.0,0.0,0.0,0.0,0.0,0.0,0.0,-1.4965,-1.6583,-1.775,0.0,0.0,-1.7275,-1.7624,-1.7748,-1.8118,-1.9014,0.0,0.0,0.0,-2.1605,-2.3031,-2.305,-2.2644,-2.206,-2.1338,-2.1089,-2.1046,-2.1213,-2.0545,-2.036,-2.1625,-2.2339,-2.2111,-2.0694,-1.9149,-1.8176,-1.8316,-1.7902,-1.7328,-2.3703,-2.232,-2.0468,-1.9591,-1.9526,-2.0501,-2.1123,-2.151,-2.2393,-2.2325,-2.163,-2.1599,-2.0886,-1.9594,-1.8515,0.0,0.0,0.0,-1.8803,-1.923,-1.9455,-1.9873,-2.0478,-2.0728,-2.0974,-2.1246,-2.1677,-2.2239,-2.2917,-2.2825,-2.1556,-1.923,0.0,0.0,-1.9127,-2.0576,-2.1516,-2.1936,-2.2951,-2.333,-2.3025,-2.2344,-2.1475,-2.0416,-1.9073,-1.7795,-1.6631,-1.5098,-1.3471,-1.1652,-0.9756,-0.7917,0.0,0.0,0.0,0.0,0.0,0.0,0.0,0.0,0.0,0.0,0.0,-0.6601,0.0,0.0,0.0,0.0,-0.5852,-0.6958,-0.7187,-0.777,0.0,0.0,0.0,0.0,0.0,0.0,0.0,-1.2166,-1.3621,-1.4802,-1.5351,-1.6748,-1.7787,-1.7988,-1.7687,-1.7624,-1.8011,0.0,-1.8761,-1.9445,-2.0277,-2.0859,-2.0896,-2.1908,-2.2708,-2.2689,-2.2463,-2.2087,-2.1518,-2.1312,-2.1375,-2.157,-2.1268,-2.1116,-2.1906,-2.2122,-2.1961,-2.1027,-1.9149,-1.7717,-1.7617,-1.7459,-1.7109,-2.5069,-2.509,-2.3135,-2.2111,-2.1832,-2.2905,-2.3131,-2.2824,-2.3632,-2.3751,-2.3312,-2.3616,-2.2772,-2.1009,-1.9754,0.0,0.0,-1.9601,-1.9575,-1.9507,-1.9586,-1.9746,-1.9995,-2.0071,-2.0337,-2.076,-2.1558,-2.2095,-2.2392,-2.3291,-2.3572,-2.3191,-2.2422,-2.2119,-2.2291,-2.2499,-2.2615,-2.2568,-2.3045,-2.3253,-2.3103,-2.2039,-2.1182,-2.0603,-1.9082,-1.7641,-1.6375,-1.4375,-1.2562,-1.0997,-0.9152,-0.765,-0.6587,0.0,0.0,0.0,0.0,0.0,0.0,0.0,0.0,0.0,0.0,0.0,0.0,0.0,0.0,0.0,-0.776,0.0,-0.9197,-1.0318,0.0,0.0,0.0,-1.1646,-1.2328,-1.3338,-1.3897,-1.3724,0.0,0.0,0.0,0.0,-1.7857,-1.7896,-1.7723,-1.7681,-1.7915,-1.8367,-1.8926,-1.9465,-2.0229,-2.1131,-2.196,-2.2182,-2.1921,-2.1286,-2.149,-2.1676,-2.1134,-2.1155,-2.14,-2.178,-2.2273,-2.2475,-2.1865,-2.1207,-2.0772,-2.1169,-1.955,-1.7783,-1.7004,-1.6839,-1.6594,-2.6128,-2.5676,-2.477,-2.3755,-2.2793,-2.3226,-2.3301,-2.3172,-2.3287,-2.3264,-2.3131,-2.2683,-2.1996,-2.1066,-2.0726,-2.0534,-2.0398,-1.9915,-1.9978,-2.0492,-2.0042,-1.9857,-1.9938,-2.0232,-2.0322,-2.0244,-2.0947,-2.1768,-2.2611,-2.3217,-2.4002,-2.4907,-2.4381,-2.3682,-2.2917,-2.2946,-2.3063,-2.3271,-2.3283,-2.3022,-2.2439,-2.1582,-2.0671,-1.9716,-1.8352,-1.6601,-1.4477,-1.3027,-1.1456,-0.9713,-0.8342,-0.7198,-0.6325,-0.484,0.0,0.0,0.0,0.0,0.0,0.0,0.0,0.0,0.0,-0.7527,-0.8325,0.0,-0.6333,0.0,-0.9024,-1.0484,-0.8767,-1.0048,0.0,0.0,-1.216,-1.2702,-1.4104,-1.4414,-1.4542,-1.4635,-1.5545,-1.6477,-1.7279,-1.7034,-1.6877,-1.7154,-1.7366,-1.7483,-1.7417,-1.79,-1.8531,-1.9262,-1.9925,-2.0794,-2.1683,-2.1921,-2.1606,-2.0799,-2.1382,-2.17,-2.1199,-2.1234,-2.1553,-2.2354,-2.2664,-2.2424,-2.1576,-2.0665,-2.0039,-1.9846,-1.8751,-1.7507,-1.6634,-1.635,-1.6075,-2.6251,-2.5853,-2.5203,-2.4462,-2.3698,-2.3863,-2.3636,-2.3161,-2.3016,-2.2713,-2.2232,-2.1626,-2.1104,-2.0661,-2.0579,-2.0276,-1.9856,-1.9598,-1.9584,-1.9739,-1.9624,-1.9555,-1.9488,-1.9868,-2.0116,-2.026,-2.0873,-2.1751,-2.2829,-2.3359,-2.4144,-2.5134,-2.4654,-2.4082,-2.3482,-2.3361,-2.3312,-2.3277,-2.3289,-2.2879,-2.2025,-2.1118,-2.0236,-1.9369,-1.8044,-1.6465,-1.4554,-1.305,-1.1389,-0.9606,-0.8298,-0.7127,-0.6033,-0.4966,-0.4148,0.0,0.0,0.0,0.0,0.0,0.0,0.0,0.0,0.0,0.0,0.0,-0.8072,0.0,-1.0546,0.0,-1.021,-1.1678,-1.3031,-1.3788,-1.4039,-1.4508,-1.5343,-1.547,-1.5535,-1.561,-1.6146,-1.6918,-1.7846,-1.7413,-1.6745,-1.6254,-1.6691,-1.7097,-1.7204,-1.7591,-1.8018,-1.8461,-1.8905,-1.9504,-2.031,-2.0584,-2.0595,-2.0401,-2.0644,-2.0915,-2.0971,-2.0901,-2.1167,-2.2094,-2.2269,-2.1938,-2.1136,-2.0576,-1.9998,-1.9202,-1.7963,-1.6731,-1.5925,-1.5786,-1.562,-2.6038,-2.597,-2.5172,-2.4702,-2.4494,-2.4482,-2.3902,-2.299,-2.2791,-2.2007,-2.0856,-2.0332,-1.9965,-1.971,-1.948,-1.9066,-1.8659,-1.8784,-1.8669,-1.8341,-1.8872,-1.9051,-1.8934,-1.9357,-1.9835,-2.0318,-2.1019,-2.1847,-2.2798,-2.3489,-2.4084,-2.4517,-2.4175,-2.3898,-2.3802,-2.3647,-2.3325,-2.2906,-2.3035,-2.2643,-2.1736,-2.0665,-1.9803,-1.9115,-1.7776,-1.6444,-1.5095,-1.3335,-1.1569,-0.9855,-0.8524,-0.7226,-0.5915,-0.5143,-0.4682,0.0,-0.4119,0.0,0.0,0.0,0.0,0.0,0.0,0.0,0.0,-0.9082,-0.9347,-1.026,-1.2027,-1.2857,-1.2163,-1.3838,-1.5108,-1.5436,-1.6057,-1.6366,-1.614,-1.6324,-1.6477,-1.6407,-1.6808,-1.7318,-1.7885,-1.7678,-1.6763,-1.5609,-1.5948,-1.6495,-1.6826,-1.7093,-1.7305,-1.7369,-1.7651,-1.8199,-1.8506,-1.8801,-1.9116,-1.9478,-1.9735,-1.9913,-2.0579,-2.0419,-2.0545,-2.1451,-2.1433,-2.1024,-2.0469,-2.0389,-2.0008,-1.8895,-1.7168,-1.5735,-1.5178,-1.525,-1.5068,-2.6816,-2.6716,-2.582,-2.5254,-2.4893,-2.3998,-2.3427,-2.3056,-2.2364,-2.1004,-1.9164,-1.8835,-1.8344,-1.7734,-1.7174,-1.7227,-1.7632,-1.7259,-1.7548,-1.8322,-1.8702,-1.8882,-1.8958,-1.9698,-1.9765,-1.9321,-2.0791,-2.1632,-2.1804,-2.2927,-2.3788,-2.4343,-2.4363,-2.4009,0.0,0.0,0.0,0.0,-2.222,-2.1845,-2.1228,-2.0177,-1.9144,-1.8088,-1.6636,0.0,-1.2907,-1.1435,-1.0166,-0.9046,-0.8093,0.0,0.0,0.0,0.0,0.0,0.0,0.0,0.0,0.0,0.0,0.0,-0.8359,-0.8073,-0.8566,-0.9422,-1.0211,-1.0908,-1.3,-1.3606,-1.1864,-1.3858,-1.5413,-1.5717,-1.637,-1.6608,-1.6101,-1.6308,-1.6466,-1.6407,-1.6481,-1.6931,-1.7727,-1.6684,-1.561,-1.5296,-1.5475,-1.5573,-1.5394,-1.5983,-1.643,-1.6584,-1.709,-1.7494,-1.7289,-1.7248,-1.751,-1.8044,-1.9098,-1.975,-1.9944,-2.011,-2.0411,-2.1174,-2.072,-2.0008,-1.943,-1.9388,-1.91,-1.7785,-1.6446,-1.5242,-1.4471,-1.4662,-1.48,-2.7455,0.0,-2.6499,-2.5679,0.0,-2.3759,-2.2871,-2.2166,-2.1548,-2.0057,-1.8037,-1.7463,-1.683,-1.6162,-1.5851,-1.5864,-1.6164,-1.62,-1.6631,-1.7435,-1.7891,-1.8231,-1.8485,-1.9128,-1.9465,-1.9578,-2.0497,-2.1355,-2.2075,-2.2703,-2.3355,-2.4036,-2.4177,-2.3996,-2.3494,-2.3062,-2.2508,-2.1807,-2.1597,-2.1228,-2.0633,-1.9702,-1.8699,-1.767,0.0,0.0,0.0,0.0,0.0,0.0,0.0,0.0,0.0,0.0,0.0,-0.6461,-0.6439,-0.6402,-0.6351,-0.6959,-0.7751,-0.8671,-0.8954,-0.9191,-0.943,-1.0493,-1.1336,-1.183,-1.3582,-1.4105,-1.2786,-1.4182,-1.5612,-1.6465,-1.6943,-1.7036,-1.6945,-1.7006,-1.6934,-1.6627,-1.656,-1.6787,-1.7151,-1.6386,-1.551,-1.5041,-1.4953,-1.4976,-1.5066,-1.5476,-1.5723,-1.5432,-1.5737,-1.6106,-1.6162,-1.6123,-1.6489,-1.7501,-1.8073,-1.8621,-1.9262,-1.943,-1.9676,-2.0092,-1.9846,-1.9306,-1.838,-1.8434,-1.8292,-1.684,-1.542,-1.4144,-1.3162,-1.3447,-1.3776,-2.8002,-2.752,-2.6919,-2.5793,-2.4315,-2.3389,-2.2092,-2.0642,0.0,0.0,0.0,-1.6036,-1.534,-1.4817,-1.4775,-1.4699,-1.4721,-1.5234,-1.572,-1.6197,-1.6761,-1.7278,-1.7763,-1.8279,-1.902,-1.9898,-2.034,-2.1174,-2.2355,-2.2575,-2.302,-2.3588,-2.3754,-2.3717,-2.3497,-2.2589,-2.1811,-2.1183,-2.1071,-2.0714,-2.0035,-1.9258,-1.8361,-1.7372,-1.6829,-1.5711,-1.4001,-1.3357,-1.2088,-1.0019,-0.9234,-0.8362,-0.7298,-0.681,-0.6972,-0.7821,-0.7965,-0.8051,-0.8113,-0.8264,-0.8248,-0.7992,-0.9247,-1.0132,-1.0385,-1.1523,-1.2298,-1.2505,-1.3779,-1.4351,-1.38,-1.464,-1.5695,-1.6884,-1.7313,-1.7571,-1.7592,-1.7638,-1.7352,-1.6889,-1.6663,-1.6582,-1.6461,-1.6065,-1.55,-1.4575,-1.4335,-1.4505,-1.4901,-1.5089,-1.4971,-1.4408,-1.4422,-1.457,-1.5042,-1.5574,-1.6054,-1.7046,-1.7007,-1.7274,-1.8211,-1.86,-1.8694,-1.8929,-1.8959,-1.8393,-1.7431,-1.7451,-1.7292,-1.5927,-1.4213,-1.276,-1.1977,-1.2035,-1.2301,-2.8448,-2.778,-2.6719,-2.5231,-2.3481,-2.2541,-2.0717,-1.8311,-1.8056,-1.6982,-1.5364,-1.4325,-1.3762,-1.363,-1.3467,-1.355,-1.3888,-1.4138,-1.4498,0.0,-1.5448,-1.605,-1.6742,-1.7831,-1.8436,-1.8796,-2.0601,-2.1374,-2.1306,-2.2428,-2.3036,-2.3029,-2.3046,-2.2784,-2.2139,-2.118,-2.052,-2.0218,-2.0628,-2.0361,-1.9358,-1.8893,-1.8023,-1.6773,-1.6151,-1.5158,-1.3708,-1.2943,-1.2194,-1.1496,-1.0404,-0.9559,-0.8994,-0.8511,-0.8113,-0.7644,-0.7903,-0.8238,-0.8568,-0.8101,-0.7973,-0.8336,-0.8956,-0.9539,-1.0051,-1.171,-1.2546,-1.2267,-1.3372,-1.414,-1.4303,-1.5108,-1.5596,-1.5626,-1.6989,-1.7728,-1.7101,-1.7167,-1.7245,-1.7117,-1.647,-1.6129,-1.6243,-1.5478,-1.4384,-1.3329,-1.368,-1.4143,-1.4124,-1.4274,-1.4093,-1.3739,-1.3645,-1.3793,-1.432,-1.5573,-1.6158,-1.6017,-1.6247,-1.6534,-1.7313,-1.7646,-1.7867,-1.8104,-1.7839,-1.7379,-1.6815,-1.6216,-1.5711,-1.481,-1.2873,-1.1305,-1.1455,-1.1062,-1.0679,-2.9084,-2.8018,-2.6996,-2.5209,-2.2918,-2.0946,-1.8903,-1.6985,-1.6489,-1.5755,-1.48,-1.3657,-1.2899,-1.2531,-1.2215,-1.2368,-1.2831,-1.3101,-1.358,-1.4171,-1.4672,-1.53,-1.6054,-1.695,-1.7696,-1.8391,-1.9691,-2.0437,-2.0724,-2.1753,-2.2319,-2.2397,-2.24,-2.2313,-2.2123,-2.139,-2.0689,-2.0012,-2.0094,-1.9737,-1.8884,-1.8316,-1.7571,-1.6653,-1.5821,-1.4834,-1.3699,-1.287,-1.2011,-1.1029,-1.0162,-0.9385,-0.8802,-0.8596,-0.8289,-0.7847,-0.7653,-0.7845,-0.8504,-0.7927,-0.7744,-0.8096,-0.8578,-0.9093,-0.964,-1.089,-1.1904,-1.2493,-1.3382,-1.4035,-1.4373,-1.5017,-1.5497,-1.5694,-1.6567,-1.7091,-1.7203,-1.7203,-1.7217,-1.7134,-1.6428,-1.5912,-1.5855,-1.5069,-1.4082,-1.3077,-1.3485,-1.3584,-1.2719,-1.305,-1.3404,-1.3243,-1.341,-1.3641,-1.3934,-1.4916,-1.5576,-1.5482,-1.5421,-1.5664,-1.6175,-1.6559,-1.6759,-1.6793,-1.6722,-1.6403,-1.5828,-1.5843,-1.5255,-1.3752,-1.2101,-1.0889,-1.0551,-0.9898,-0.9662,-2.9312,-2.8027,-2.6958,-2.4902,-2.2067,-1.9379,-1.7561,-1.6464,-1.5647,-1.5048,-1.4507,-1.3287,-1.2449,-1.1863,-1.152,-1.1567,-1.1902,-1.2197,-1.2725,-1.3437,-1.3935,-1.4567,-1.538,-1.6097,-1.7065,-1.821,-1.8929,-1.971,-2.0592,-2.1211,-2.1567,-2.1738,-2.1719,-2.1802,-2.1988,-2.1403,-2.0712,-1.9964,-1.9619,-1.907,-1.8299,-1.786,-1.7251,-1.6358,-1.5572,-1.4665,-1.3602,-1.2856,-1.1875,-1.0613,-0.9882,-0.9239,-0.8562,-0.8435,-0.829,-0.798,-0.748,-0.7488,-0.8103,-0.7836,-0.7682,-0.7894,-0.8321,-0.8856,-0.9491,-1.019,-1.1116,-1.2298,-1.3146,-1.3813,-1.4176,-1.4651,-1.5153,-1.5662,-1.6038,-1.6517,-1.7134,-1.7184,-1.7106,-1.7022,-1.6304,-1.5642,-1.5352,-1.4697,-1.3826,-1.3103,-1.3078,-1.2573,-1.1638,-1.2128,-1.2572,-1.2868,-1.3221,-1.3581,-1.3755,-1.4403,-1.4933,-1.5122,-1.4705,-1.4788,-1.5223,-1.5621,-1.5762,-1.5798,-1.586,-1.5625,-1.4901,-1.5244,-1.5027,-1.3509,-1.173,-1.0249,-0.9615,-0.9219,-0.8985,-2.8614,-2.7425,-2.6007,-2.3509,-2.056,-1.845,-1.736,-1.6875,-1.572,-1.493,-1.4448,-1.3206,-1.2486,-1.2152,-1.1929,-1.1639,-1.1352,-1.1491,-1.1936,-1.2546,-1.2888,-1.3607,-1.4639,-1.5556,-1.6694,-1.7968,-1.8899,-1.9932,-2.1072,-2.1128,-2.1132,-2.1053,-2.0856,-2.0754,-2.0717,-2.026,-1.9907,-1.9721,-1.923,-1.8446,-1.7442,-1.7856,-1.7214,-1.5289,-1.5333,-1.4647,-1.3198,-1.2648,-1.2046,-1.1246,-1.0372,-0.9679,-0.9141,-0.8873,-0.8383,-0.7635,-0.7503,-0.7521,-0.7607,-0.7735,-0.7887,-0.7931,-0.8347,-0.8988,-0.9814,-1.0208,-1.0582,-1.1284,-1.2467,-1.3338,-1.3681,-1.4152,-1.4451,-1.4381,-1.5386,-1.628,-1.6412,-1.6672,-1.6825,-1.686,-1.5892,-1.5294,-1.5235,-1.4192,-1.3149,-1.2527,-1.1973,-1.1722,-1.1742,-1.1811,-1.2077,-1.2372,-1.2868,-1.3301,-1.3557,-1.4141,-1.4517,-1.4571,-1.4082,-1.4065,-1.4561,-1.4892,-1.507,-1.5098,-1.5141,-1.4843,-1.4633,-1.4681,-1.4442,-1.3325,-1.1546,-0.9766,-0.9139,-0.881,-0.878,-2.8813,-2.7282,-2.5894,-2.3338,-2.0269,-1.8995,-1.792,-1.6944,-1.6389,-1.5778,-1.5099,-1.4328,-1.3246,-1.2033,-1.1705,-1.1465,-1.1377,-1.1433,-1.1778,-1.2416,-1.3078,-1.3598,-1.4116,-1.5427,-1.6467,-1.7184,-1.8353,-1.9262,-1.9906,-2.0247,-2.0404,-2.0333,-1.9863,-1.9928,-2.0481,-1.994,-1.9592,-1.9452,-1.9444,-1.8568,-1.7036,-1.7039,-1.6773,-1.5845,-1.4931,-1.4199,-1.3446,-1.2413,-1.155,-1.093,-0.9852,-0.9065,-0.869,-0.8219,-0.7847,-0.7534,-0.758,-0.7649,-0.7754,-0.7931,-0.8102,-0.8117,-0.849,-0.9028,-0.9684,-1.0087,-1.0565,-1.1368,-1.228,-1.2842,-1.2827,-1.3729,-1.4186,-1.3902,-1.4589,-1.5299,-1.5631,-1.6014,-1.6275,-1.6208,-1.5497,-1.4942,-1.4756,-1.3282,-1.2219,-1.2089,-1.1639,-1.1316,-1.1533,-1.1711,-1.1872,-1.2009,-1.2452,-1.2863,-1.3156,-1.3557,-1.3811,-1.363,-1.3375,-1.3411,-1.363,-1.384,-1.3949,-1.4165,-1.4065,-1.392,-1.36,-1.3579,-1.3368,-1.2439,-1.0938,-0.9125,-0.8993,-0.86,-0.8415,-2.8804,-2.7142,-2.5503,-2.2977,-2.013,-1.9649,-1.8688,-1.747,-1.7078,-1.658,-1.5951,-1.5238,-1.3935,-1.2376,-1.1784,-1.1522,-1.1349,-1.1276,-1.1635,-1.2378,-1.3129,-1.3577,-1.3973,-1.5263,-1.6246,-1.6817,-1.7717,-1.8401,-1.8832,-1.9518,-1.9805,-1.9643,-1.9195,-1.9341,-2.0066,-1.9548,-1.9258,-1.9221,-1.9316,-1.8502,-1.7017,-1.658,-1.6214,-1.5676,-1.4583,-1.3742,-1.3231,-1.2057,-1.1082,-1.0431,-0.9402,-0.8622,-0.8165,-0.7841,-0.7681,-0.7701,-0.774,-0.7875,-0.8114,-0.823,-0.8333,-0.8432,-0.8695,-0.908,-0.9595,-1.0069,-1.0693,-1.1452,-1.2042,-1.2264,-1.2298,-1.2987,-1.3338,-1.3158,-1.3854,-1.4529,-1.496,-1.5507,-1.5912,-1.57,-1.5206,-1.4597,-1.4082,-1.2566,-1.1519,-1.1758,-1.1464,-1.1235,-1.1301,-1.1539,-1.167,-1.1721,-1.2075,-1.251,-1.2945,-1.3346,-1.3309,-1.301,-1.2863,-1.2826,-1.29,-1.3119,-1.3229,-1.363,-1.3266,-1.2929,-1.2666,-1.2519,-1.2224,-1.1329,-1.0094,-0.9046,-0.9205,-0.8665,-0.8284,-2.8154,-2.688,-2.4391,-2.2175,-2.0107,-1.9911,-1.9371,-1.8549,-1.7743,-1.7228,-1.6851,-1.559,-1.4296,-1.3227,-1.2599,-1.1775,-1.1012,-1.0942,-1.1434,-1.2298,-1.2714,-1.3357,-1.4277,-1.5019,-1.6035,-1.7032,-1.7211,-1.7605,-1.8272,-1.9179,-1.9454,-1.8959,-1.896,-1.9074,-1.9262,-1.8931,-1.8765,-1.8883,-1.8514,-1.7972,-1.7456,-1.6697,-1.5659,-1.4552,-1.4264,-1.3513,-1.2153,-1.1597,-1.0866,-0.97,-0.9284,-0.8672,-0.788,-0.8106,-0.8221,-0.8219,-0.8017,-0.8108,-0.8555,-0.8585,-0.8617,-0.8765,-0.8898,-0.9237,-0.9788,-1.0275,-1.0769,-1.1276,-1.1578,-1.1828,-1.1977,-1.1868,-1.197,-1.2451,-1.3426,-1.4072,-1.4453,-1.5343,-1.5727,-1.5381,-1.504,-1.433,-1.2911,-1.2019,-1.1485,-1.1335,-1.1027,-1.0983,-1.1331,-1.1266,-1.1298,-1.1565,-1.1757,-1.2063,-1.3121,-1.3273,-1.3163,-1.29,-1.2526,-1.2452,-1.29,-1.32,-1.3127,-1.3053,-1.2746,-1.2335,-1.1855,-1.1366,-1.0913,-1.0389,-1.0137,-0.9576,-0.9354,-0.9236,-0.878,-2.74,-2.5664,-2.4352,-2.261,-2.0881,-2.0785,-2.02,-1.9137,-1.8872,-1.843,-1.7726,-1.6639,-1.5634,-1.4698,-1.3476,-1.2265,-1.1179,-1.1276,-1.1632,-1.2144,-1.2774,-1.3298,-1.382,-1.4777,-1.5445,-1.5983,-1.6645,-1.7245,-1.7784,-1.8596,-1.8782,-1.8518,-1.8632,-1.8858,-1.9007,-1.893,-1.8663,-1.8244,-1.818,-1.7795,-1.6796,-1.6029,-1.5259,-1.4492,-1.403,-1.3317,-1.2303,-1.1134,-1.0221,-0.9663,-0.8698,-0.799,-0.775,-0.7708,-0.7881,-0.8224,-0.8115,-0.8192,-0.8575,-0.8705,-0.8733,-0.881,-0.8997,-0.9439,-1.002,-1.0267,-1.0488,-1.0922,-1.1124,-1.1326,-1.1502,-1.1402,-1.1583,-1.2209,-1.2743,-1.3424,-1.4183,-1.4859,-1.5128,-1.4922,-1.4725,-1.407,-1.2666,-1.156,-1.1146,-1.1418,-1.1082,-1.1088,-1.1458,-1.1357,-1.1149,-1.14,-1.1467,-1.1533,-1.1773,-1.2445,-1.2599,-1.2378,-1.212,-1.1935,-1.212,-1.2077,-1.2003,-1.204,-1.1892,-1.1558,-1.0999,-1.0625,-1.0056,-0.9604,-0.9349,-0.9846,-0.9435,-0.9203,-0.8665,-2.6552,-2.4756,-2.4174,-2.29,-2.1296,-2.1286,-2.0589,-1.947,-1.9434,-1.9076,-1.8279,-1.7305,-1.6343,-1.5432,-1.4048,-1.2811,-1.1745,-1.1839,-1.2031,-1.2314,-1.2872,-1.3302,-1.3691,-1.4391,-1.4882,-1.5248,-1.6139,-1.6881,-1.7389,-1.7949,-1.8092,-1.794,-1.8194,-1.8416,-1.8495,-1.8437,-1.8089,-1.7698,-1.7614,-1.7082,-1.6085,-1.5368,-1.4684,-1.4047,-1.3563,-1.2964,-1.2228,-1.0743,-0.9822,-0.9434,-0.8297,-0.7601,-0.7499,-0.7386,-0.756,-0.8074,-0.8119,-0.8324,-0.8775,-0.8827,-0.8882,-0.9058,-0.9256,-0.9658,-1.021,-1.0336,-1.0506,-1.0641,-1.0922,-1.1124,-1.1242,-1.1301,-1.1533,-1.2121,-1.2541,-1.3059,-1.3902,-1.4406,-1.456,-1.4449,-1.416,-1.3467,-1.239,-1.1279,-1.1015,-1.1472,-1.112,-1.1189,-1.1632,-1.1377,-1.108,-1.1235,-1.1032,-1.0953,-1.1106,-1.1546,-1.1816,-1.1632,-1.1632,-1.1409,-1.1341,-1.1186,-1.1037,-1.1037,-1.085,-1.055,-1.0218,-0.9879,-0.9425,-0.8932,-0.9571,-1.0255,-0.9728,-0.9089,-0.8551,-2.5557,-2.4174,-2.3777,-2.2728,-2.1346,-2.1109,-2.055,-1.9738,-1.9404,-1.9063,-1.8575,-1.7409,-1.6457,-1.5469,-1.4386,-1.3319,-1.2702,-1.2498,-1.2533,-1.2785,-1.2975,-1.3348,-1.3841,-1.3903,-1.433,-1.5004,-1.5724,-1.6409,-1.6991,-1.7337,-1.7506,-1.7565,-1.7835,-1.7917,-1.755,-1.7456,-1.7261,-1.7086,-1.6653,-1.6019,-1.5469,-1.4785,-1.3954,-1.3076,-1.2876,-1.2429,-1.1622,-1.0462,-0.9656,-0.9175,-0.8358,-0.7672,-0.7269,-0.7377,-0.7572,-0.8057,-0.8118,-0.8584,-0.9203,-0.9064,-0.9132,-0.9455,-0.9708,-0.9865,-1.0303,-1.0804,-1.0947,-1.0659,-1.0863,-1.1267,-1.1285,-1.1388,-1.1609,-1.202,-1.2843,-1.3423,-1.3593,-1.4046,-1.438,-1.404,-1.3567,-1.2767,-1.205,-1.1185,-1.0821,-1.1076,-1.1164,-1.123,-1.1533,-1.1114,-1.0923,-1.0896,-1.0684,-1.0447,-1.0557,-1.0695,-1.0838,-1.0925,-1.0999,-1.0962,-1.1005,-1.0925,-1.07,-1.0625,-1.0406,-1.0105,-0.9647,-0.9311,-0.9273,-0.9079,-0.9949,-1.0363,-0.9539,-0.8822,-0.8475,-2.4873,-2.4084,-2.3379,-2.2567,-2.1519,-2.1022,-2.049,-2.0038,-1.9666,-1.9322,-1.8883,-1.7945,-1.708,-1.6245,-1.519,-1.4255,-1.3635,-1.338,-1.3063,-1.2815,-1.3139,-1.3475,-1.3765,-1.3803,-1.4148,-1.4789,-1.5319,-1.5728,-1.6204,-1.6956,-1.7424,-1.7521,-1.8043,-1.8147,-1.7745,-1.7483,-1.702,-1.6256,-1.597,-1.5547,-1.4883,-1.4152,-1.3514,-1.2989,-1.2142,-1.1443,-1.1042,-1.0423,-0.9749,-0.9027,-0.8242,-0.7596,-0.7389,-0.8203,-0.8906,-0.9199,-0.9418,-0.9543,-0.9659,-0.9555,-0.9551,-0.9799,-0.9848,-1.0283,-1.0998,-1.1167,-1.1368,-1.146,-1.1343,-1.1074,-1.1345,-1.1856,-1.2215,-1.2513,-1.3117,-1.3588,-1.3675,-1.3793,-1.3825,-1.3821,-1.3346,-1.2705,-1.1996,-1.116,-1.0728,-1.0898,-1.1028,-1.1156,-1.1085,-1.085,-1.0536,-1.0435,-1.0128,-1.009,-1.0331,-1.0392,-1.0373,-1.0331,-1.0331,-1.0443,-1.0556,-1.0519,-1.0293,-1.0105,-0.9884,-0.9614,-0.9155,-0.8927,-0.8927,-0.9458,-1.0288,-0.9949,-0.9008,-0.8551,-0.8318,-2.4174,-2.3429,-2.2878,-2.2283,-2.1659,-2.109,-2.0801,-2.0662,-2.02,-1.9909,-1.9499,-1.8503,-1.759,-1.6798,-1.5666,-1.4727,-1.4137,-1.4018,-1.3646,-1.3113,-1.3233,-1.3513,-1.3673,-1.3633,-1.4025,-1.4643,-1.49,-1.5268,-1.5822,-1.6434,-1.6771,-1.6932,-1.7403,-1.7406,-1.7054,-1.6847,-1.6315,-1.5557,-1.5161,-1.4798,-1.4218,-1.3432,-1.285,-1.2404,-1.1316,-1.0673,-1.0548,-0.988,-0.9426,-0.9214,-0.8665,-0.7986,-0.7362,-0.8532,-0.9724,-1.0281,-1.0198,-1.0047,-1.0127,-1.001,-1.0036,-1.0285,-1.0402,-1.0695,-1.1437,-1.1477,-1.1877,-1.2101,-1.1569,-1.1124,-1.1353,-1.1733,-1.2244,-1.2567,-1.3042,-1.3416,-1.358,-1.3459,-1.3307,-1.3285,-1.3103,-1.2613,-1.1879,-1.116,-1.0656,-1.0744,-1.0839,-1.0933,-1.0744,-1.0498,-1.025,-1.0022,-0.9872,-0.9974,-1.0265,-1.0194,-0.9954,-0.9809,-0.9663,-0.9809,-0.9992,-0.9846,-0.9663,-0.9544,-0.9354,-0.9236,-0.8813,-0.8813,-0.8851,-0.9755,-1.0438,-0.9949,-0.9268,-0.878,-0.847,-2.3429,-2.2476,-2.2173,-2.1928,-2.1676,-2.1304,-2.1279,-2.1443,-2.0913,-2.0531,-2.0154,-1.8932,-1.7922,-1.7077,-1.5874,-1.4916,-1.4331,-1.4319,-1.4206,-1.3773,-1.3596,-1.3553,-1.369,-1.3614,-1.3999,-1.46,-1.4591,-1.505,-1.5902,-1.5921,-1.5763,-1.5989,-1.6182,-1.5903,-1.5694,-1.5597,-1.541,-1.4856,-1.4142,-1.3709,-1.3599,-1.2684,-1.1942,-1.1575,-1.063,-1.0075,-0.9971,-0.9278,-0.9058,-0.9703,-0.9401,-0.867,-0.7835,-0.863,-1.0193,-1.1329,-1.0485,-1.0398,-1.055,-1.0448,-1.0465,-1.0895,-1.1104,-1.1444,-1.1571,-1.1952,-1.215,-1.2175,-1.1628,-1.1242,-1.1234,-1.1447,-1.1724,-1.2189,-1.2797,-1.3108,-1.2989,-1.2928,-1.2797,-1.2644,-1.2736,-1.2552,-1.156,-1.087,-1.0555,-1.0561,-1.0561,-1.0561,-1.0448,-1.0168,-0.9997,-0.9749,-0.9484,-0.9676,-0.9924,-1.0109,-0.9798,-0.9125,-0.9062,-0.9302,-0.9535,-0.9453,-0.9246,-0.9094,-0.8916,-0.8775,-0.8713,-0.8699,-0.9021,-0.976,-1.0024,-0.9949,-0.9528,-0.8808,-0.83,-2.2778,-2.2434,-2.1776,-2.1573,-2.1625,-2.1329,-2.1378,-2.1526,-2.0971,-2.0735,-2.0284,-1.9206,-1.835,-1.7697,-1.6536,-1.5604,-1.5026,-1.4619,-1.4452,-1.4269,-1.4081,-1.3988,-1.4045,-1.3988,-1.4141,-1.4581,-1.4723,-1.5028,-1.5473,-1.5634,-1.5722,-1.5824,-1.5857,-1.5656,-1.5065,-1.4728,-1.4185,-1.355,-1.3039,-1.2709,-1.2615,-1.2151,-1.1527,-1.0941,-1.042,-0.9995,-0.9719,-0.9816,-0.961,-0.9297,-0.9793,-0.97,-0.9022,-0.9997,-1.0911,-1.1327,-1.1383,-1.1158,-1.1076,-1.0924,-1.0967,-1.1227,-1.1325,-1.1404,-1.192,-1.215,-1.2332,-1.2224,-1.1753,-1.1158,-1.0936,-1.1331,-1.1848,-1.2257,-1.2554,-1.2775,-1.2582,-1.2205,-1.2019,-1.2359,-1.1988,-1.149,-1.0965,-1.0358,-0.997,-1.0168,-1.0193,-1.0111,-0.9963,-0.9864,-0.9686,-0.9306,-0.9115,-0.9332,-0.9575,-0.9814,-0.9518,-0.8637,-0.851,-0.8827,-0.9114,-0.9341,-0.9102,-0.8899,-0.8663,-0.8504,-0.8533,-0.8566,-0.9183,-0.959,-0.9453,-0.9253,-0.887,-0.83,-0.7893,-2.2274,-2.2123,-2.142,-2.1318,-2.17,-2.1595,-2.1853,-2.2216,-2.1831,-2.1479,-2.0994,-1.9802,-1.881,-1.8076,-1.6671,-1.5784,-1.5274,-1.4875,-1.4636,-1.4508,-1.4385,-1.4286,-1.4201,-1.4145,-1.4352,-1.4812,-1.4786,-1.4985,-1.5217,-1.5288,-1.521,-1.5019,-1.5085,-1.481,-1.4334,-1.4071,-1.3581,-1.29,-1.241,-1.2184,-1.2016,-1.1632,-1.1199,-1.0644,-1.0211,-0.9723,-0.9265,-0.9695,-0.9861,-0.9799,-1.0205,-1.0399,-1.0079,-1.0706,-1.1216,-1.1216,-1.1404,-1.1522,-1.1471,-1.1413,-1.1552,-1.1688,-1.174,-1.1921,-1.2118,-1.2298,-1.2529,-1.2578,-1.1927,-1.1353,-1.111,-1.1483,-1.1676,-1.1606,-1.1864,-1.2058,-1.1996,-1.1732,-1.1553,-1.1553,-1.1334,-1.0965,-1.0624,-0.9945,-0.9652,-0.9644,-0.9689,-0.9622,-0.9545,-0.945,-0.9303,-0.8939,-0.8776,-0.8965,-0.8859,-0.8968,-0.8943,-0.8134,-0.8148,-0.8432,-0.8604,-0.8948,-0.8768,-0.8508,-0.8367,-0.8283,-0.833,-0.8363,-0.8532,-0.8727,-0.8669,-0.843,-0.7988,-0.7717,-0.7339,-2.1928,-2.1683,-2.1181,-2.1216,-2.1776,-2.2072,-2.2593,-2.3229,-2.2968,-2.2539,-2.1852,-2.0509,-1.9398,-1.8433,-1.6755,-1.5626,-1.5467,-1.5134,-1.4856,-1.4706,-1.4649,-1.4608,-1.4303,-1.4201,-1.4492,-1.5055,-1.4845,-1.5028,-1.5232,-1.4903,-1.4447,-1.4318,-1.3988,-1.3655,-1.3484,-1.3403,-1.316,-1.2622,-1.2261,-1.1973,-1.1746,-1.139,-1.0972,-1.0387,-0.977,-0.9301,-0.8995,-0.9224,-0.9696,-1.0322,-1.0757,-1.077,-1.0608,-1.0902,-1.0965,-1.0877,-1.1122,-1.1404,-1.1586,-1.1767,-1.1974,-1.2079,-1.2513,-1.2644,-1.2319,-1.2512,-1.2782,-1.2759,-1.2116,-1.1644,-1.1439,-1.1526,-1.1232,-1.0958,-1.1009,-1.1052,-1.1136,-1.1273,-1.1118,-1.0688,-1.0877,-1.0776,-1.0504,-0.9899,-0.9232,-0.8992,-0.9053,-0.917,-0.9151,-0.9144,-0.8959,-0.8659,-0.8558,-0.8589,-0.831,-0.8041,-0.7916,-0.7615,-0.79,-0.8128,-0.8085,-0.8256,-0.8219,-0.8108,-0.8122,-0.8099,-0.8061,-0.811,-0.8127,-0.7915,-0.7807,-0.7463,-0.71,-0.6917,-0.66,-2.1776,-2.1674,-2.1377,-2.153,-2.208,-2.2526,-2.3079,-2.3646,-2.3379,-2.2846,-2.2044,-2.0985,-2.0069,-1.9187,-1.7256,-1.6279,-1.603,-1.5404,-1.4955,-1.5029,-1.5215,-1.5029,-1.4684,-1.4543,-1.4659,-1.4972,-1.5192,-1.5336,-1.533,-1.5015,-1.4663,-1.4206,-1.3711,-1.3218,-1.27,-1.2711,-1.2419,-1.2123,-1.1994,-1.1854,-1.164,-1.147,-1.0997,-1.0143,-0.9331,-0.8901,-0.8848,-0.9269,-0.9622,-0.9863,-1.0358,-1.0673,-1.0745,-1.0764,-1.0839,-1.0902,-1.1028,-1.131,-1.1627,-1.1645,-1.173,-1.2108,-1.2457,-1.2615,-1.237,-1.277,-1.2895,-1.2624,-1.2054,-1.1647,-1.1465,-1.0811,-1.0643,-1.0664,-1.049,-1.0288,-1.0135,-1.0159,-1.0334,-1.0437,-1.0347,-1.0321,-1.0462,-0.9214,-0.8648,-0.8384,-0.8453,-0.8638,-0.873,-0.8801,-0.8623,-0.8366,-0.8305,-0.825,-0.7944,-0.7646,-0.7487,-0.7459,-0.772,-0.7859,-0.7821,-0.7859,-0.7905,-0.7957,-0.7985,-0.7933,-0.7878,-0.7764,-0.7769,-0.7394,-0.6971,-0.6523,-0.6187,-0.6047,-0.6133,-2.1674,-2.1674,-2.1522,-2.1725,-2.2173,-2.2837,-2.3338,-2.3746,-2.3746,-2.3148,-2.2148,-2.127,-2.0437,-1.9425,-1.7522,-1.6498,-1.6315,-1.5589,-1.5218,-1.5416,-1.5534,-1.535,-1.5029,-1.5022,-1.5064,-1.5112,-1.5343,-1.5499,-1.5373,-1.4944,-1.4457,-1.4095,-1.3462,-1.2977,-1.2576,-1.2444,-1.2398,-1.2174,-1.2101,-1.195,-1.1661,-1.1633,-1.1193,-1.0133,-0.9258,-0.8751,-0.9006,-0.9246,-0.9562,-0.9841,-1.0185,-1.0661,-1.0955,-1.0708,-1.0504,-1.0586,-1.0807,-1.103,-1.1283,-1.1493,-1.163,-1.2039,-1.2484,-1.2505,-1.2463,-1.2748,-1.2738,-1.2339,-1.1852,-1.1414,-1.1155,-1.0767,-1.0496,-1.0338,-1.0083,-0.9783,-0.9774,-0.9794,-0.9802,-0.9895,-0.9655,-0.986,-0.9586,-0.8771,-0.821,-0.8002,-0.8305,-0.8519,-0.855,-0.8551,-0.8356,-0.8174,-0.8081,-0.7891,-0.7601,-0.7374,-0.7215,-0.7292,-0.7593,-0.7636,-0.7612,-0.7688,-0.7783,-0.7802,-0.7807,-0.774,-0.7645,-0.7517,-0.7461,-0.7263,-0.6793,-0.5911,-0.5456,-0.5684,-0.5753,-2.1666,-2.1683,-2.1725,-2.192,-2.2274,-2.2979,-2.3538,-2.3895,-2.393,-2.3165,-2.22,-2.1401,-2.0431,-1.932,-1.75,-1.6606,-1.6192,-1.5822,-1.5531,-1.5838,-1.5843,-1.5658,-1.5364,-1.5402,-1.5493,-1.554,-1.554,-1.554,-1.5386,-1.4801,-1.4341,-1.3863,-1.3118,-1.2726,-1.2653,-1.263,-1.2519,-1.2373,-1.2367,-1.2186,-1.1842,-1.1854,-1.1287,-1.028,-0.9479,-0.9008,-0.9195,-0.9348,-0.9506,-0.9999,-0.9921,-1.0432,-1.0834,-1.066,-0.9926,-0.9945,-1.0249,-1.0619,-1.1011,-1.1241,-1.1499,-1.1928,-1.2507,-1.2589,-1.2454,-1.2618,-1.2628,-1.2168,-1.1653,-1.0977,-1.0472,-1.0296,-1.0178,-0.997,-0.9587,-0.9469,-0.959,-0.9683,-0.9482,-0.9461,-0.9278,-0.9355,-0.9238,-0.8726,-0.8163,-0.777,-0.8085,-0.8291,-0.8319,-0.8212,-0.797,-0.7879,-0.774,-0.7637,-0.7338,-0.7017,-0.6877,-0.7014,-0.7353,-0.741,-0.7396,-0.7466,-0.7541,-0.7579,-0.755,-0.7527,-0.7503,-0.7442,-0.7363,-0.7199,-0.6576,-0.5657,-0.5395,-0.5395,-0.5452,-2.1573,-2.142,-2.1878,-2.2173,-2.2476,-2.3088,-2.3619,-2.3939,-2.3327,-2.2765,-2.2064,-2.1079,-2.0272,-1.9196,-1.7698,-1.6555,-1.6113,-1.5829,-1.59,-1.6174,-1.6228,-1.6102,-1.5868,-1.5875,-1.5844,-1.5737,-1.5757,-1.577,-1.5547,-1.5013,-1.437,-1.3847,-1.3153,-1.2728,-1.2559,-1.2432,-1.258,-1.2626,-1.2584,-1.2403,-1.2174,-1.1844,-1.1365,-1.0341,-0.9661,-0.9382,-0.9293,-0.932,-0.9347,-0.9346,-0.9279,-0.9343,-0.9628,-0.9737,-0.9746,-0.9761,-0.9856,-1.023,-1.081,-1.087,-1.1273,-1.1907,-1.2491,-1.2649,-1.2535,-1.2736,-1.2676,-1.219,-1.1431,-1.0616,-0.9424,-0.9703,-0.9626,-0.9368,-0.9214,-0.9035,-0.8941,-0.8918,-0.9092,-0.9215,-0.9001,-0.8684,-0.8576,-0.836,-0.7825,-0.7484,-0.7656,-0.7794,-0.7794,-0.7666,-0.743,-0.74,-0.7424,-0.7273,-0.7118,-0.6767,-0.6552,-0.6693,-0.6913,-0.7077,-0.7134,-0.7199,-0.7265,-0.7232,-0.733,-0.7372,-0.7372,-0.7297,-0.7068,-0.6773,-0.6119,-0.5362,-0.5259,-0.5126,-0.5296,-2.142,-2.1377,-2.1725,-2.1971,-2.212,-2.2658,-2.2979,-2.3075,-2.2685,-2.2095,-2.1487,-2.0768,-1.9893,-1.8889,-1.7749,-1.6782,-1.632,-1.6035,-1.6286,-1.6573,-1.6806,-1.6796,-1.6536,-1.6619,-1.649,-1.6354,-1.6258,-1.6048,-1.575,-1.4921,-1.4397,-1.3995,-1.3258,-1.2706,-1.2611,-1.2575,-1.2751,-1.2936,-1.2826,-1.262,-1.2361,-1.1902,-1.1094,-1.0626,-0.9965,-0.9567,-0.9474,-0.9332,-0.9221,-0.9093,-0.9085,-0.9069,-0.9141,-0.9318,-0.9632,-0.9793,-0.9842,-1.0097,-1.0699,-1.0797,-1.114,-1.1921,-1.2355,-1.2523,-1.255,-1.2656,-1.2508,-1.174,-1.1264,-1.0453,-0.967,-0.9599,-0.9484,-0.9243,-0.8973,-0.8721,-0.8443,-0.8241,-0.8437,-0.878,-0.8628,-0.8306,-0.7948,-0.7672,-0.7326,-0.7211,-0.7292,-0.7284,-0.728,-0.7086,-0.6913,-0.7005,-0.7021,-0.6989,-0.6754,-0.6344,-0.6164,-0.6313,-0.6379,-0.6544,-0.6708,-0.6741,-0.6778,-0.6811,-0.6942,-0.7101,-0.6905,-0.6708,-0.6515,-0.6251,-0.5451,-0.4858,-0.4858,-0.4924,-0.506,-2.1105,-2.1154,-2.1435,-2.1595,-2.1708,-2.2057,-2.2246,-2.2203,-2.2002,-2.1564,-2.0903,-2.042,-1.9578,-1.8489,-1.7645,-1.6998,-1.6602,-1.6402,-1.6677,-1.703,-1.7314,-1.7353,-1.7346,-1.735,-1.719,-1.6635,-1.6608,-1.6361,-1.5729,-1.4921,-1.4463,-1.418,-1.3449,-1.3003,-1.2976,-1.3125,-1.3262,-1.3286,-1.3185,-1.2936,-1.2496,-1.1745,-1.1127,-1.0973,-1.028,-0.9963,-0.9772,-0.9697,-0.9395,-0.92,-0.917,-0.919,-0.9242,-0.9279,-0.9528,-0.9981,-1.0058,-1.025,-1.0428,-1.0697,-1.1065,-1.1869,-1.2088,-1.2332,-1.2447,-1.2378,-1.2008,-1.111,-1.0599,-1.0263,-0.9693,-0.9603,-0.9432,-0.9114,-0.8723,-0.8356,-0.8016,-0.7757,-0.7561,-0.7825,-0.8016,-0.7902,-0.7518,-0.7019,-0.6633,-0.6791,-0.6834,-0.6874,-0.684,-0.6596,-0.6482,-0.6614,-0.665,-0.6649,-0.636,-0.5864,-0.5744,-0.5822,-0.5785,-0.5818,-0.605,-0.6218,-0.6284,-0.6317,-0.6511,-0.6605,-0.6379,-0.6152,-0.5987,-0.5587,-0.4752,-0.4287,-0.4156,-0.4422,-0.4725,-2.0433,-2.0532,-2.0973,-2.1332,-2.1607,-2.1755,-2.1982,-2.2049,-2.1383,-2.101,-2.0733,-2.0017,-1.9206,-1.8311,-1.7387,-1.6871,-1.6742,-1.6849,-1.7105,-1.7442,-1.7569,-1.765,-1.7567,-1.7429,-1.7267,-1.6863,-1.6724,-1.632,-1.5784,-1.507,-1.4692,-1.4479,-1.4076,-1.3716,-1.3616,-1.3736,-1.4073,-1.4056,-1.3969,-1.3489,-1.2667,-1.1935,-1.1459,-1.1191,-1.1011,-1.0714,-1.0153,-1.0049,-0.9862,-0.9344,-0.9449,-0.9453,-0.9432,-0.95,-0.9568,-0.9705,-0.9801,-0.9893,-0.9955,-1.0361,-1.1004,-1.1771,-1.2076,-1.2249,-1.2274,-1.2118,-1.1854,-1.1652,-1.0755,-0.999,-0.9421,-0.9192,-0.9011,-0.8617,-0.8178,-0.7833,-0.748,-0.7019,-0.6903,-0.6868,-0.7057,-0.7169,-0.7019,-0.6479,-0.6018,-0.6215,-0.6395,-0.644,-0.6375,-0.6164,-0.606,-0.6179,-0.6205,-0.6187,-0.5933,-0.5446,-0.5295,-0.5329,-0.5233,-0.5196,-0.5458,-0.569,-0.5785,-0.5885,-0.6013,-0.6046,-0.5818,-0.5624,-0.5495,-0.5027,-0.4323,-0.3789,-0.3357,-0.3787,-0.4331,-2.0141,-2.0516,-2.0573,-2.0724,-2.0971,-2.1031,-2.107,-2.1003,-2.0571,-2.0272,-2.0109,-1.9653,-1.8874,-1.7986,-1.6972,-1.67,-1.6814,-1.7021,-1.7367,-1.7735,-1.7921,-1.8121,-1.8252,-1.8289,-1.8008,-1.7196,-1.7007,-1.6675,-1.6001,-1.5365,-1.4915,-1.4764,-1.4374,-1.4039,-1.4065,-1.4126,-1.4289,-1.4464,-1.4552,-1.4042,-1.287,-1.2037,-1.1564,-1.1298,-1.1372,-1.0918,-1.0402,-1.0184,-0.9829,-0.9296,-0.9254,-0.9344,-0.926,-0.9249,-0.9289,-0.9374,-0.9597,-0.9771,-0.9945,-1.0371,-1.1132,-1.1828,-1.2175,-1.2126,-1.2081,-1.1908,-1.1567,-1.1132,-0.9967,-0.9296,-0.9241,-0.912,-0.8269,-0.7747,-0.7479,-0.7049,-0.6707,-0.6398,-0.6128,-0.6093,-0.6054,-0.6209,-0.6286,-0.5977,-0.5592,-0.5634,-0.5886,-0.6061,-0.5986,-0.5835,-0.5785,-0.5792,-0.5762,-0.5734,-0.539,-0.5014,-0.4827,-0.4837,-0.4749,-0.4746,-0.4997,-0.516,-0.5239,-0.5199,-0.5223,-0.5223,-0.5193,-0.5259,-0.5226,-0.4625,-0.3923,-0.3403,-0.2985,-0.3314,-0.3804,-1.9986,-2.0506,-2.0237,-2.0281,-2.05,-2.0454,-2.0352,-2.009,-1.999,-1.9716,-1.9396,-1.9058,-1.8404,-1.7721,-1.6947,-1.679,-1.7002,-1.7224,-1.7517,-1.7948,-1.8306,-1.849,-1.8607,-1.8803,-1.8464,-1.7486,-1.7423,-1.7008,-1.6347,-1.5725,-1.5292,-1.5077,-1.4644,-1.4428,-1.4342,-1.4453,-1.4618,-1.4902,-1.5133,-1.4455,-1.3245,-1.2447,-1.2024,-1.1792,-1.1562,-1.1159,-1.0417,-1.0289,-0.9876,-0.9168,-0.9186,-0.927,-0.9111,-0.9122,-0.9144,-0.9282,-0.9548,-0.9831,-1.0127,-1.0585,-1.1395,-1.2026,-1.2332,-1.215,-1.1904,-1.1783,-1.1395,-1.0717,-0.9706,-0.9293,-0.9259,-0.9097,-0.8006,-0.7215,-0.6734,-0.624,-0.5857,-0.5702,-0.5586,-0.5547,-0.5512,-0.5321,-0.5359,-0.5282,-0.5168,-0.5132,-0.5336,-0.5672,-0.5613,-0.5491,-0.5384,-0.5353,-0.5353,-0.5258,-0.4986,-0.4677,-0.4504,-0.4341,-0.4253,-0.4251,-0.4425,-0.4585,-0.4653,-0.4605,-0.45,-0.4361,-0.4325,-0.4691,-0.4957,-0.4323,-0.3711,-0.3029,-0.2738,-0.2997,-0.3274,-2.0053,-2.0269,-2.0029,-2.0176,-2.0513,-2.0388,-2.0053,-1.9737,-1.9837,-1.9471,-1.892,-1.8404,-1.804,-1.7675,-1.7323,-1.7035,-1.705,-1.757,-1.7811,-1.8046,-1.8354,-1.8599,-1.8718,-1.8742,-1.8523,-1.7838,-1.757,-1.7127,-1.6631,-1.5991,-1.5661,-1.5377,-1.5015,-1.4872,-1.4923,-1.5005,-1.5141,-1.5282,-1.5349,-1.4881,-1.3938,-1.3238,-1.2684,-1.2417,-1.2125,-1.1603,-1.0726,-1.0564,-1.0113,-0.9122,-0.9217,-0.9276,-0.9096,-0.9084,-0.9123,-0.9262,-0.9691,-0.9963,-1.0269,-1.0848,-1.1622,-1.22,-1.2372,-1.2116,-1.1737,-1.1974,-1.1498,-1.0401,-0.9511,-0.905,-0.9016,-0.8702,-0.7513,-0.6563,-0.6008,-0.5699,-0.5392,-0.5279,-0.5162,-0.5082,-0.4965,-0.4815,-0.4815,-0.4818,-0.5012,-0.4976,-0.5082,-0.5419,-0.5281,-0.5159,-0.4955,-0.4889,-0.4918,-0.4831,-0.4678,-0.4469,-0.434,-0.4052,-0.3834,-0.3779,-0.3795,-0.3917,-0.4087,-0.403,-0.3925,-0.3692,-0.3558,-0.3889,-0.409,-0.3956,-0.3431,-0.2435,-0.2162,-0.2413,-0.2748,-2.0201,-2.0292,-2.0019,-2.0112,-2.0322,-2.0032,-1.9774,-1.9554,-1.9325,-1.9104,-1.8735,-1.8187,-1.7908,-1.7761,-1.7362,-1.7279,-1.7505,-1.7676,-1.7962,-1.8284,-1.855,-1.8678,-1.8715,-1.8628,-1.8348,-1.7792,-1.7402,-1.7047,-1.6536,-1.6048,-1.5756,-1.546,-1.5323,-1.5259,-1.5319,-1.551,-1.5695,-1.5617,-1.5412,-1.4922,-1.4062,-1.3259,-1.2663,-1.2471,-1.2067,-1.1429,-1.0706,-1.0522,-0.9907,-0.9371,-0.9161,-0.9115,-0.9088,-0.9105,-0.9106,-0.9226,-0.9727,-1.0177,-1.0557,-1.1091,-1.1703,-1.2126,-1.22,-1.1961,-1.152,-1.161,-1.114,-1.0236,-0.9309,-0.8678,-0.7104,-0.7185,-0.688,-0.5872,-0.5275,-0.5063,-0.4927,-0.4813,-0.4582,-0.4462,-0.4462,-0.4389,-0.4428,-0.4467,-0.4701,-0.4893,-0.4994,-0.5061,-0.4939,-0.4817,-0.4649,-0.4563,-0.4634,-0.4699,-0.4561,-0.4388,-0.4188,-0.3802,-0.3439,-0.3327,-0.3283,-0.3393,-0.3511,-0.3462,-0.3424,-0.3291,-0.3224,-0.3222,-0.3322,-0.3422,-0.2632,-0.1484,-0.1516,-0.185,-0.2231,-1.9847,-1.9895,-1.9723,-1.9835,-2.0102,-1.9691,-1.9417,-1.9234,-1.8966,-1.8735,-1.8651,-1.8148,-1.7908,-1.7854,-1.7636,-1.7476,-1.779,-1.8004,-1.826,-1.8461,-1.8645,-1.8776,-1.8775,-1.8612,-1.8278,-1.768,-1.724,-1.6857,-1.6554,-1.5944,-1.5799,-1.5727,-1.5583,-1.5452,-1.5622,-1.5916,-1.6137,-1.598,-1.5548,-1.518,-1.4365,-1.3519,-1.2893,-1.2684,-1.2211,-1.1423,-1.0777,-1.0416,-0.9907,-0.9351,-0.904,-0.9066,-0.9072,-0.9085,-0.9064,-0.9332,-0.974,-1.033,-1.0847,-1.1427,-1.1852,-1.2224,-1.2076,-1.174,-1.1413,-1.1209,-1.0738,-0.9676,-0.8707,-0.7499,-0.5888,-0.6529,-0.6487,-0.5557,-0.4903,-0.4616,-0.4499,-0.4384,-0.4036,-0.3802,-0.3843,-0.388,-0.3684,-0.3761,-0.4181,-0.4419,-0.4564,-0.4653,-0.4655,-0.4529,-0.4366,-0.4359,-0.4394,-0.4488,-0.4521,-0.4426,-0.425,-0.348,-0.3143,-0.2894,-0.2878,-0.3,-0.3068,-0.309,-0.3023,-0.2889,-0.2822,-0.2787,-0.2889,-0.3023,-0.1936,-0.073,-0.1179,-0.1545,-0.1787,-1.8764,-1.9018,-1.9043,-1.9384,-1.9786,-1.9417,-1.8958,-1.8635,-1.8635,-1.8635,-1.8473,-1.8357,-1.8102,-1.7861,-1.7815,-1.7878,-1.797,-1.8291,-1.8527,-1.8575,-1.8678,-1.8808,-1.8699,-1.8473,-1.8018,-1.7637,-1.7184,-1.6773,-1.6595,-1.6044,-1.5948,-1.5906,-1.5683,-1.5606,-1.5771,-1.6172,-1.6373,-1.6292,-1.5759,-1.5423,-1.496,-1.4045,-1.3298,-1.3017,-1.2428,-1.16,-1.0789,-1.0435,-0.9907,-0.9242,-0.8996,-0.9022,-0.9092,-0.9104,-0.9101,-0.9184,-0.9619,-1.0189,-1.0822,-1.16,-1.1993,-1.2126,-1.1936,-1.1497,-1.1255,-1.0959,-1.0413,-0.9333,-0.8187,-0.7407,-0.6844,-0.6607,-0.615,-0.5427,-0.4775,-0.4384,-0.4268,-0.3919,-0.3608,-0.345,-0.3372,-0.3253,-0.2979,-0.2976,-0.3548,-0.3861,-0.407,-0.4229,-0.4302,-0.4258,-0.4128,-0.4124,-0.4158,-0.4268,-0.435,-0.4525,-0.4244,-0.3399,-0.2835,-0.2651,-0.2609,-0.2754,-0.2771,-0.2733,-0.2688,-0.2621,-0.2453,-0.2319,-0.2233,-0.1984,-0.1107,-0.0332,-0.0795,-0.1192,-0.1452,-1.8547,-1.8679,-1.875,-1.8921,-1.9069,-1.8824,-1.8542,-1.8226,-1.8125,-1.8064,-1.8071,-1.8026,-1.8055,-1.7955,-1.7908,-1.7984,-1.8301,-1.8364,-1.8551,-1.8684,-1.866,-1.859,-1.8442,-1.8026,-1.7576,-1.7266,-1.6877,-1.6454,-1.611,-1.5865,-1.5646,-1.5561,-1.5821,-1.6079,-1.6222,-1.6509,-1.6699,-1.6641,-1.6189,-1.5698,-1.5131,-1.3898,-1.3088,-1.3168,-1.2517,-1.1683,-1.0711,-1.0412,-0.9906,-0.9217,-0.8996,-0.9005,-0.9146,-0.9244,-0.92,-0.9099,-0.9314,-0.947,-1.0346,-1.1147,-1.1701,-1.176,-1.1511,-1.0997,-1.0633,-1.0856,-1.0143,-0.9063,-0.7918,-0.7105,-0.6383,-0.6924,-0.6579,-0.5402,-0.4732,-0.4482,-0.4229,-0.3645,-0.3256,-0.3255,-0.3175,-0.2935,-0.2659,-0.257,-0.3009,-0.3375,-0.3578,-0.3812,-0.3898,-0.3949,-0.391,-0.391,-0.3941,-0.4026,-0.4094,-0.4084,-0.3897,-0.3215,-0.2677,-0.2423,-0.2419,-0.2548,-0.2504,-0.2456,-0.2388,-0.2353,-0.2003,-0.1655,-0.124,-0.0781,-0.0228,-0.0162,-0.0657,-0.0944,-0.111,-1.787,-1.8102,-1.8172,-1.8254,-1.8244,-1.8309,-1.8226,-1.7947,-1.7761,-1.7726,-1.7804,-1.7732,-1.7768,-1.7908,-1.7908,-1.8055,-1.8481,-1.8574,-1.8535,-1.8697,-1.8574,-1.8481,-1.8134,-1.7614,-1.7274,-1.6907,-1.6483,-1.6013,-1.585,-1.5643,-1.5453,-1.5495,-1.589,-1.6133,-1.6395,-1.666,-1.6961,-1.6818,-1.6421,-1.5826,-1.5104,-1.418,-1.3276,-1.3052,-1.2563,-1.1867,-1.0871,-1.027,-0.9911,-0.9323,-0.9031,-0.9028,-0.9249,-0.9299,-0.9256,-0.9121,-0.905,-0.9358,-1.032,-1.0393,-1.0831,-1.1119,-1.0696,-1.0425,-1.009,-0.9994,-0.9683,-0.8783,-0.7715,-0.6804,-0.615,-0.6806,-0.6173,-0.4956,-0.4571,-0.4322,-0.383,-0.321,-0.2943,-0.294,-0.286,-0.2581,-0.2434,-0.2414,-0.2514,-0.2803,-0.3097,-0.3248,-0.344,-0.3494,-0.3507,-0.3474,-0.3478,-0.35,-0.3457,-0.3381,-0.3199,-0.2935,-0.258,-0.2271,-0.2258,-0.2352,-0.2248,-0.2188,-0.222,-0.2041,-0.1417,0.0,0.0,0.0,-0.0031,-0.0154,-0.0578,-0.0694,-0.0777,-1.6737,-1.7196,-1.7236,-1.7313,-1.7412,-1.7758,-1.7817,-1.763,-1.766,-1.7652,-1.7684,-1.7669,-1.7675,-1.7768,-1.7955,-1.8234,-1.8481,-1.8651,-1.8612,-1.8527,-1.8388,-1.8265,-1.788,-1.7402,-1.6944,-1.6602,-1.6224,-1.5839,-1.5677,-1.5373,-1.5207,-1.5427,-1.5811,-1.6136,-1.648,-1.6791,-1.709,-1.6946,-1.6306,-1.5806,-1.52,-1.4624,-1.3701,-1.3226,-1.2708,-1.1848,-1.0967,-1.0308,-0.9777,-0.928,-0.8941,-0.9103,-0.9214,-0.9276,-0.9296,-0.9161,-0.8998,-0.9539,-0.9829,-0.9604,-0.9705,-0.9928,-0.9852,-0.9907,-0.9676,-0.9079,-0.8708,-0.811,-0.713,-0.6376,-0.5817,-0.5543,-0.5258,-0.4642,-0.4186,-0.3769,-0.3272,-0.2891,-0.2627,-0.255,-0.247,-0.2333,-0.2306,-0.2286,-0.2046,-0.2214,-0.2419,-0.2395,-0.2615,-0.2903,-0.2919,-0.2908,-0.2913,-0.2924,-0.2891,-0.2934,-0.2793,-0.2631,-0.2467,-0.2198,-0.2191,-0.2196,-0.2206,-0.2188,-0.2119,-0.1805,-0.1158,0.0,0.0,0.0,0.0,0.018,-0.0119,-0.0298,-0.0412,-1.6001,-1.6156,-1.6264,-1.6329,-1.6334,-1.6603,-1.669,-1.6786,-1.7191,-1.737,-1.7339,-1.7385,-1.7512,-1.7729,-1.7994,-1.8226,-1.8419,-1.8527,-1.8527,-1.8388,-1.8148,-1.7796,-1.7378,-1.6966,-1.6573,-1.629,-1.6012,-1.5684,-1.5546,-1.517,-1.5301,-1.577,-1.5802,-1.6154,-1.6581,-1.6916,-1.7057,-1.6857,-1.6079,-1.5708,-1.5195,-1.4522,-1.3674,-1.3073,-1.2835,-1.1876,-1.0804,-1.0262,-0.9633,-0.8824,-0.8624,-0.8669,-0.873,-0.913,-0.9355,-0.848,-0.8457,-0.8661,-0.8446,-0.844,-0.8563,-0.8704,-0.8643,-0.8574,-0.8466,-0.8255,-0.7852,-0.7362,-0.6599,-0.583,-0.5193,-0.4797,-0.4557,-0.4232,-0.367,-0.2966,-0.2559,-0.2426,-0.2204,-0.209,-0.2013,-0.217,-0.2184,-0.185,-0.1635,-0.169,-0.1704,-0.1712,-0.1845,-0.2186,-0.2338,-0.2322,-0.2437,-0.2475,-0.2599,-0.2652,-0.2506,-0.2357,-0.224,-0.2157,-0.2131,-0.2135,-0.2158,-0.2018,-0.1782,-0.1375,-0.0867,0.0,0.0,0.0,0.0178,0.0295,0.0352,0.0117,-0.0029,-1.5609,-1.568,-1.569,-1.5602,-1.5497,-1.5785,-1.5878,-1.5985,-1.6545,-1.6888,-1.6916,-1.7108,-1.7321,-1.7474,-1.7643,-1.788,-1.811,-1.8102,-1.8118,-1.8055,-1.7846,-1.7512,-1.7032,-1.6647,-1.6396,-1.6104,-1.5793,-1.5538,-1.5408,-1.5157,-1.5186,-1.568,-1.576,-1.6184,-1.6639,-1.6892,-1.6886,-1.6519,-1.6014,-1.5596,-1.5023,-1.436,-1.3554,-1.2822,-1.2713,-1.1876,-1.0454,-1.0035,-0.9218,-0.8427,-0.8265,-0.8134,-0.8228,-0.8669,-0.8154,-0.7421,-0.7762,-0.7702,-0.7535,-0.7613,-0.7692,-0.7701,-0.7605,-0.7509,-0.7369,-0.7187,-0.7198,-0.6987,-0.6142,-0.5331,-0.4695,-0.4172,-0.3983,-0.3792,-0.2954,-0.2106,-0.1943,-0.1851,-0.1745,-0.1672,-0.1771,-0.1967,-0.1836,-0.1449,-0.1215,-0.1266,-0.1206,-0.107,-0.1265,-0.1624,-0.1728,-0.1749,-0.1928,-0.2071,-0.2191,-0.2252,-0.2181,-0.2113,-0.2185,-0.2123,-0.2053,-0.1918,-0.1849,-0.158,-0.1244,-0.0903,-0.0598,-0.0295,0.0,0.0153,0.0322,0.0549,0.0574,0.0401,0.0256,-1.5287,-1.544,-1.5338,-1.4922,-1.4699,-1.5148,-1.5175,-1.4927,-1.5649,-1.6162,-1.644,-1.675,-1.6924,-1.6994,-1.7093,-1.7319,-1.75,-1.7552,-1.7637,-1.7662,-1.7563,-1.7277,-1.689,-1.6588,-1.6314,-1.5985,-1.5685,-1.5425,-1.5372,-1.5117,-1.4997,-1.547,-1.5638,-1.5974,-1.6394,-1.6642,-1.6531,-1.6159,-1.5746,-1.5311,-1.5058,-1.4482,-1.3668,-1.2784,-1.2597,-1.2265,-1.0469,-0.9396,-0.8661,-0.8166,-0.779,-0.7585,-0.7662,-0.7689,-0.6816,-0.6383,-0.6751,-0.6761,-0.6647,-0.6691,-0.6728,-0.6784,-0.685,-0.6574,-0.633,-0.6406,-0.6544,-0.642,-0.5646,-0.4753,-0.406,-0.3946,-0.3845,-0.3223,-0.24,-0.1819,-0.1599,-0.1431,-0.122,-0.1148,-0.1146,-0.1344,-0.1339,-0.0948,-0.064,-0.0777,-0.0777,-0.054,-0.0649,-0.1019,-0.1108,-0.1159,-0.1327,-0.1504,-0.1717,-0.1758,-0.1776,-0.1794,-0.1863,-0.1853,-0.1648,-0.1547,-0.1445,-0.1244,-0.0974,-0.0665,-0.0329,-0.0066,0.0193,0.0332,0.0522,0.0793,0.0787,0.0677,0.0621,-1.3642,-1.3885,-1.3891,-1.3808,-1.3737,-1.3845,-1.3969,-1.4038,-1.4475,-1.5116,-1.5807,-1.5982,-1.6138,-1.6335,-1.6491,-1.6714,-1.6899,-1.6958,-1.7109,-1.716,-1.7157,-1.6889,-1.6632,-1.6492,-1.6282,-1.589,-1.5589,-1.5373,-1.5156,-1.4912,-1.4933,-1.5399,-1.5488,-1.5657,-1.6,-1.6128,-1.5956,-1.5706,-1.5192,-1.4813,-1.45,-1.3744,-1.2856,-1.2373,-1.218,-1.1257,-0.9748,-0.8707,-0.789,-0.7177,-0.6945,-0.6809,-0.6749,-0.673,-0.6215,-0.5571,-0.5545,-0.5588,-0.5621,-0.5656,-0.5683,-0.5623,-0.5606,-0.5475,-0.5455,-0.572,-0.5776,-0.5593,-0.5158,-0.4244,-0.3657,-0.3666,-0.346,-0.2619,-0.1816,-0.1517,-0.1236,-0.0997,-0.0719,-0.0612,-0.0577,-0.0637,-0.0652,-0.0508,-0.0202,-0.0135,-0.0202,-0.0135,-0.0101,-0.0308,-0.0417,-0.0456,-0.0656,-0.083,-0.1095,-0.1207,-0.1176,-0.1162,-0.1148,-0.1178,-0.1208,-0.1103,-0.0966,-0.0972,-0.0771,-0.0365,-0.0033,0.0167,0.0356,0.0514,0.0662,0.0901,0.1094,0.1041,0.1011,-1.2875,-1.2853,-1.2713,-1.2746,-1.2939,-1.3038,-1.3201,-1.3403,-1.372,-1.4157,-1.4708,-1.5214,-1.5543,-1.5665,-1.5812,-1.6031,-1.6213,-1.6264,-1.6507,-1.6647,-1.6601,-1.6396,-1.6338,-1.6278,-1.6047,-1.5707,-1.5575,-1.5352,-1.4954,-1.488,-1.4979,-1.5275,-1.5232,-1.529,-1.5618,-1.5573,-1.5386,-1.5127,-1.4519,-1.4112,-1.3778,-1.3072,-1.2352,-1.1926,-1.1487,-1.049,-0.8816,-0.7688,-0.6725,-0.6237,-0.6119,-0.6284,-0.6168,-0.5939,-0.528,-0.4727,-0.4521,-0.4478,-0.4504,-0.4559,-0.463,-0.4596,-0.4791,-0.4834,-0.4324,-0.4543,-0.4635,-0.4478,-0.4533,-0.3778,-0.3322,-0.3224,-0.2587,-0.1814,-0.1144,-0.0682,-0.0516,-0.0346,-0.0069,0.0173,0.0104,-0.0104,-0.0101,0.0034,0.0269,0.0337,0.0303,0.0268,0.0268,0.0299,0.0236,0.0204,0.0,-0.0202,-0.0447,-0.0517,-0.051,-0.0472,-0.0502,-0.0599,-0.066,-0.0561,-0.0462,-0.0364,-0.0199,0.0033,0.0333,0.0467,0.0588,0.0741,0.0851,0.0954,0.1178,0.1375,0.1375,-1.2326,-1.201,-1.17,-1.1839,-1.2218,-1.2428,-1.2661,-1.2876,-1.3153,-1.3272,-1.3476,-1.4479,-1.4925,-1.5087,-1.5104,-1.5276,-1.5405,-1.554,-1.5821,-1.6067,-1.6,-1.5806,-1.577,-1.5832,-1.5749,-1.5596,-1.5454,-1.5184,-1.482,-1.4864,-1.4927,-1.5125,-1.5132,-1.5156,-1.5292,-1.5261,-1.495,-1.4316,-1.3749,-1.3333,-1.2961,-1.2576,-1.1857,-1.1495,-1.119,-1.039,-0.8162,-0.6422,-0.5405,-0.5254,-0.5328,-0.5532,-0.5485,-0.5135,-0.4128,-0.3583,-0.3492,-0.3508,-0.3588,-0.3706,-0.3718,-0.3799,-0.4121,-0.4005,-0.3503,-0.3423,-0.3522,-0.3558,-0.3601,-0.3547,-0.3059,-0.2319,-0.1614,-0.1211,-0.0606,-0.0034,0.0068,0.0169,0.0439,0.0741,0.064,0.0405,0.0438,0.0573,0.0739,0.0806,0.077,0.0701,0.0663,0.0653,0.0652,0.0693,0.0627,0.0399,0.0135,0.0101,0.0067,-0.0033,-0.0097,-0.013,-0.013,-0.0097,0.0064,0.039,0.0522,0.0556,0.0621,0.0718,0.0828,0.0899,0.0915,0.1011,0.1375,0.1572,0.1656,-1.0704,-1.0706,-1.0831,-1.104,-1.1272,-1.1501,-1.1793,-1.2188,-1.2422,-1.2678,-1.3007,-1.3121,-1.36,-1.4522,-1.4572,-1.4698,-1.4874,-1.4923,-1.5106,-1.5338,-1.5317,-1.5191,-1.5141,-1.5277,-1.5555,-1.545,-1.5263,-1.5113,-1.4864,-1.4875,-1.4892,-1.4887,-1.4606,-1.4425,-1.4132,-1.4047,-1.3752,-1.3241,-1.2828,-1.2357,-1.1762,-1.1326,-1.0981,-1.052,-1.0072,-0.8664,-0.6942,-0.5395,-0.4807,-0.456,-0.4486,-0.47,-0.4709,-0.429,-0.3201,-0.2479,-0.2404,-0.2637,-0.2767,-0.2859,-0.2886,-0.2797,-0.3031,-0.305,-0.2755,-0.277,-0.2811,-0.274,-0.2832,-0.3058,-0.2589,-0.1397,-0.0606,-0.074,-0.0438,-0.0034,0.0202,0.0371,0.0573,0.0841,0.1009,0.0875,0.0807,0.1037,0.1355,0.1352,0.111,0.1039,0.0991,0.1015,0.1042,0.1088,0.1166,0.089,0.057,0.0607,0.0569,0.0453,0.038,0.0447,0.0414,0.0281,0.047,0.093,0.0928,0.0892,0.0925,0.0959,0.0907,0.0942,0.0932,0.104,0.1461,0.1796,0.1936]}]]